[[{"header":{"parameterUnit":"m.s-1","parameterCategory":1,"la1":30.6,"la2":28.766,"lo1":-90.7593,"lo2":-88.6598,"dy":0.0162,"dx":0.0183,"nx":116,"ny":114,"refTime":"2024-04-09T06:00:00:Z","depth":0,"parameterNumber":2,"parameterNumberName":"U-component_of_WINDS"},"data":[0.0,0.0,0.0,0.0,0.0,0.0,0.0,0.0,0.0,0.0,0.0,0.0,0.0,0.0,0.0,0.0,0.0,0.0,0.0,0.0,0.0,0.0,0.0,0.0,0.0,0.0,0.0,0.0,0.0,0.0,0.0,0.0,0.0,0.0,0.0,0.0,0.0,0.0,0.0,0.0,0.0,0.0,0.0,0.0,0.0,0.0,0.0,0.0,0.0,0.0,0.0,0.0,0.0,0.0,0.0,0.0,0.0,0.0,0.0,0.0,0.0,0.0,0.0,0.0,0.0,0.0,0.0,0.0,0.0,0.0,0.0,0.0,0.0,0.0,0.0,0.0,0.0,0.0,0.0,0.0,0.0,0.0,0.0,0.0,0.0,0.0,0.0,0.0,0.0,0.0,0.0,0.0,0.0,0.0,0.0,0.0,0.0,0.0,0.0,0.0,0.0,0.0,0.0,0.0,0.0,0.0,0.0,0.0,0.0,0.0,0.0,0.0,0.0,0.0,0.0,0.0,0.0,0.0,0.0,0.0,0.0,0.0,0.0,0.0,0.0,0.0,0.0,0.0,0.0,0.0,0.0,0.0,0.0,0.0,0.0,0.0,0.0,0.0,0.0,0.0,0.0,0.0,0.0,0.0,0.0,0.0,0.0,0.0,0.0,0.0,0.0,0.0,0.0,0.0,0.0,0.0,0.0,0.0,0.0,0.0,0.0,0.0,0.0,0.0,0.0,0.0,0.0,0.0,0.0,0.0,0.0,0.0,0.0,0.0,0.0,0.0,0.0,0.0,0.0,0.0,0.0,0.0,0.0,0.0,0.0,0.0,0.0,0.0,0.0,0.0,0.0,0.0,0.0,0.0,0.0,0.0,0.0,0.0,0.0,0.0,0.0,0.0,0.0,0.0,0.0,0.0,0.0,0.0,0.0,0.0,0.0,0.0,0.0,0.0,0.0,0.0,0.0,0.0,0.0,0.0,0.0,0.0,0.0,0.0,0.0,0.0,0.0,0.0,0.0,0.0,0.0,0.0,0.0,0.0,0.0,0.0,0.0,0.0,0.0,0.0,0.0,0.0,0.0,0.0,0.0,0.0,0.0,0.0,0.0,0.0,0.0,0.0,0.0,0.0,0.0,0.0,0.0,0.0,0.0,0.0,0.0,0.0,0.0,0.0,0.0,0.0,0.0,0.0,0.0,0.0,0.0,0.0,0.0,0.0,0.0,0.0,0.0,0.0,0.0,0.0,0.0,0.0,0.0,0.0,0.0,0.0,0.0,0.0,0.0,0.0,0.0,0.0,0.0,0.0,0.0,0.0,0.0,0.0,0.0,0.0,0.0,0.0,0.0,0.0,0.0,0.0,0.0,0.0,0.0,0.0,0.0,0.0,0.0,0.0,0.0,0.0,0.0,0.0,0.0,0.0,0.0,0.0,0.0,0.0,0.0,0.0,0.0,0.0,0.0,0.0,0.0,0.0,0.0,0.0,0.0,0.0,0.0,0.0,0.0,0.0,0.0,0.0,0.0,0.0,0.0,0.0,0.0,0.0,0.0,0.0,0.0,0.0,0.0,0.0,0.0,0.0,0.0,0.0,0.0,0.0,0.0,0.0,0.0,0.0,0.0,0.0,0.0,0.0,0.0,0.0,0.0,0.0,0.0,0.0,0.0,0.0,0.0,0.0,0.0,0.0,0.0,0.0,0.0,0.0,0.0,0.0,0.0,0.0,0.0,0.0,0.0,0.0,0.0,0.0,0.0,0.0,0.0,0.0,0.0,0.0,0.0,0.0,0.0,0.0,0.0,0.0,0.0,0.0,0.0,0.0,0.0,0.0,0.0,0.0,0.0,0.0,0.0,0.0,0.0,0.0,0.0,0.0,0.0,0.0,0.0,0.0,0.0,0.0,0.0,0.0,0.0,0.0,0.0,0.0,0.0,0.0,0.0,0.0,0.0,0.0,0.0,0.0,0.0,0.0,0.0,0.0,0.0,0.0,0.0,0.0,0.0,0.0,0.0,0.0,0.0,0.0,0.0,0.0,0.0,0.0,0.0,0.0,0.0,0.0,0.0,0.0,0.0,0.0,0.0,0.0,0.0,0.0,0.0,0.0,0.0,0.0,0.0,0.0,0.0,0.0,0.0,0.0,0.0,0.0,0.0,0.0,0.0,0.0,0.0,0.0,0.0,0.0,0.0,0.0,0.0,0.0,0.0,0.0,0.0,0.0,0.0,0.0,0.0,0.0,0.0,0.0,0.0,0.0,0.0,0.0,0.0,0.0,0.0,0.0,0.0,0.0,0.0,0.0,0.0,0.0,0.0,0.0,0.0,0.0,0.0,0.0,0.0,0.0,0.0,0.0,0.0,0.0,0.0,0.0,0.0,0.0,0.0,0.0,0.0,0.0,0.0,0.0,0.0,0.0,0.0,0.0,0.0,0.0,0.0,0.0,0.0,0.0,0.0,0.0,0.0,0.0,0.0,0.0,0.0,0.0,0.0,0.0,0.0,0.0,0.0,0.0,0.0,0.0,0.0,0.0,0.0,0.0,0.0,0.0,0.0,0.0,0.0,0.0,0.0,0.0,0.0,0.0,0.0,0.0,0.0,0.0,0.0,0.0,0.0,0.0,0.0,0.0,0.0,0.0,0.0,0.0,0.0,0.0,0.0,0.0,0.0,0.0,0.0,0.0,0.0,0.0,0.0,0.0,0.0,0.0,0.0,0.0,0.0,0.0,0.0,0.0,0.0,0.0,0.0,0.0,0.0,0.0,0.0,0.0,0.0,0.0,0.0,0.0,0.0,0.0,0.0,0.0,0.0,0.0,0.0,0.0,0.0,0.0,0.0,0.0,0.0,0.0,0.0,0.0,0.0,0.0,0.0,0.0,0.0,0.0,0.0,0.0,0.0,0.0,0.0,0.0,0.0,0.0,0.0,0.0,0.0,0.0,0.0,0.0,0.0,0.0,0.0,0.0,0.0,0.0,0.0,0.0,0.0,0.0,0.0,0.0,0.0,0.0,0.0,0.0,0.0,0.0,0.0,0.0,0.0,0.0,0.0,0.0,0.0,0.0,0.0,0.0,0.0,0.0,0.0,0.0,0.0,0.0,0.0,0.0,0.0,0.0,0.0,0.0,0.0,0.0,0.0,0.0,0.0,0.0,0.0,0.0,0.0,0.0,0.0,0.0,0.0,0.0,0.0,0.0,0.0,0.0,0.0,0.0,0.0,0.0,0.0,0.0,0.0,0.0,0.0,0.0,0.0,0.0,0.0,0.0,0.0,0.0,0.0,0.0,0.0,0.0,0.0,0.0,0.0,0.0,0.0,0.0,0.0,0.0,0.0,0.0,0.0,0.0,0.0,0.0,0.0,0.0,0.0,0.0,0.0,0.0,0.0,0.0,0.0,0.0,0.0,0.0,0.0,0.0,0.0,0.0,0.0,0.0,0.0,0.0,0.0,0.0,0.0,0.0,0.0,0.0,0.0,0.0,0.0,0.0,0.0,0.0,0.0,0.0,0.0,0.0,0.0,0.0,0.0,0.0,0.0,0.0,0.0,0.0,0.0,0.0,0.0,0.0,0.0,0.0,0.0,0.0,0.0,0.0,0.0,0.0,0.0,0.0,0.0,0.0,0.0,0.0,0.0,0.0,0.0,0.0,0.0,0.0,0.0,0.0,0.0,0.0,0.0,0.0,0.0,0.0,0.0,0.0,0.0,0.0,0.0,0.0,0.0,0.0,0.0,0.0,0.0,0.0,0.0,0.0,0.0,0.0,0.0,0.0,0.0,0.0,0.0,0.0,0.0,0.0,0.0,0.0,0.0,0.0,0.0,0.0,0.0,0.0,0.0,0.0,0.0,0.0,0.0,0.0,0.0,0.0,0.0,0.0,0.0,0.0,0.0,0.0,0.0,0.0,0.0,0.0,0.0,0.0,0.0,0.0,0.0,0.0,0.0,0.0,0.0,0.0,0.0,0.0,0.0,0.0,0.0,0.0,0.0,0.0,0.0,0.0,0.0,0.0,0.0,0.0,0.0,0.0,0.0,0.0,0.0,0.0,0.0,0.0,0.0,0.0,0.0,0.0,0.0,0.0,0.0,0.0,0.0,0.0,0.0,0.0,0.0,0.0,0.0,0.0,0.0,0.0,0.0,0.0,0.0,0.0,0.0,0.0,0.0,0.0,0.0,0.0,0.0,0.0,0.0,0.0,0.0,0.0,0.0,0.0,0.0,0.0,0.0,0.0,0.0,0.0,0.0,0.0,0.0,0.0,0.0,0.0,0.0,0.0,0.0,0.0,0.0,0.0,0.0,0.0,0.0,0.0,0.0,0.0,0.0,0.0,0.0,0.0,0.0,0.0,0.0,0.0,0.0,0.0,0.0,0.0,0.0,0.0,0.0,0.0,0.0,0.0,0.0,0.0,0.0,0.0,0.0,0.0,0.0,0.0,0.0,0.0,0.0,0.0,0.0,0.0,0.0,0.0,0.0,0.0,0.0,0.0,0.0,0.0,0.0,0.0,0.0,0.0,0.0,0.0,0.0,0.0,0.0,0.0,0.0,0.0,0.0,0.0,0.0,0.0,0.0,0.0,0.0,0.0,0.0,0.0,0.0,0.0,0.0,0.0,0.0,0.0,0.0,0.0,0.0,0.0,0.0,0.0,0.0,0.0,0.0,0.0,0.0,0.0,0.0,0.0,0.0,0.0,0.0,0.0,0.0,0.0,0.0,0.0,0.0,0.0,0.0,0.0,0.0,0.0,0.0,0.0,0.0,0.0,0.0,0.0,0.0,0.0,0.0,0.0,0.0,0.0,0.0,0.0,0.0,0.0,0.0,0.0,0.0,0.0,0.0,0.0,0.0,0.0,0.0,0.0,0.0,0.0,0.0,0.0,0.0,0.0,0.0,0.0,0.0,0.0,0.0,0.0,0.0,0.0,0.0,0.0,0.0,0.0,0.0,0.0,0.0,0.0,0.0,0.0,0.0,0.0,0.0,0.0,0.0,0.0,0.0,0.0,0.0,0.0,0.0,0.0,0.0,0.0,0.0,0.0,0.0,0.0,0.0,0.0,0.0,0.0,0.0,0.0,0.0,0.0,0.0,0.0,0.0,0.0,0.0,0.0,0.0,0.0,0.0,0.0,0.0,0.0,0.0,0.0,0.0,0.0,0.0,0.0,0.0,0.0,0.0,0.0,0.0,0.0,0.0,0.0,0.0,0.0,0.0,0.0,0.0,0.0,0.0,0.0,0.0,0.0,0.0,0.0,0.0,0.0,0.0,0.0,0.0,0.0,0.0,0.0,0.0,0.0,0.0,0.0,0.0,0.0,0.0,0.0,0.0,0.0,0.0,0.0,0.0,0.0,0.0,0.0,0.0,0.0,0.0,0.0,0.0,0.0,0.0,0.0,0.0,0.0,0.0,0.0,0.0,0.0,0.0,0.0,0.0,0.0,0.0,0.0,0.0,0.0,0.0,0.0,0.0,0.0,0.0,0.0,0.0,0.0,0.0,0.0,0.0,0.0,0.0,0.0,0.0,0.0,0.0,0.0,0.0,0.0,0.0,0.0,0.0,0.0,0.0,0.0,0.0,0.0,0.0,0.0,0.0,0.0,0.0,0.0,0.0,0.0,0.0,0.0,0.0,0.0,0.0,0.0,0.0,0.0,0.0,0.0,0.0,0.0,0.0,0.0,0.0,0.0,0.0,0.0,0.0,0.0,0.0,0.0,0.0,0.0,0.0,0.0,0.0,0.0,0.0,0.0,0.0,0.0,0.0,0.0,0.0,0.0,0.0,0.0,0.0,0.0,0.0,0.0,0.0,0.0,0.0,0.0,0.0,0.0,0.0,0.0,0.0,0.0,0.0,0.0,0.0,0.0,0.0,0.0,0.0,0.0,0.0,0.0,0.0,0.0,0.0,0.0,0.0,0.0,0.0,0.0,0.0,0.0,0.0,0.0,0.0,0.0,0.0,0.0,0.0,0.0,0.0,0.0,0.0,0.0,0.0,0.0,0.0,0.0,0.0,0.0,0.0,0.0,0.0,0.0,0.0,0.0,0.0,0.0,0.0,0.0,0.0,0.0,0.0,0.0,0.0,0.0,0.0,0.0,0.0,0.0,0.0,0.0,0.0,0.0,-12.4671,-12.4826,0.0,0.0,0.0,0.0,0.0,0.0,0.0,0.0,0.0,0.0,0.0,0.0,0.0,0.0,0.0,0.0,0.0,0.0,0.0,0.0,0.0,0.0,0.0,-8.0849,-8.2566,-8.4927,-8.5887,-8.74,-8.9752,-8.9111,-8.8997,-8.9829,-8.9094,-8.8017,-8.6786,-8.594,-8.4863,-8.3555,-8.1477,-8.0106,-7.9378,-8.1342,-8.354,-8.5942,0.0,0.0,0.0,0.0,0.0,0.0,0.0,0.0,0.0,0.0,0.0,0.0,0.0,0.0,0.0,0.0,0.0,0.0,0.0,0.0,0.0,0.0,0.0,0.0,0.0,0.0,0.0,0.0,0.0,0.0,0.0,0.0,0.0,0.0,0.0,0.0,0.0,0.0,0.0,0.0,0.0,0.0,0.0,0.0,0.0,0.0,0.0,0.0,0.0,0.0,0.0,0.0,0.0,0.0,0.0,0.0,0.0,0.0,0.0,0.0,0.0,0.0,0.0,0.0,0.0,0.0,0.0,0.0,0.0,0.0,-12.7591,-12.5908,0.0,0.0,0.0,0.0,0.0,0.0,0.0,0.0,0.0,0.0,0.0,0.0,0.0,0.0,0.0,0.0,0.0,0.0,0.0,0.0,0.0,-7.9627,-8.0781,-8.1782,-8.359,-8.6677,-8.7789,-8.9199,-9.1375,-9.1463,-9.1081,-9.0413,-9.026,-8.945,-8.7863,-8.6863,-8.5478,-8.3862,-8.0939,-7.9401,-7.9093,-8.1187,-8.357,-8.6197,-8.8505,0.0,0.0,0.0,0.0,0.0,0.0,0.0,0.0,0.0,0.0,0.0,0.0,0.0,0.0,0.0,0.0,0.0,0.0,0.0,0.0,0.0,0.0,0.0,0.0,0.0,0.0,0.0,0.0,0.0,0.0,0.0,0.0,0.0,0.0,0.0,0.0,0.0,0.0,0.0,0.0,0.0,0.0,0.0,0.0,0.0,0.0,0.0,0.0,0.0,0.0,0.0,0.0,0.0,0.0,0.0,0.0,0.0,0.0,0.0,0.0,0.0,0.0,0.0,-12.7609,-12.9505,-13.4184,-13.2788,-13.3095,-13.4528,-13.1475,-12.8313,-12.52,-12.6601,0.0,0.0,0.0,0.0,0.0,0.0,0.0,0.0,0.0,0.0,0.0,0.0,0.0,0.0,0.0,0.0,0.0,0.0,0.0,-8.1084,-8.2829,-8.4387,-8.6185,-8.8682,-8.9668,-9.0863,-9.2503,-9.1922,-9.1723,-9.2226,-9.1539,-9.0679,-8.9633,-8.8017,-8.6401,-8.4709,-8.0631,-7.9224,-8.027,-8.2746,-8.5117,-8.7264,-8.7387,-8.9228,-9.2116,0.0,0.0,0.0,0.0,0.0,0.0,0.0,0.0,0.0,0.0,0.0,0.0,0.0,0.0,0.0,0.0,0.0,0.0,0.0,0.0,0.0,0.0,0.0,0.0,0.0,0.0,0.0,0.0,0.0,0.0,0.0,0.0,0.0,0.0,0.0,0.0,0.0,0.0,0.0,0.0,0.0,-10.3108,-10.3179,0.0,0.0,0.0,0.0,0.0,0.0,0.0,0.0,0.0,0.0,0.0,0.0,0.0,-12.5871,-12.8673,-12.9116,-13.0258,-13.2203,-13.2695,-13.4511,-13.7288,-13.7106,-13.6888,-13.6717,-13.5875,0.0,-13.023,-12.6834,0.0,0.0,0.0,0.0,0.0,0.0,0.0,0.0,0.0,0.0,0.0,0.0,0.0,0.0,0.0,0.0,0.0,0.0,0.0,0.0,0.0,-8.5527,-8.7476,-8.9796,-9.0749,-9.1795,-9.329,-9.2674,-9.2202,-9.194,-9.1615,-9.0798,-8.9341,-8.8116,-8.6199,-8.3478,-8.1554,-8.1337,-8.2668,-8.4225,-8.6132,-8.8203,-8.8257,-9.0078,-9.288,-9.1014,0.0,0.0,0.0,0.0,0.0,0.0,0.0,0.0,0.0,0.0,0.0,0.0,0.0,0.0,0.0,0.0,0.0,0.0,0.0,0.0,0.0,0.0,0.0,0.0,0.0,0.0,0.0,0.0,0.0,0.0,0.0,0.0,0.0,0.0,0.0,0.0,0.0,0.0,0.0,-10.323,-10.6598,-10.608,-10.9468,-11.1723,0.0,0.0,0.0,0.0,0.0,0.0,0.0,0.0,0.0,-12.6631,-12.8827,-13.1014,-13.2966,-13.3269,-13.4532,-13.6715,-13.6865,-13.8368,-14.1005,-14.1005,-14.1271,-14.1613,-14.009,-13.8423,-13.6367,-13.0877,-12.8285,-12.7565,0.0,0.0,0.0,0.0,-12.7107,-12.8102,0.0,0.0,0.0,0.0,0.0,0.0,0.0,0.0,0.0,0.0,0.0,0.0,-8.53,-8.6759,-8.8494,-9.0657,-9.1572,-9.2529,-9.3618,-9.3005,-9.233,-9.1786,-9.159,-9.0857,-8.9277,-8.7966,-8.5857,-8.2939,-8.2939,-8.3734,-8.5315,-8.6327,-8.7816,-8.9599,-9.0119,-9.1417,-9.3114,-9.1091,-9.0375,-9.0469,0.0,0.0,0.0,0.0,0.0,0.0,0.0,0.0,0.0,0.0,0.0,0.0,0.0,0.0,0.0,0.0,0.0,0.0,0.0,0.0,0.0,0.0,0.0,0.0,0.0,0.0,0.0,0.0,0.0,0.0,0.0,0.0,0.0,0.0,0.0,0.0,0.0,-10.5667,-10.9004,-10.8436,-11.2461,-11.4911,0.0,0.0,0.0,0.0,0.0,0.0,-12.4004,-12.6789,-12.9062,-13.0781,-13.3593,-13.5781,-13.7265,-13.7708,-13.8997,-14.1106,-14.1056,-14.2632,-14.5322,-14.5322,-14.5831,-14.6484,-14.4261,-14.2731,-14.1334,-13.4642,-13.0406,-12.8113,-12.7183,-12.7109,-12.7417,-12.76,-12.8332,-12.9102,0.0,0.0,0.0,0.0,0.0,0.0,0.0,0.0,0.0,0.0,0.0,-8.3757,-8.7582,-8.8757,-8.985,-9.1617,-9.2356,-9.2804,-9.3028,-9.2242,-9.2031,-9.2744,-9.2002,-9.1194,-9.0253,-8.7711,-8.5819,-8.4786,-8.4786,-8.5821,-8.7962,-8.9596,-9.095,-9.2021,-9.2713,-9.2742,-9.2159,-9.0205,-8.9873,-9.0436,-8.8061,0.0,0.0,0.0,0.0,0.0,0.0,0.0,0.0,0.0,0.0,0.0,0.0,0.0,0.0,0.0,0.0,0.0,0.0,0.0,0.0,0.0,0.0,0.0,0.0,0.0,0.0,0.0,0.0,0.0,0.0,0.0,0.0,0.0,0.0,0.0,0.0,0.0,0.0,-10.9296,-11.5038,0.0,0.0,0.0,0.0,-12.1874,-12.4999,-12.7031,-12.7109,-12.9609,-13.1797,-13.3515,-13.6875,-13.9062,-14.0,-14.2421,-14.4062,-14.4999,-14.578,-14.7577,-15.0077,-15.0077,-15.0234,-15.0077,-14.8472,-14.6421,-14.3619,-13.6278,-13.3729,-13.3961,-13.0709,-13.0229,-13.1306,-13.0564,-12.9794,-12.9179,0.0,0.0,0.0,0.0,0.0,-7.3191,-7.5529,-7.7347,-7.9349,-8.1785,-8.3521,-8.582,-8.9344,-9.0434,-9.1389,-9.2501,-9.3248,-9.3635,-9.3706,-9.3347,-9.3012,-9.2819,-9.2601,-9.1622,-8.9638,-8.8009,-8.7263,-8.7425,-8.7919,-8.8845,-9.033,-9.1063,-9.1653,-9.2026,-9.2805,-9.3039,-9.2698,-9.0771,-8.9895,-8.964,-8.8272,-8.778,0.0,0.0,0.0,0.0,0.0,0.0,0.0,0.0,0.0,0.0,0.0,0.0,0.0,0.0,0.0,0.0,0.0,0.0,0.0,0.0,0.0,0.0,0.0,0.0,0.0,0.0,0.0,0.0,0.0,0.0,0.0,0.0,0.0,0.0,0.0,0.0,0.0,-11.7421,-12.312,0.0,-12.5,-12.6797,-12.7968,-12.7968,-13.0234,-13.2031,-13.2968,-13.5,-13.7187,-13.9531,-14.1328,-14.289,-14.4297,-14.5781,-14.6875,-14.7812,-14.8672,-14.9922,-15.1328,-15.1328,-15.1015,-15.039,-14.8784,-14.7277,-14.5587,-14.1422,-13.7871,-13.5142,-13.3861,-13.2686,-13.1718,-13.2025,-13.1564,-13.0794,0.0,0.0,0.0,0.0,0.0,-7.384,-7.5605,-7.7842,-7.9818,-8.1259,-8.3691,-8.6628,-8.9858,-9.1171,-9.234,-9.3816,-9.3935,-9.4104,-9.4424,-9.3682,-9.3142,-9.3197,-9.258,-9.1028,-8.8394,-8.8796,-8.9094,-8.9272,-9.0532,-9.1638,-9.2406,-9.286,-9.3102,-9.3102,-9.3957,-9.428,-9.4162,-9.2613,-9.1106,-8.9544,-8.7856,-8.79,-8.913,0.0,0.0,0.0,0.0,0.0,0.0,0.0,0.0,0.0,0.0,0.0,0.0,0.0,0.0,0.0,0.0,0.0,0.0,0.0,0.0,0.0,0.0,0.0,0.0,0.0,0.0,0.0,0.0,0.0,0.0,0.0,0.0,0.0,0.0,-11.5625,-12.0781,-12.3984,-12.9687,-13.2968,-13.2109,-13.3593,-13.4375,-13.3828,-13.539,-13.6875,-13.7968,-13.9687,-14.1484,-14.3593,-14.5,-14.6484,-14.789,-14.8828,-14.9609,-15.0468,-15.1093,-15.1797,-15.2578,-15.2578,-15.2265,-15.1718,-14.9798,-14.8601,-14.7892,-14.5677,-14.2489,-13.8796,-13.7334,-13.518,-13.3026,-13.3333,-13.2872,-13.2102,0.0,0.0,0.0,0.0,0.0,-7.5604,-7.6074,-7.8697,-8.0427,-7.9853,-8.259,-8.5894,-8.905,-9.0831,-9.27,-9.5157,-9.4416,-9.4181,-9.5066,-9.2885,-9.2237,-9.3896,-9.1779,-8.9325,-8.6919,-8.9968,-9.1168,-9.0219,-9.2603,-9.3842,-9.4082,-9.4962,-9.5349,-9.5321,-9.6123,-9.646,-9.6209,-9.5533,-9.3464,-9.0441,-8.677,-8.7459,-9.04,0.0,0.0,0.0,0.0,0.0,0.0,0.0,0.0,0.0,0.0,0.0,0.0,0.0,0.0,0.0,0.0,0.0,0.0,0.0,0.0,0.0,0.0,0.0,0.0,0.0,0.0,0.0,0.0,0.0,0.0,0.0,0.0,0.0,-11.4687,-11.9218,-12.4062,-12.8437,-13.4218,-13.75,-13.6718,-13.9687,-14.1015,-13.9218,-14.0703,-14.1718,-14.1718,-14.3203,-14.4531,-14.539,-14.789,-14.9609,-15.0468,-15.1406,-15.2187,-15.2968,-15.2968,-15.3515,-15.4297,-15.4297,-15.4297,-15.4062,-15.1669,-15.0625,-15.046,-14.8921,-14.7259,-14.5336,-14.1181,-13.7873,-13.5565,-13.4795,-13.3872,-13.2872,0.0,0.0,0.0,-7.0485,-7.3382,-7.5555,-7.6074,-7.837,-7.9977,-7.9863,-8.3104,-8.6481,-8.9124,-9.1395,-9.344,-9.5231,-9.3914,-9.3411,-9.4296,-9.2554,-9.1723,-9.2316,-8.9522,-8.8753,-9.0357,-9.0689,-9.147,-9.2881,-9.3495,-9.3791,-9.3842,-9.4278,-9.4356,-9.415,-9.4588,-9.4961,-9.5249,-9.4467,-9.4029,-9.3539,-9.0234,-8.9125,-8.9329,0.0,0.0,0.0,0.0,0.0,0.0,0.0,0.0,0.0,0.0,0.0,0.0,0.0,0.0,0.0,0.0,0.0,0.0,0.0,0.0,0.0,0.0,0.0,0.0,0.0,0.0,0.0,0.0,0.0,0.0,0.0,-11.656,-11.9106,-11.9999,-12.5625,-13.1484,-13.6406,-14.1172,-14.3984,-14.3828,-14.5234,-14.539,-14.3672,-14.4609,-14.5234,-14.5234,-14.5625,-14.6562,-14.8125,-14.8828,-14.9922,-15.1406,-15.2265,-15.2812,-15.2968,-15.3593,-15.4062,-15.4297,-15.4297,-15.3984,-15.3281,-15.2137,-15.1219,-15.0537,-14.9462,-14.8106,-14.649,-14.5336,-14.2489,-13.9181,-13.8873,-13.7103,-13.4564,0.0,0.0,0.0,-7.1124,-7.379,-7.5781,-7.653,-7.8638,-7.9805,-7.8908,-8.2884,-8.6481,-8.8243,-9.0873,-9.2986,-9.4263,-9.3364,-9.284,-9.3046,-9.2096,-9.1001,-8.9785,-8.9256,-8.9711,-9.1253,-9.2084,-9.3213,-9.4499,-9.4855,-9.4845,-9.4788,-9.4988,-9.4955,-9.4788,-9.4988,-9.5186,-9.548,-9.5018,-9.5095,-9.5363,-9.3136,-9.1803,-9.0985,-8.93,-8.954,-9.0686,-9.0152,-9.1237,-9.2471,-9.0071,0.0,0.0,0.0,0.0,0.0,0.0,0.0,0.0,0.0,0.0,0.0,0.0,0.0,0.0,0.0,0.0,0.0,0.0,0.0,0.0,0.0,0.0,0.0,0.0,-12.0688,-12.4278,-12.7187,-13.2031,-13.7109,-14.2265,-14.6406,-14.8906,-14.9218,-14.9375,-14.8984,-14.7578,-14.7265,-14.7265,-14.7734,-14.7734,-14.8515,-15.0234,-15.0625,-15.1484,-15.2812,-15.3281,-15.3515,-15.3593,-15.4062,-15.4297,-15.4297,-15.4297,-15.3984,-15.3515,-15.2371,-15.1608,-15.1082,-15.0312,-14.9029,0.0,0.0,0.0,0.0,0.0,-13.7026,-13.4795,0.0,0.0,0.0,-7.1945,-7.4384,-7.6233,-7.7206,-7.9231,-7.9776,-7.7586,-8.2076,-8.5747,-8.6407,-8.9144,-9.1445,-9.2466,-9.2255,-9.1826,-9.1256,-9.1119,-8.9934,-8.7362,-9.0078,-9.1473,-9.1033,-9.3874,-9.5544,-9.5762,-9.6199,-9.6407,-9.6403,-9.6326,-9.6326,-9.6326,-9.6326,-9.6326,-9.6326,-9.6326,-9.6326,-9.6249,-9.5326,-9.4646,-9.3794,-9.111,-9.1185,-9.2791,-9.2241,-9.2064,-9.1685,-8.977,0.0,0.0,0.0,0.0,0.0,0.0,0.0,0.0,0.0,0.0,0.0,0.0,0.0,0.0,0.0,0.0,0.0,0.0,0.0,0.0,0.0,0.0,0.0,0.0,-12.4601,-12.953,-13.4531,-13.7578,-14.1328,-14.6328,-14.9765,-15.2109,-15.2812,-15.2187,-15.1406,-15.0625,-14.9062,-14.8593,-14.9609,-14.9609,0.0,0.0,0.0,-15.3672,-15.4609,-15.4609,-15.4531,-15.4375,-15.4375,-15.4375,-15.4297,-15.4297,-15.4297,-15.4218,-15.2722,-15.1976,-15.1782,-15.1105,-14.9548,-14.7798,-14.6105,-14.3489,-14.0335,-13.7026,-13.5334,-13.4411,0.0,0.0,-6.9174,-7.1985,-7.4329,-7.6179,-7.7206,-7.8823,-7.9326,-7.7524,-8.1122,-8.3691,-8.3177,-8.5367,-8.7821,-8.9858,-8.8712,-8.8175,-8.8623,-8.7581,-8.7568,-8.8904,-9.0152,-9.1693,-9.3529,-9.4779,-9.6374,-9.8195,-9.7082,-9.6703,-9.725,-9.6634,-9.6326,-9.6326,-9.6326,-9.6326,-9.6326,-9.6326,-9.6326,-9.6249,-9.5326,-9.4552,-9.3543,-9.1668,-9.0736,-9.0404,-8.9701,-9.0836,-9.2303,-9.0358,-9.1554,-9.3823,-9.3535,-9.4013,0.0,0.0,0.0,0.0,0.0,0.0,0.0,0.0,0.0,0.0,0.0,0.0,0.0,0.0,0.0,0.0,0.0,0.0,0.0,-12.2501,-12.7637,-13.2305,-13.5624,-14.0078,-14.4375,-14.8203,-15.0468,-15.1875,-15.2031,-15.1875,-15.1406,-15.0625,-15.0234,-15.0703,-15.2187,-15.2265,-15.3125,-15.4765,-15.5,-15.5468,-15.6406,-15.6406,-15.6015,-15.5312,0.0,0.0,-15.4297,-15.4297,-15.4297,-15.4296,-15.3566,-15.2797,-15.189,-15.14,-14.918,-14.6028,-14.4259,-14.2797,-14.1335,-13.8565,-13.7103,-13.6103,0.0,-6.7119,-6.9141,-7.2516,-7.429,-7.5806,-7.7145,-7.8405,-7.9066,-7.8626,-8.1415,-8.3544,-8.3985,-8.5779,-8.7073,-8.7443,-8.6037,-8.5963,-8.7969,-8.7415,-8.7876,-8.9931,-9.1987,-9.3822,-9.5437,-9.6318,-9.7422,-9.8874,-9.7667,-9.7439,-9.8173,-9.7711,-9.7557,-9.7557,-9.7557,-9.7557,-9.7557,-9.7096,-9.6865,-9.6865,-9.6019,-9.5403,-9.4788,-9.3095,-9.2172,-9.1787,-9.1325,-9.2112,-9.2936,-9.1164,-9.2087,-9.4005,-9.3415,-9.4278,-9.6018,0.0,0.0,0.0,0.0,0.0,0.0,0.0,0.0,0.0,0.0,0.0,0.0,0.0,0.0,-10.9867,-11.2791,0.0,-12.2194,-12.5793,-13.0097,-13.3968,-13.7187,-14.0937,-14.4531,-14.75,-14.9765,-15.1328,-15.1797,-15.1797,-15.1562,-15.1172,-15.1484,-15.2265,-15.3593,-15.4531,-15.539,-15.6172,-15.6718,-15.6718,-15.6328,-15.6172,-15.5781,-15.4922,-15.4922,-15.4687,-15.4297,-15.4297,-15.4297,-15.4296,-15.3912,-15.3015,-15.1812,-15.0255,-14.8358,-14.6105,-14.3874,-14.2104,-14.0335,-13.8181,-13.6873,-13.5872,0.0,0.0,-6.9155,-7.3046,-7.4515,-7.5616,-7.7084,-7.8038,-7.8846,-7.9433,-8.1415,-8.3251,-8.4719,-8.5815,-8.6164,-8.5374,-8.3985,-8.4572,-8.7949,-8.8169,-8.905,-9.1033,-9.4263,-9.6392,-9.7346,-9.8007,-9.8831,-9.9628,-9.8647,-9.8504,-9.9019,-9.8865,-9.8788,-9.8788,-9.8788,-9.8865,-9.9019,-9.8096,-9.7865,-9.7942,-9.7096,-9.6711,-9.6403,-9.4941,-9.4326,-9.4172,-9.4172,-9.4172,-9.3941,-9.2479,-9.2864,-9.3864,-9.3403,-9.4788,-9.725,-10.0789,-10.1635,0.0,0.0,0.0,0.0,0.0,0.0,0.0,0.0,-10.4789,-10.5867,-10.6867,-11.0021,-11.3714,-11.7638,-12.1864,-12.5793,-12.8907,-13.2174,-13.5312,-13.8203,-14.0781,-14.3203,-14.5625,-14.8515,-15.0468,-15.1172,-15.1562,-15.1797,-15.1797,-15.289,-15.3984,-15.5,-15.6718,-15.7734,-15.7734,-15.8203,-15.7734,-15.6093,-15.5937,-15.5468,-15.4765,-15.4765,-15.4687,-15.4609,-15.4609,-15.4531,-15.4296,-15.341,-15.2485,-15.1393,-14.8767,-14.7182,-14.6182,-14.3566,-14.1181,-13.8873,-13.7411,-13.618,-13.518,0.0,0.0,0.0,-7.312,-7.4955,-7.6276,-7.7157,-7.8038,-7.8626,-7.8699,-7.958,-8.0534,-8.1415,-8.1039,-8.1544,-8.3471,-8.2884,-8.3985,-8.7949,-8.8169,-8.9564,-9.2721,-9.5878,-9.83,-9.9842,-9.9989,-10.0758,-10.2192,-10.0684,-9.9948,-9.9942,-9.9173,-9.8788,-9.8788,-9.8788,-9.925,-9.9865,-9.9019,-9.9096,-9.9712,-9.8865,-9.8096,-9.7326,-9.7173,-9.6634,-9.6019,-9.6019,-9.6019,-9.5865,-9.4864,-9.4711,-9.4941,-9.5634,-9.6557,-9.8173,-10.2404,-10.4636,-10.6097,-10.8098,-10.7328,-10.5713,-10.5097,-10.4866,-10.4713,0.0,-10.5713,-10.7867,-10.9406,-11.3099,-11.6792,-11.9485,-12.4577,-12.8985,-13.0931,-13.3892,-13.6406,-13.7578,-13.9297,-14.1172,-14.2968,-14.6797,-14.9375,-14.9531,-15.0937,-15.1797,-15.1797,-15.3984,-15.6015,-15.7734,-15.9375,-16.039,-16.039,-15.9687,-15.8906,-15.789,-15.7109,-15.6718,-15.6562,-15.6562,-15.6172,-15.5468,-15.5468,-15.5,-15.4218,-15.1942,-15.0886,-15.046,-14.7299,-14.549,-14.4412,-14.1874,-13.9796,-13.8104,-13.718,-13.618,-13.5206,0.0,0.0,0.0,-7.2606,-7.4368,-7.5689,-7.6497,-7.7304,-7.8185,-7.914,-8.0021,-8.0828,-8.1636,-8.1415,-8.215,-8.4572,-8.237,-8.3324,-8.9197,-8.9197,-9.1179,-9.6392,-9.9255,-10.1017,-10.1677,-10.0796,-10.0832,-10.189,-10.0307,-9.9948,-10.0789,-10.0404,-10.0327,-10.0327,-10.0789,-10.0866,-10.0789,-10.1019,-10.0712,-10.0096,-9.9712,-9.8711,-9.748,-9.748,-9.6711,-9.5634,-9.6634,-9.7019,0.0,-9.6557,-9.6788,-9.7173,-9.7019,-9.825,-10.0404,-10.3635,-10.5097,-10.5482,-10.4713,-10.502,-10.5328,-10.402,-10.4405,-10.5482,-10.7175,-10.9098,-11.1406,-11.4099,-11.7176,-12.0485,-12.4101,-12.7833,-13.1008,-13.2721,-13.4829,-13.6797,-13.8203,-13.8984,-13.9687,-14.039,-14.2578,-14.5078,-14.8203,-15.0,-15.1406,-15.2422,-15.4922,-15.6875,-15.8125,-15.9922,-16.0625,-16.0078,-16.0234,-15.9375,-15.75,-15.7578,-15.7109,-15.6093,-15.6093,-15.6015,-15.5625,-15.5078,-15.4375,-15.3437,-15.1513,-15.0002,-14.9011,-14.6681,-14.4336,-14.2082,-14.0668,-13.8803,-13.6749,-13.618,-13.4872,-13.3,0.0,0.0,0.0,-7.1945,-7.3487,-7.4955,-7.5909,-7.657,-7.7598,-7.9213,-7.9947,-8.0608,-8.1415,-8.1929,-8.2957,-8.4939,-8.2443,-8.3398,-8.9564,-8.9862,-9.2271,-9.7605,-10.0746,-10.2572,-10.2792,-10.1808,-10.1722,-10.2418,-10.0818,-10.0608,-10.1712,-10.1866,-10.1866,-10.1712,-10.2635,-10.2635,-10.2097,-10.2712,-10.2097,-10.0789,-10.0789,-9.9635,-9.7865,-9.7557,-9.6711,-9.5865,-9.7096,-9.748,-9.7557,-9.8096,-9.8788,-9.9481,-9.9327,-10.0712,-10.2789,-10.5405,-10.6482,-10.6482,-10.4866,-10.5328,-10.5867,-10.4636,-10.5405,-10.7328,-11.0483,-11.2714,-11.5099,-11.8484,-12.1177,-12.4101,-12.764,-13.0089,-13.2279,-13.4097,-13.5418,-13.6791,-13.8593,-13.8672,-13.8515,-13.8203,-13.8515,-14.039,-14.4609,-14.7734,-15.0234,-15.2187,-15.5234,-15.7265,-15.8203,-16.0078,-16.0625,-15.9531,-15.9922,-15.8906,-15.6562,-15.6875,-15.6562,-15.5625,-15.5625,-15.5625,-15.5625,-15.4375,-15.3593,-15.289,-15.0886,-14.9304,-14.7922,-14.54,-14.2986,-14.057,-13.929,-13.7524,-13.5663,-13.4896,-13.3351,-13.1548,0.0,0.0,0.0,0.0,-7.2679,-7.4294,-7.5836,-7.613,-7.6717,-7.8405,-7.8626,-7.8993,-7.98,-8.1269,-8.2517,-8.3398,-8.3398,-8.4719,-8.8023,-9.0056,-9.216,-9.4684,-9.9317,-10.2296,-10.3163,-10.3509,-10.4243,-10.5058,-10.3399,-10.2608,-10.2635,-10.3405,-10.3405,-10.2635,-10.3482,-10.3789,-10.3789,-10.3789,-10.3328,-10.2481,-10.2481,-10.1019,-9.8634,-9.7788,-9.748,-9.7403,-9.748,-9.748,-9.7788,-9.9481,-10.0635,-10.1481,-10.3174,-10.4328,-10.5482,-10.8021,-11.0021,-11.1483,-11.2175,-11.0637,-10.879,-10.8713,-10.9406,-11.0714,-11.333,-11.5792,-11.8638,-12.2024,-12.4793,-12.7101,-12.8794,-13.077,-13.2866,-13.4927,-13.5606,-13.6498,-13.8592,-13.8203,-13.7265,-13.6484,-13.5703,-13.5937,-13.7734,-14.3281,-14.7812,-15.039,-15.4531,-15.7265,-15.8203,-16.0703,-16.1328,-15.9609,-15.8672,-15.7422,-15.5703,-15.4765,-15.4765,-15.5625,-15.5625,-15.5625,-15.5468,-15.3828,-15.2968,-15.2812,-14.9919,-14.8394,-14.7717,-14.3141,-14.1162,-14.0811,-13.7368,-13.5805,-13.5106,-13.2985,-13.2257,-13.1715,0.0,0.0,0.0,0.0,0.0,-7.2679,-7.4221,-7.5395,-7.6497,-7.7598,-7.7745,0.0,0.0,0.0,0.0,0.0,-8.259,-8.4425,-8.8757,-8.9403,-9.1367,-9.5419,-9.825,-9.9984,-10.0779,-10.133,-10.2241,-10.3474,-10.189,-10.162,-10.2635,-10.2866,-10.2866,-10.2712,-10.4097,-10.4097,-10.3097,-10.4174,-10.3866,-10.2481,-10.1404,-10.0404,-9.9558,-9.8711,-9.7634,-9.7019,0.0,-10.0019,-10.0096,-10.0712,-10.1481,-10.2327,-10.2866,-10.4405,-10.6636,-10.9713,-11.0637,-11.056,-11.0329,-10.9637,-10.9175,-11.0329,-11.1714,-11.3483,-11.6715,-11.8869,-12.1023,-12.3178,-12.4409,-12.5332,-12.6486,-12.7371,-12.8805,-13.1227,-13.2546,-13.4115,-13.6507,-13.7335,-13.6406,-13.3281,-13.4687,-13.539,-13.4297,-13.9218,-14.4375,-14.9297,-15.2031,-15.4609,-15.7187,-15.8203,-15.8437,-15.7812,-15.75,-15.6797,-15.5625,-15.5937,-15.5937,-15.5625,-15.5625,-15.5,-15.3906,-15.3281,-15.2109,-15.039,-14.9071,-14.7158,-14.4885,-14.2369,-14.0119,-13.8021,-13.6482,-13.4671,-13.2858,-13.1399,-13.0201,-12.8869,0.0,0.0,0.0,0.0,0.0,0.0,0.0,0.0,0.0,0.0,0.0,0.0,0.0,0.0,0.0,0.0,0.0,-8.4205,-8.7876,-8.8071,-8.9628,-9.3083,-9.5611,-9.7119,-9.7621,-9.9109,-10.0536,-10.1799,-10.008,-9.9948,-10.1173,-10.1635,-10.1481,-10.1327,-10.302,-10.302,-10.1789,-10.2866,-10.3174,-10.2866,-10.0866,-10.0558,-10.1327,-9.9481,-9.8327,0.0,-10.0096,-10.1481,-10.2174,-10.2174,-10.302,-10.4097,-10.4713,-10.6405,-10.8713,-11.0868,-11.1329,-11.0868,-11.0098,-11.0483,-11.1483,-11.2637,-11.4638,-11.6792,-11.9023,-12.11,-12.2485,-12.2716,-12.3178,-12.3716,-12.3562,-12.3306,-12.4054,-12.7452,-12.8571,-13.0602,-13.4806,-13.5916,-13.5312,-13.289,-13.4218,-13.4765,-13.3125,-13.6484,-14.1172,-14.6875,-15.0078,-15.289,-15.539,-15.6406,-15.6797,-15.6406,-15.6406,-15.6015,-15.5078,-15.5703,-15.5703,-15.5078,-15.5078,-15.4375,-15.2968,-15.2734,-15.1484,-14.9609,-14.8096,-14.5926,-14.3287,-14.1025,-13.8524,-13.6208,-13.4893,-13.349,-13.1969,-13.0069,-12.8592,-12.7162,0.0,0.0,0.0,0.0,0.0,0.0,0.0,0.0,0.0,0.0,0.0,0.0,0.0,0.0,0.0,0.0,0.0,0.0,-8.5605,-8.6342,-8.7054,-8.7811,-9.1693,-9.377,-9.3746,-9.7101,-9.9201,-10.008,-9.8479,-9.8098,-9.8865,-9.9712,-9.9635,-9.8942,-10.0635,-10.0866,-10.0173,-10.0173,-10.1558,-10.3482,-10.1019,-10.1481,-10.3405,-10.0096,-9.9404,-10.0173,-10.0327,-10.1866,-10.402,-10.402,-10.5097,-10.6713,-10.8329,-11.0021,-11.1406,-11.1406,-11.2022,-11.2483,-11.1868,-11.3483,-11.5407,-11.5561,-11.81,-12.0408,-12.0485,-12.2331,-12.3332,-12.0793,-12.1639,-12.2177,-12.0408,-11.8792,-11.9322,-12.3894,-12.4265,-12.6624,-13.3622,-13.4432,-13.4375,-13.5078,-13.4687,-13.4297,-13.4218,-13.5781,-13.8906,-14.3828,-14.8672,-15.2031,-15.2968,-15.539,-15.6406,-15.5625,-15.5468,-15.5078,-15.4297,-15.4297,-15.4297,-15.4297,-15.4297,-15.3828,-15.289,-15.2109,-15.1172,-15.0078,-14.6797,-14.4592,-14.3002,-13.8787,-13.6601,-13.5496,-13.301,-13.2227,-13.2108,-12.9218,-12.7522,-12.6515,0.0,0.0,0.0,0.0,0.0,0.0,0.0,0.0,0.0,0.0,0.0,0.0,0.0,0.0,0.0,0.0,0.0,0.0,-8.4536,-8.4513,-8.4388,-8.4414,-8.6713,-8.8384,-8.8951,-9.3155,-9.6322,-9.8403,-9.784,-9.838,-9.9788,-10.0019,-9.9942,-9.9788,-10.0789,-10.1173,-10.1019,-10.1019,-10.1404,-10.1789,-9.9865,-9.9865,-10.1019,-10.0096,-10.0327,-10.1173,-10.2481,-10.3712,-10.4789,-10.4789,-10.5867,-10.7328,-10.7098,-10.8636,-11.0483,-11.0483,-11.1098,-11.2175,-11.3868,-11.5176,-11.7023,-12.0177,-12.1639,-12.2408,-12.3024,-12.3178,-12.2716,-12.0716,-12.0177,-11.9485,-11.7792,-11.7715,-11.8992,-12.2791,-12.5329,-12.872,-13.4317,-13.767,-13.9062,-13.7968,-14.0468,-14.1562,-13.9687,-14.2187,-14.4531,-14.5781,-14.7187,-14.9687,-15.3828,-15.4609,-15.4922,-15.4609,-15.4609,-15.4531,-15.4297,-15.4297,-15.4297,-15.4297,-15.3593,-15.289,-15.2109,-15.1172,-14.9609,-14.75,-14.6015,-14.367,-14.0929,-13.8507,-13.6632,-13.4992,-13.3117,-13.2028,-13.1169,-12.8699,-12.6915,-12.5427,0.0,0.0,0.0,0.0,0.0,0.0,0.0,0.0,0.0,0.0,0.0,0.0,0.0,0.0,0.0,0.0,0.0,0.0,0.0,-8.3152,-8.2641,-8.2141,-8.3929,-8.5194,-8.5619,-8.9495,-9.2902,-9.5611,-9.4779,-9.5387,-9.725,-9.725,-9.725,-9.7326,-9.8557,-9.9096,-9.9096,-9.8711,-9.9865,0.0,0.0,-9.9865,-10.2174,-10.1096,-10.0866,-10.1481,-10.3328,-10.4405,-10.502,-10.4713,-10.5482,-10.6713,-10.7328,-10.8713,-11.0329,-11.0714,-11.1868,-11.3637,-11.5792,-11.7792,-12.01,-12.3178,-12.4332,-12.4409,-12.3716,-12.3178,-12.21,-11.9177,-11.8331,-11.733,-11.5176,-11.4638,-11.5792,-12.0023,-12.3093,-12.7396,-13.438,-13.8197,-14.0703,-14.1562,-14.4218,-14.5468,-14.4375,-14.6718,-14.8828,-14.9922,-14.9297,-15.0078,-15.2968,-15.3906,-15.4297,-15.4297,-15.4297,-15.4297,-15.4297,-15.4297,-15.4297,-15.4297,-15.3437,-15.2578,-15.1797,-15.0468,-14.8672,-14.6484,0.0,-14.25,-13.9531,-13.7734,-13.6015,-13.4297,-13.2578,-13.1406,-13.0311,-12.7729,-12.5883,-12.4558,0.0,0.0,0.0,0.0,0.0,0.0,0.0,0.0,0.0,0.0,-7.7524,-7.7524,0.0,0.0,0.0,0.0,0.0,0.0,0.0,0.0,-8.1425,-8.0662,-8.2383,-8.3351,-8.3674,-8.6501,-8.9469,-9.2442,-9.1114,-9.1529,-9.371,-9.3787,-9.3864,-9.3941,-9.5557,-9.6326,-9.6403,-9.5634,-9.7865,-10.1712,-9.8788,-10.0327,-10.3866,0.0,-10.1173,-10.1481,-10.3328,-10.4328,-10.4713,-10.4097,-10.4482,-10.5713,-10.7867,-10.9406,-11.056,-11.1483,-11.3637,-11.6022,-11.7792,-12.0716,-12.3716,-12.5486,-12.6178,-12.587,-12.3716,-12.2793,-12.1331,-11.7484,-11.6484,-11.5561,-11.333,-11.1714,-11.2406,-11.7484,-12.0313,-12.5092,-13.4486,-13.8018,-14.109,-14.5387,-14.6874,-14.7968,-14.8828,-15.039,-15.2265,-15.4531,-15.3281,-15.2422,-15.2265,-15.3672,-15.4375,-15.4297,-15.4297,-15.4297,-15.4297,-15.4297,-15.4218,-15.4062,-15.3281,-15.2422,-15.1562,-14.9765,-14.8125,-14.6328,-14.3906,-14.1328,-13.8593,-13.7031,-13.5312,-13.3593,-13.1875,-13.0703,-12.9608,-12.6729,-12.5115,-12.4282,0.0,0.0,0.0,0.0,0.0,0.0,0.0,0.0,0.0,0.0,-7.8772,-7.8626,0.0,0.0,0.0,0.0,0.0,0.0,0.0,0.0,0.0,-7.9809,-8.1047,-8.212,-8.3066,-8.5728,-8.8367,-9.0835,-9.1036,-9.2049,-9.371,-9.4403,-9.4788,-9.4788,-9.5865,-9.6634,-9.725,-9.7096,-9.7557,-9.8404,-9.8481,-9.8634,-9.8942,-9.9942,-10.0712,0.0,-10.3328,-10.3482,-10.3097,-10.3712,-10.4866,-10.6328,-10.6713,-10.8867,-11.1637,-11.3099,-11.5407,-11.7869,-12.0331,-12.287,-12.5486,-12.7871,-12.7101,-12.5486,-12.5101,-12.2331,-11.9331,-11.7869,-11.6484,-11.5176,-11.4022,-11.3483,-11.5022,-12.01,-12.274,-12.7359,-13.6707,-14.0672,-14.4287,-14.8581,-15.1388,-15.3281,-15.4218,-15.5234,-15.6015,-15.6406,-15.6172,-15.5703,-15.5,-15.5234,-15.5,-15.4297,-15.4297,-15.4297,-15.4297,-15.4297,-15.3906,-15.3203,-15.2422,-15.1562,-15.0703,-14.8906,-14.7187,-14.539,-14.3593,0.0,-13.7734,-13.6718,-13.5312,-13.3593,-13.1875,-13.0703,-12.9608,-12.6729,-12.5505,-12.5297,0.0,0.0,0.0,0.0,0.0,0.0,0.0,-7.9066,-8.0461,-8.2076,-8.2296,-8.1856,-8.0534,-8.0755,-8.078,0.0,0.0,0.0,0.0,0.0,0.0,-7.9602,-8.061,-8.156,-8.2355,-8.4572,-8.7068,-8.9779,0.0,-9.124,-9.3174,-9.3984,-9.4326,-9.4403,-9.5711,-9.648,-9.6865,-9.6865,-9.7096,-9.7557,-9.8481,-9.8788,-9.9019,-10.0173,-10.1173,0.0,-10.2866,-10.302,-10.2789,-10.4097,-10.5097,-10.5867,-10.679,-10.9098,-11.1945,-11.4099,-11.6792,-11.9869,-12.3332,-12.6101,-12.8563,-13.0718,-12.8871,-12.6409,-12.5024,-12.1793,-11.8715,-11.7407,-11.6176,-11.5176,-11.4791,-11.4714,-11.5792,-11.91,-12.1039,-12.5187,-13.4307,-13.8297,-14.2736,-14.9417,-15.2963,-15.5468,-15.6797,-15.7734,-15.8281,-15.8281,-15.7812,-15.7031,-15.5703,-15.5234,-15.4687,-15.4297,-15.4297,-15.4297,-15.4297,-15.4297,-15.3906,-15.2968,-15.2187,-15.1093,-14.9765,-14.7968,-14.6015,-14.3906,-14.2734,-14.0078,-13.6875,-13.6484,-13.5312,-13.3593,-13.1875,-13.0703,-12.9608,-12.7197,-12.5973,-12.5531,0.0,0.0,0.0,0.0,0.0,0.0,-7.9433,-8.0608,-8.215,-8.4572,-8.5673,-8.5306,-8.259,-8.2517,-8.1892,0.0,0.0,0.0,0.0,0.0,0.0,0.0,0.0,0.0,-8.2143,0.0,0.0,-8.8801,-8.8861,0.0,0.0,0.0,0.0,0.0,-9.552,-9.6326,-9.6326,-9.6326,-9.6634,0.0,0.0,-9.8788,-9.9635,0.0,0.0,0.0,0.0,-10.2404,-10.2789,-10.4097,-10.5097,-10.5867,-10.7328,-10.9406,-11.2099,-11.5176,-11.8177,-12.1485,-12.5563,-12.8717,-13.1102,-13.241,-13.0025,-12.6794,-12.4639,-12.1177,-11.8177,-11.6792,-11.5869,-11.533,-11.533,-11.5099,-11.5715,-11.7715,-11.872,-12.2329,-13.1337,-13.5315,-14.0539,-14.9033,-15.3512,-15.6484,-15.7968,-15.8984,-15.9375,-15.9218,-15.8203,-15.7031,-15.5703,-15.4765,-15.4297,-15.4297,-15.4297,-15.4297,-15.4297,-15.4297,-15.3828,-15.2734,-15.1875,-15.0625,-14.8906,-14.6875,-14.4765,-14.25,-14.1406,-13.9062,-13.6015,-13.6015,-13.5078,-13.3593,-13.1875,-13.0703,-12.9687,-12.7697,-12.6573,-12.5907,0.0,0.0,0.0,0.0,0.0,0.0,-7.9507,-8.1122,-8.2957,-8.538,-8.6995,-8.7582,-8.6554,-8.5233,-8.3354,0.0,0.0,0.0,0.0,0.0,0.0,0.0,0.0,0.0,0.0,0.0,0.0,-8.7161,-8.7832,0.0,0.0,0.0,0.0,0.0,0.0,-9.6326,-9.6326,-9.6326,0.0,0.0,0.0,0.0,0.0,0.0,0.0,0.0,0.0,-10.1943,-10.2635,-10.2789,-10.4866,-10.7482,-10.7636,-10.9406,-11.2483,-11.733,-12.0023,-12.2177,-12.5717,-12.9102,-13.1564,-13.1795,-12.8717,-12.5409,-12.4332,-12.0331,-11.6715,-11.6484,-11.5869,-11.533,-11.533,-11.4714,-11.5176,-11.8484,-11.8376,-12.1237,-13.0528,-13.533,-14.0472,-14.7484,-15.3287,-15.7187,-15.8125,-15.8984,-15.9218,-15.8437,-15.6797,-15.5781,-15.5625,-15.4765,-15.4297,-15.4297,-15.4297,-15.4297,-15.4297,-15.4297,-15.3515,-15.1875,-15.1015,-14.9687,-14.789,-14.539,-14.3281,-14.1484,-13.9922,-13.7578,0.0,-13.5078,-13.4609,-13.3593,-13.1875,-13.0703,-12.9687,-12.789,-12.7186,-12.7176,0.0,0.0,0.0,0.0,0.0,0.0,-8.0167,-8.1856,-8.371,-8.5845,-8.7514,-8.8155,-8.7088,-8.4859,-8.2332,-7.9947,-7.8482,0.0,0.0,0.0,0.0,0.0,0.0,0.0,0.0,0.0,-8.5655,-8.6204,-8.7452,0.0,0.0,0.0,0.0,0.0,0.0,-9.6326,-9.6326,-9.6326,0.0,0.0,0.0,0.0,0.0,0.0,0.0,0.0,0.0,0.0,-10.2789,-10.4405,-10.5405,-10.6482,-10.8559,-10.9483,-11.0791,-11.5484,-11.9485,-12.3024,-12.587,-12.9871,-13.3103,-13.2564,-12.9717,-12.6409,-12.4486,-12.0639,-11.71,-11.6561,-11.5869,-11.5407,-11.5869,-11.533,-11.5176,-11.6561,-11.5638,-11.7206,-12.4388,-12.7768,-13.3463,-14.4275,-14.9596,-15.3984,-15.8515,-15.8828,-15.8125,-15.6718,-15.6015,-15.539,-15.4765,-15.4531,-15.4297,-15.4297,-15.4297,-15.4297,-15.4297,-15.3828,-15.289,-15.1797,-15.039,-14.8515,-14.6328,-14.4687,-14.25,-13.9922,-13.9218,-13.7422,0.0,-13.5,-13.4531,-13.3593,-13.1875,-13.1328,-13.1328,-12.9531,-12.9218,-12.9606,0.0,0.0,0.0,0.0,0.0,-7.8112,-8.0314,-8.2003,-8.372,-8.5463,-8.6974,-8.751,-8.6753,-8.3717,-8.1007,-7.9387,-7.7159,0.0,0.0,0.0,0.0,0.0,0.0,0.0,0.0,0.0,-8.582,-8.582,-8.7082,-8.8218,0.0,0.0,-9.2518,-9.2822,0.0,0.0,0.0,0.0,0.0,-9.648,0.0,0.0,0.0,0.0,0.0,0.0,0.0,0.0,0.0,0.0,0.0,-10.5867,-10.8636,-10.9175,-10.9713,-11.4022,-11.8407,-12.2408,-12.5486,-12.9717,-13.3103,-13.2718,-13.0102,-12.6871,-12.4639,-12.0793,-11.7638,-11.6715,-11.6022,-11.5792,-11.6407,-11.6022,-11.5715,-11.5715,-11.4407,-11.5321,-12.043,-12.3224,-12.8666,-13.951,-14.4217,-14.9297,-15.6172,-15.7422,-15.7265,-15.6093,-15.5312,-15.4609,-15.3906,-15.3672,-15.3828,-15.4297,-15.4297,-15.4218,-15.3906,-15.3281,-15.2265,-15.1015,-14.9297,-14.7187,-14.4922,-14.3203,-14.1015,-13.8515,-13.7968,-13.6562,0.0,-13.4609,-13.4297,-13.3672,-13.2187,-13.2031,-13.2265,-13.0781,-13.0468,-13.0702,0.0,0.0,0.0,0.0,0.0,-7.7892,-7.958,-8.1195,-8.2696,-8.3946,-8.4885,-8.5578,-8.5832,-8.2241,-7.9783,-7.9713,-7.6938,0.0,0.0,0.0,0.0,0.0,0.0,0.0,-8.4572,-8.538,-8.582,-8.582,-8.6628,-8.7435,-8.8239,-9.0547,-9.2043,-9.2927,0.0,0.0,0.0,0.0,-9.6326,-9.648,0.0,0.0,-10.0173,0.0,0.0,0.0,0.0,0.0,0.0,0.0,0.0,0.0,0.0,-10.8329,-10.9713,-11.4022,-11.71,-12.01,-12.4332,-12.7871,-13.0718,-13.1487,-12.9179,-12.6255,-12.4486,-12.0793,-11.7638,-11.6715,-11.6484,-11.6484,-11.6484,-11.6484,-11.6484,-11.6484,-11.5792,-11.6624,-12.0297,-12.3982,-12.8124,-13.2829,-13.7401,-14.2968,-14.9922,-15.4375,-15.6875,-15.6875,-15.4531,-15.2968,-15.2968,-15.2265,-15.2578,-15.4218,-15.4297,-15.3906,-15.2968,-15.2968,-15.1718,-14.9218,-14.75,-14.5703,-14.3906,-14.0468,-13.8515,-13.75,-13.5781,-13.4609,0.0,-13.3828,-13.3828,-13.3672,-13.2812,-13.25,-13.2422,-13.1484,-13.0625,-12.9998,0.0,0.0,0.0,0.0,0.0,0.0,-7.8772,-7.9874,-8.0672,-8.122,-8.156,-8.1683,-8.1302,-7.8674,-7.6982,-7.6982,-7.5593,0.0,0.0,0.0,0.0,0.0,0.0,-8.4058,-8.4572,-8.5967,-8.6334,-8.582,-8.7142,-8.7655,-8.7504,-9.0863,-9.2269,-9.2096,-9.5007,-9.6326,0.0,-9.6326,-9.6942,-9.8019,0.0,-9.9635,-10.0866,0.0,0.0,0.0,0.0,0.0,0.0,0.0,0.0,0.0,0.0,0.0,0.0,-11.2022,-11.4868,-11.7869,-12.0408,-12.4024,-12.6871,-12.6563,-12.5332,-12.3639,-12.187,-11.9638,-11.7638,-11.6715,-11.6484,-11.6484,-11.6484,-11.6484,-11.6484,-11.6484,-11.633,-11.667,-11.8277,-12.2477,-12.818,-13.537,-14.5311,-15.2187,-15.3828,-15.5234,-15.5781,-15.5234,-15.3828,-15.2968,-15.2968,-15.2187,-15.2265,-15.3437,-15.289,-15.2734,-15.2968,-15.1875,-15.0625,-14.9218,-14.6797,-14.4531,-14.2187,-13.9922,-13.7812,-13.5781,-13.5234,-13.4531,-13.3828,-13.3828,-13.3828,-13.3672,-13.2812,-13.289,-13.3281,-13.2422,-13.1875,-13.1562,0.0,0.0,0.0,0.0,0.0,0.0,-7.8038,-7.8772,-7.922,-7.8753,-7.8726,-7.8602,-7.8371,-7.6454,-7.5696,-7.6641,-7.6392,0.0,0.0,0.0,0.0,0.0,-8.3861,-8.5306,-8.5967,-8.6921,-8.7362,-8.7142,-8.8463,-8.8893,-8.8347,-9.173,-9.298,-9.2581,-9.5131,-9.6326,0.0,-9.6634,-9.7557,-9.8788,-9.9173,-10.0096,-10.1327,0.0,0.0,0.0,0.0,0.0,0.0,0.0,0.0,0.0,0.0,0.0,0.0,0.0,-11.2714,-11.533,-11.8331,-12.1177,-12.3562,-12.4024,-12.3178,-12.2024,-12.0562,-11.9023,-11.7638,-11.71,-11.6715,-11.6561,-11.6869,-11.6715,-11.6484,-11.6484,-11.6484,-11.6748,-11.7161,-12.2064,-12.8474,-13.6367,-14.6872,-15.3201,-15.2482,-15.4371,-15.5234,-15.4375,-15.3203,-15.2422,-15.2109,-15.1328,-15.1172,-15.2031,-15.1875,-15.1875,-15.2109,-15.0703,-14.9218,-14.7734,-14.5078,-14.2734,-14.039,-13.8437,-13.6484,-13.5,-13.4687,-13.4297,0.0,-13.3828,-13.3828,-13.3672,-13.2812,-13.2812,-13.3203,-13.2265,-13.1797,-13.1406,0.0,0.0,0.0,0.0,0.0,0.0,0.0,-7.7903,-7.7983,-7.6476,-7.6392,-7.6432,-7.6605,-7.5371,-7.5501,-7.8079,-7.8534,0.0,0.0,0.0,0.0,0.0,-8.5086,-8.6628,-8.8243,-8.8316,-8.8683,-8.9417,-9.0225,-9.0568,-9.059,-9.2937,-9.4073,-9.3982,-9.5558,-9.6326,-9.6326,-9.7096,-9.7942,-9.8788,-9.9635,-10.0481,0.0,0.0,0.0,0.0,0.0,0.0,0.0,0.0,0.0,0.0,0.0,0.0,0.0,0.0,0.0,0.0,0.0,-11.9331,-12.0485,-12.287,-12.2331,-12.1023,-12.0177,-11.8792,0.0,-11.7715,-11.71,-11.6715,-11.7638,-11.7023,-11.6484,-11.6484,-11.6484,-11.6624,-11.6891,-12.2711,-12.9564,-13.6671,-14.3872,-14.8107,-14.7529,-15.232,-15.5078,-15.4297,-15.2734,-15.1406,-15.0468,-14.9687,-14.9531,-15.0312,-15.1093,-15.1172,-15.0468,-14.9609,-14.7812,-14.5312,-14.2812,-14.0625,-13.8672,-13.6172,-13.5,0.0,-13.4062,-13.3828,0.0,-13.3828,-13.3828,-13.3593,-13.2812,-13.25,-13.2265,-13.1484,-13.0625,-12.9765,0.0,0.0,0.0,0.0,0.0,0.0,0.0,0.0,0.0,0.0,-7.4651,-7.4472,-7.3549,-7.3612,-7.4366,0.0,0.0,0.0,0.0,0.0,0.0,0.0,-8.6554,-8.7509,-8.9124,-8.9124,-8.9197,-8.9417,-9.0225,-9.0568,-9.059,-9.2937,-9.4073,-9.3982,-9.5558,-9.6326,-9.6326,-9.648,-9.7096,-9.7865,-9.8711,-9.925,0.0,0.0,0.0,0.0,-9.9096,-10.0096,0.0,0.0,0.0,0.0,0.0,0.0,0.0,0.0,-11.1791,-11.2022,-11.4484,0.0,-11.6561,-11.7176,-11.7484,-11.7561,0.0,-11.71,-11.6792,-11.6792,-11.6561,-11.6561,-11.6792,-11.6561,-11.6484,-11.6484,-11.6484,-11.6393,-11.6117,-12.5431,-13.477,-14.1827,-14.8406,-15.147,-14.9481,-15.1935,-15.3515,-15.3281,-15.1797,-15.0703,-15.0468,-14.9687,-14.8984,-14.8515,-14.8672,-14.9375,-15.0468,-14.8984,-14.7187,-14.5312,-14.3437,-14.0937,-13.789,-13.6562,-13.5312,-13.4062,-13.3906,-13.3828,-13.3828,-13.3828,-13.3437,-13.2812,-13.2578,-13.2109,-13.1484,-13.1328,-13.0625,-12.9765,0.0,0.0,0.0,0.0,0.0,0.0,0.0,0.0,0.0,0.0,-7.3531,-7.3217,-7.2033,-7.3344,-7.4688,0.0,0.0,0.0,0.0,0.0,0.0,-8.6995,-8.7362,-8.8316,-8.9931,-8.9931,-9.0152,-9.0519,-9.1326,-9.203,-9.2705,-9.4462,-9.5363,-9.555,-9.6059,-9.6326,-9.6326,-9.6711,-9.7096,-9.7557,-9.8481,0.0,0.0,0.0,0.0,0.0,-9.8173,-9.9019,0.0,-10.202,-10.3712,-10.5482,0.0,0.0,0.0,0.0,-11.2099,-11.2175,-11.3176,-11.4022,-11.4791,-11.5176,-11.5869,-11.6484,-11.6484,-11.6484,-11.6561,-11.7023,-11.6792,-11.6561,-11.7023,-11.6099,-11.5561,-11.6407,-11.5869,-11.6778,-12.0987,-12.8,-13.5659,-14.4172,-14.9189,-15.17,-15.089,-15.2065,-15.2734,-15.1875,-15.1015,-15.0312,-14.9922,-14.9062,-14.8437,-14.789,-14.75,-14.7812,-14.8672,-14.7031,-14.5468,-14.4062,-14.2031,-13.9609,-13.7031,-13.6093,-13.5,-13.3828,-13.3828,-13.3828,-13.3828,-13.3437,-13.289,-13.2422,-13.1172,-13.039,-12.9922,-12.9062,-12.8515,-12.7968,0.0,0.0,0.0,0.0,0.0,0.0,0.0,0.0,0.0,0.0,0.0,0.0,0.0,0.0,0.0,0.0,0.0,0.0,0.0,0.0,0.0,-8.7435,-8.8169,-8.9271,-9.0739,-9.0812,-9.1106,-9.1767,-9.2648,-9.3863,-9.5291,-9.6159,-9.6881,-9.748,-9.6942,-9.6557,-9.6326,-9.7019,-9.7326,-9.7403,-9.825,0.0,0.0,0.0,0.0,0.0,0.0,0.0,0.0,-10.1404,-10.3405,-10.5328,-10.779,0.0,0.0,0.0,0.0,0.0,-11.2868,-11.333,-11.4022,-11.5022,-11.5869,-11.6484,-11.6484,-11.6484,-11.6715,-11.7407,-11.7023,-11.6561,-11.71,-11.5715,-11.4791,-11.6099,-11.5561,-11.832,-12.7806,-13.0554,-13.5239,-14.4456,-14.8265,-15.0382,-15.1017,-15.2028,-15.1875,-15.0234,-15.0,-14.9609,-14.8828,-14.7968,-14.7422,-14.7265,-14.6484,-14.6015,-14.5781,-14.4609,-14.3515,-14.2578,-14.0234,-13.8125,-13.6328,-13.5468,-13.4687,-13.3828,0.0,0.0,-13.3515,-13.2812,-13.2265,-13.1875,-12.9531,-12.8515,-12.8203,-12.6718,-12.6093,-12.5937,0.0,0.0,0.0,0.0,0.0,0.0,0.0,0.0,0.0,0.0,0.0,0.0,0.0,0.0,0.0,0.0,0.0,0.0,0.0,0.0,0.0,-8.905,-8.9784,-9.0665,-9.162,-9.162,-9.1693,-9.1767,-9.2648,-9.3887,-9.5417,-9.6095,-9.6881,-9.7557,-9.8173,-9.7634,-9.6326,-9.6403,-9.648,-9.6557,-9.7403,0.0,0.0,0.0,0.0,0.0,0.0,0.0,0.0,-10.0096,-10.2097,-10.4405,-10.6174,0.0,0.0,0.0,0.0,0.0,-11.3637,-11.3407,-11.333,-11.4868,-11.5869,-11.6484,-11.6484,-11.6484,-11.6484,-11.6715,-11.6561,-11.6099,-11.4791,-11.5407,-11.6022,-11.5561,-11.7561,-12.2378,-13.1097,-13.3842,-13.681,-14.2324,-14.8079,-15.039,-14.7314,-14.9424,-15.0234,-14.8437,-14.7578,-14.7109,-14.7031,-14.6172,-14.539,-14.4609,-14.3828,-14.2968,-14.2265,-14.3437,-14.3203,-14.1718,-14.0468,-13.8672,-13.6328,-13.6172,-13.5312,-13.3828,0.0,-13.3437,-13.2734,-13.2578,-13.1562,-13.0234,-12.8984,-12.8125,-12.75,-12.7187,-12.6562,-12.5937,0.0,0.0,0.0,0.0,0.0,0.0,0.0,0.0,0.0,0.0,0.0,0.0,0.0,0.0,0.0,0.0,0.0,0.0,0.0,-8.7509,-8.905,-8.9417,-9.0592,-9.14,-9.1767,-9.2281,-9.2941,-9.3822,-9.507,-9.7206,-10.0031,-9.982,-9.9447,-9.8865,-9.7865,-9.7019,-9.6326,-9.6326,-9.6326,-9.6326,0.0,0.0,0.0,0.0,0.0,0.0,0.0,0.0,0.0,0.0,-10.1789,-10.4174,-10.5867,0.0,0.0,0.0,0.0,0.0,-11.3176,-11.333,-11.3714,-11.5022,-11.5176,-11.5407,-11.633,-11.6484,-11.6484,-11.6484,-11.6484,-11.6099,-11.4868,-11.5715,-11.7023,-11.8484,-12.1485,-12.5794,-13.1487,-13.4103,-13.7359,-14.2479,-14.6336,-14.8029,-14.6877,-14.818,-14.8437,-14.6562,-14.6093,-14.5937,-14.5937,-14.4687,-14.3515,-14.2734,-14.1797,-14.1015,-14.0078,-14.0937,-14.1093,-14.0781,-13.9375,-13.8203,-13.7031,-13.6015,-13.5234,-13.4375,0.0,-13.3125,-13.3125,-13.1718,-13.0937,-13.039,-12.8593,-12.7734,-12.7187,-12.6797,-12.6093,-12.5312,0.0,0.0,0.0,0.0,0.0,0.0,0.0,0.0,0.0,0.0,0.0,0.0,0.0,0.0,0.0,0.0,0.0,0.0,0.0,-8.7876,-8.9197,-8.9417,-9.0739,-9.162,-9.1767,-9.3015,-9.4336,-9.5804,-9.7933,-10.0979,-10.4803,-10.3699,-10.2284,-10.0558,-9.8019,-9.6634,-9.6326,-9.6326,-9.6326,-9.6326,0.0,0.0,0.0,0.0,0.0,0.0,0.0,0.0,0.0,0.0,0.0,0.0,0.0,0.0,0.0,-10.9867,-11.1414,-11.2806,-11.268,-11.2877,-11.35,-11.4681,-11.4561,-11.4714,-11.6176,-11.6715,-11.6715,-11.6484,-11.6715,-11.6407,-11.5176,-11.6176,-11.8407,-12.2408,-12.5794,-12.9102,-13.2718,-13.5026,-13.8102,-14.2717,-14.4426,-14.5481,-14.6215,-14.6706,-14.6328,-14.4531,-14.4218,-14.4062,-14.4062,-14.25,-14.1328,-14.0625,-13.9687,-13.9062,-13.8593,-13.8437,-13.8828,-13.9922,-13.8515,-13.7734,-13.7265,-13.5937,-13.5078,-13.4609,-13.3125,-13.2812,-13.2968,-13.0781,-13.0234,-13.039,-12.8203,-12.7265,-12.7187,-12.6093,-12.539,-12.5078,0.0,0.0,0.0,0.0,0.0,0.0,0.0,0.0,0.0,0.0,0.0,0.0,0.0,0.0,0.0,0.0,0.0,0.0,0.0,-8.7362,-8.861,-8.9417,-9.0225,-9.1033,-9.1767,-9.4116,-9.5731,-9.6612,-10.0503,-10.4096,-10.7308,-10.5703,-10.4117,-10.2327,-9.9788,-9.7788,-9.6326,-9.6326,-9.6326,-9.6326,-9.6326,0.0,0.0,0.0,0.0,0.0,0.0,0.0,0.0,0.0,0.0,0.0,0.0,0.0,-10.9098,-10.9867,-11.1616,-11.3107,-11.2765,-11.177,-11.1405,-11.3535,-11.4714,-11.5407,-11.633,-11.71,-11.7484,-11.6715,-11.71,-11.7023,-11.4484,-11.6715,-12.0793,-12.6486,-12.9563,-13.2795,-13.7026,-13.8411,-13.9683,-14.161,-14.328,-14.3988,-14.3197,-14.3827,-14.3593,-14.1875,-14.1015,-14.0625,-14.0625,-13.8906,-13.789,-13.789,-13.7031,-13.6875,-13.7734,-13.6875,-13.7265,-13.8984,-13.8906,-13.7968,-13.6406,-13.6328,-13.539,-13.3828,-13.289,-13.2109,-13.1328,-13.0312,-12.9531,-12.8672,-12.7734,-12.7265,-12.7109,-12.5468,-12.5312,-12.5781,0.0,0.0,0.0,0.0,0.0,0.0,0.0,0.0,0.0,0.0,0.0,-7.7459,-7.8911,0.0,0.0,0.0,0.0,0.0,-8.6554,-8.7582,-8.8536,-8.9417,-9.0152,-9.0959,-9.1767,-9.5217,-9.8594,-10.1898,-10.6623,-10.8727,-10.8404,-10.6241,-10.343,-10.0096,-9.8173,-9.6865,-9.6326,-9.6326,-9.6326,-9.6326,-9.6326,-9.6326,0.0,0.0,0.0,0.0,0.0,0.0,0.0,0.0,-10.1404,-10.3328,-10.4713,-10.6097,-10.7636,-10.9021,-11.0418,-11.1361,-11.0649,-11.0109,-11.0278,-11.1994,-11.2329,-11.2868,-11.5792,-11.8023,-11.91,-11.8331,-11.9638,-12.0485,-11.9023,-12.0177,-12.3101,-12.7871,-13.2179,-13.5565,-13.7796,-13.9258,-14.0301,-14.0784,-14.1023,-14.0869,-14.0387,-14.0625,-14.0312,-13.9218,-13.8828,-13.8593,-13.8593,-13.7422,-13.6484,-13.6015,-13.5703,-13.5625,-13.6015,-13.5703,-13.6093,-13.7265,-13.6718,-13.6406,-13.6328,-13.5234,-13.4687,-13.4531,-13.3125,-13.2265,-13.1875,-13.0468,-12.9687,-12.9297,-12.8437,-12.7812,-12.7187,-12.6562,-12.6172,-12.6015,0.0,0.0,0.0,0.0,0.0,0.0,0.0,0.0,0.0,0.0,0.0,0.0,0.0,-8.1426,0.0,0.0,0.0,0.0,-8.6995,-8.7509,-8.8169,-8.8977,-8.9784,-9.0959,-9.2574,-9.6539,-10.0503,-10.432,-11.0417,-11.2067,-10.9627,-10.7104,-10.4097,-10.0712,-9.8173,-9.7403,-9.7865,-9.7019,-9.6711,-9.6711,-9.6711,-9.6557,0.0,0.0,0.0,0.0,0.0,0.0,0.0,0.0,-10.1404,-10.2866,-10.4559,-10.5713,-10.6713,-10.8406,-10.9178,-10.9275,-10.8376,-10.844,-10.8965,-10.9955,-11.0483,-11.156,-11.5561,-11.8331,-11.9792,-11.9485,-12.11,-12.2562,-12.3101,-12.3485,-12.5178,-12.9717,-13.3564,-13.6411,-13.7488,-13.8411,-13.8911,-13.884,-13.83,-13.7907,-13.8122,-13.8125,-13.7812,-13.7187,-13.6875,-13.6797,-13.6797,-13.6015,-13.5234,-13.4609,-13.4609,-13.4687,-13.5,-13.4687,-13.5,-13.5937,-13.5,-13.5078,-13.5937,-13.4687,-13.4218,-13.4062,-13.2734,-13.1875,-13.1484,-12.9765,-12.9062,-12.8984,-12.8672,-12.8203,-12.7734,-12.7422,-12.6875,-12.6406,0.0,0.0,0.0,0.0,0.0,0.0,0.0,0.0,-7.6586,-7.7656,-7.8237,0.0,0.0,0.0,0.0,0.0,-8.6356,0.0,-8.6995,-8.6995,-8.7362,-8.8169,-8.8977,-9.0959,-9.4189,-9.8227,-10.109,-10.2779,-11.0941,-11.3733,-11.1228,-10.8791,-10.6713,-10.4789,-10.0712,-9.9712,-10.1096,-9.8557,-9.748,-9.748,-9.748,-9.7019,-9.6403,0.0,0.0,0.0,0.0,0.0,0.0,0.0,-10.1866,-10.2866,-10.4559,-10.5713,-10.6713,-10.8406,-10.8066,-10.7091,-10.6602,-10.6782,-10.7324,-10.7567,-10.9637,-11.2406,-11.5715,-11.7869,-11.9408,-12.0177,-12.11,-12.2716,-12.6101,-12.6024,-12.7101,-13.2179,-13.3718,-13.4872,-13.6488,-13.6026,-13.5436,-13.5339,-13.5264,-13.5509,-13.6169,-13.6328,-13.6328,-13.6328,-13.5468,-13.5,-13.5,-13.4218,-13.3828,-13.3828,-13.3828,-13.4218,-13.5,-13.4218,-13.4218,-13.5,-13.4062,-13.4218,-13.5,-13.5,-13.4062,-13.2422,-13.1562,-13.0703,-12.9765,-12.7968,-12.7265,-12.7422,-12.8281,-12.8593,-12.8515,-12.7578,-12.7265,-12.7264,0.0,0.0,0.0,0.0,0.0,0.0,0.0,0.0,-7.671,-7.8433,-7.8376,0.0,0.0,0.0,0.0,0.0,0.0,-8.6995,-8.6995,-8.6995,-8.7655,-8.8977,-8.9271,-9.0372,-9.2501,-9.6539,-10.1412,-10.7066,-11.01,-10.9356,-10.518,-10.5076,-10.3097,-9.9712,-9.9712,-9.9635,-9.9481,-9.8096,-9.7865,-9.8327,-9.7788,-9.7711,-9.8096,0.0,0.0,0.0,0.0,0.0,0.0,0.0,0.0,0.0,-10.3482,-10.4405,-10.5097,-10.7405,-10.8019,-10.7803,-10.7451,-10.7126,-10.7183,-10.826,-10.9098,-11.0868,-11.5484,-11.8331,-12.1408,-12.6409,-12.6717,-12.6717,-12.9025,-12.9563,-13.0102,-13.1102,-13.341,-13.5103,-13.5103,-13.4795,-13.4587,-13.4406,-13.3786,-13.3794,-13.4528,-13.4531,-13.4531,-13.4531,-13.4297,-13.4218,-13.4218,-13.3906,-13.3828,-13.3828,-13.3828,-13.3593,-13.3203,-13.2968,-13.2734,-13.2265,-13.1484,-13.2109,-13.4062,-13.289,-13.2109,-13.1484,-13.0,-12.9218,-12.8906,-12.8437,-12.8203,-12.8203,-12.8515,-12.8203,-12.7734,-12.7422,-12.7265,-12.7264,0.0,0.0,0.0,0.0,0.0,0.0,-7.4287,-7.5043,-7.6066,-7.7459,-7.7878,-7.8837,0.0,0.0,0.0,-8.577,-8.6571,-8.6995,-8.6995,-8.7288,-8.7949,-8.8904,-8.9564,-9.0959,-9.3235,-9.6025,-9.9643,-10.4095,-10.6805,-10.6085,-10.2255,-10.4385,-10.3789,-10.1096,-10.3174,-10.3482,-10.2327,-10.1019,-10.0173,-9.9712,-9.925,-9.9096,-9.9327,0.0,0.0,0.0,0.0,0.0,0.0,0.0,0.0,0.0,-10.3174,-10.3866,-10.4174,-10.5713,-10.6058,-10.5976,-10.5476,-10.5537,-10.6131,-10.7716,-10.9031,-11.1406,-11.6792,-12.0793,-12.487,-13.041,-13.041,-13.0025,-13.2102,-13.1795,-13.141,-13.1872,-13.3103,-13.3795,-13.3333,-13.3026,-13.2811,-13.3006,-13.2462,-13.2624,-13.3669,-13.3828,-13.3828,-13.3828,-13.3828,-13.3828,-13.3828,-13.3828,-13.3828,-13.3828,-13.3515,-13.2968,-13.25,-13.1797,-13.1172,-13.0703,-12.9765,-13.0234,-13.1718,-13.0625,-13.0,-12.9609,-12.8203,-12.7578,-12.7578,-12.789,-12.8125,-12.8125,-12.8515,-12.8515,-12.8281,-12.789,-12.8281,-12.8825,0.0,0.0,-7.1312,-7.1312,0.0,-7.1853,-7.3274,-7.4153,-7.4897,-7.5574,-7.7063,-7.8931,0.0,0.0,0.0,-8.6783,-8.6995,-8.6995,-8.6995,-8.7655,-8.8096,-8.8169,-8.9784,-9.2207,-9.5364,-9.6025,-9.6392,-9.6392,-10.2033,-10.3511,-10.1138,-10.5383,-10.7021,-10.6405,-10.879,-10.9021,-10.7482,-10.5482,-10.3405,-10.1404,-10.1327,-10.1019,-10.0481,-10.1173,0.0,0.0,0.0,0.0,0.0,0.0,0.0,0.0,-10.3174,-10.3789,-10.3866,-10.4097,-10.363,-10.3003,-10.2445,-10.3189,-10.4706,-10.6595,-10.9686,-11.3714,-11.9485,-12.4486,-12.8871,-13.2179,-13.241,-13.2795,-13.5103,-13.3103,-13.1718,-13.3718,-13.2718,-13.1487,-13.141,-13.0768,-13.0461,-13.1217,-13.1398,-13.2097,-13.3514,-13.3828,-13.3828,-13.3828,-13.3828,-13.3828,-13.3828,-13.3828,-13.3828,-13.3828,-13.2968,-13.25,-13.2422,-13.0703,-12.9687,-12.9687,-12.8672,-12.8281,-12.8281,-12.8281,-12.7812,-12.6875,-12.6172,-12.5937,-12.6015,-12.6797,-12.7187,-12.7422,-12.8281,-12.9062,-12.9765,-12.9062,-12.9765,-13.101,0.0,0.0,-7.1312,-7.1312,0.0,0.0,-7.3341,-7.4153,-7.4897,-7.5574,-7.7063,-7.8931,-8.1118,-8.2643,0.0,-8.6856,-8.6995,-8.6995,-8.6995,-8.7142,-8.7582,-8.8169,-9.0372,-9.2501,-9.4483,-9.4116,-9.3896,-9.3896,-9.8824,-10.0046,-9.7701,-10.309,-10.5559,-10.5405,-10.6713,-10.7021,-10.6405,-10.2712,-10.1635,-10.2327,-10.1635,-10.202,-10.302,-10.2481,-10.2174,0.0,0.0,0.0,0.0,0.0,0.0,0.0,-10.2327,-10.3328,-10.4174,-10.5482,-10.4792,-10.4099,-10.5871,-10.5717,-10.5563,-10.8722,-11.3493,-11.8715,-12.3332,-12.6717,-12.9487,-13.1564,-13.341,-13.4872,-13.5411,-13.5488,-13.4718,-13.2564,-13.141,-13.0333,-12.8871,-12.8829,-12.9038,-12.9377,-13.0872,-13.2085,-13.2733,-13.3437,-13.3828,-13.3828,-13.3828,-13.3828,-13.3828,-13.3828,-13.3828,-13.3828,-13.2968,-13.2187,-13.1484,-12.9765,-12.8515,0.0,-12.6328,-12.5625,-12.5625,-12.6328,-12.5703,-12.4297,-12.4765,-12.5078,-12.5078,-12.5937,-12.6718,-12.7422,-12.8281,-12.9062,-13.0,-13.0468,-13.0937,-13.1167,0.0,0.0,0.0,0.0,0.0,0.0,0.0,0.0,-7.5574,-7.5236,-7.6792,-7.8931,-8.1118,-8.27,0.0,0.0,-8.6995,-8.6995,-8.6995,-8.7362,-8.8096,-8.9271,-9.0519,-9.184,-9.3088,-9.2721,-9.2501,-9.2501,-9.5744,-9.683,-9.6066,-10.1089,-10.4023,-10.5173,-10.7279,-10.7482,-10.6328,-10.4097,-10.3174,-10.3174,-10.2712,-10.3328,-10.4405,-10.3482,-10.302,-10.2481,-10.1635,0.0,0.0,0.0,0.0,0.0,0.0,0.0,-10.4482,-10.4636,-10.4482,-10.4445,-10.4787,-10.5293,-10.6636,-11.0406,-11.533,-11.9869,-12.287,-12.6178,-12.8871,-13.0179,-13.2872,-13.4872,-13.4872,-13.4334,-13.318,-13.141,-12.9794,-12.8353,-12.755,-12.7689,-12.8278,-12.9605,-13.068,-13.1726,-13.2421,-13.289,-13.2968,-13.2578,-13.2578,-13.2578,-13.2578,-13.2578,-13.2578,-13.2578,-13.1328,-13.039,-13.0,-12.7812,-12.6328,-12.5468,-12.4218,-12.3593,-12.3593,-12.4375,-12.4297,-12.3515,-12.3984,-12.4375,-12.4765,-12.5312,-12.6172,-12.7422,-12.8281,-12.9375,-13.0625,-13.1015,-13.1718,-13.2419,0.0,0.0,0.0,0.0,0.0,0.0,0.0,0.0,0.0,-7.4897,-7.6657,-7.8931,-8.1118,-8.27,-8.4532,0.0,0.0,0.0,-8.6995,-8.7729,-8.8904,-9.0519,-9.0739,-9.1253,-9.2207,-9.206,-9.1987,-9.1987,-9.3356,-9.4437,-9.547,-9.9745,-10.2995,-10.5307,-10.8055,-10.8167,-10.6405,-10.579,-10.4866,-10.3866,-10.3866,-10.4482,-10.5174,-10.4405,-10.3712,-10.2866,-10.1866,-10.1481,-10.1481,-10.1481,0.0,0.0,0.0,0.0,-10.4789,-10.3405,-10.3866,-10.4523,-10.2831,-10.4556,-10.8021,-11.1791,-11.5715,-11.9177,-12.1331,-12.4486,-12.7409,-12.8486,-13.1487,-13.3795,-13.3487,-13.1718,-13.0102,-12.9487,-12.7737,-12.6349,-12.6413,-12.6704,-12.7586,-12.9772,-13.0212,-13.0736,-13.1718,-13.1797,-13.1484,-13.0781,-13.0781,-13.0781,-13.0781,-13.0937,-13.0937,-13.0781,-12.9375,-12.8515,-12.8203,-12.5781,-12.4062,-12.3281,-12.2422,-12.2109,-12.2187,-12.289,-12.3281,-12.3281,-12.3281,-12.3593,-12.4062,-12.4297,-12.5312,-12.7031,-12.7968,-12.9531,-13.1172,-13.1406,-13.2422,-13.3592,0.0,0.0,0.0,0.0,0.0,0.0,0.0,0.0,0.0,0.0,-7.6995,-7.8931,-8.1118,-8.27,-8.4532,-8.6786,-8.6995,-8.6995,-8.6995,0.0,0.0,-9.0519,-9.1253,-9.2354,-9.3896,-9.3308,-9.2941,-9.2941,-9.3161,-9.4044,-9.5589,-10.0344,-10.3508,-10.5231,-10.5663,-10.6077,-10.6174,-10.3174,-10.2712,-10.3866,-10.3866,-10.4789,-10.6097,-10.5328,-10.4866,-10.4559,-10.302,-10.2404,-10.2404,-10.2404,-10.2481,0.0,0.0,0.0,-10.5097,-10.4789,-10.4405,-10.4097,-10.4484,-10.7062,-11.0175,-11.2175,-11.4791,-11.7869,-12.1793,-12.3178,-12.4178,-12.6563,-12.9717,-13.1564,-13.0102,-12.964,-12.8409,-12.5409,-12.4935,-12.4632,-12.393,-12.4991,-12.6233,-12.73,-12.8334,-12.8905,-12.9062,-12.9062,-12.9062,-12.8984,-12.8906,-12.8906,-12.8906,-12.9687,-12.9687,-12.8984,-12.8672,-12.789,-12.6406,-12.4609,-12.3203,-12.2422,-12.1484,-12.1484,-12.2187,-12.2265,-12.2422,-12.2422,-12.2422,-12.2031,-12.1484,-12.2187,-12.3593,-12.5312,-12.6875,-12.8984,-13.1328,-13.2031,-13.2968,-13.3666,0.0,0.0,0.0,0.0,0.0,0.0,0.0,0.0,0.0,0.0,0.0,-7.9068,-8.1754,-8.3422,-8.5033,-8.6856,-8.7435,-8.7655,-8.7655,-8.7582,-8.8463,-9.0519,-9.0519,-9.1253,-9.2868,-9.2574,-9.2354,-9.2354,-9.3308,-9.463,-9.6245,-9.9722,-10.2165,-10.3812,-10.4282,-10.4692,-10.4866,-10.2866,-10.2789,-10.3866,-10.3866,-10.402,-10.4328,-10.4866,-10.4174,-10.302,-10.3174,-10.302,-10.2712,-10.3174,-10.3328,-10.3482,-10.4713,0.0,0.0,0.0,-10.4482,-10.4559,-10.4482,-10.6174,-10.8482,-11.0175,-11.2868,-11.5792,-11.8715,-12.0793,-12.2485,-12.3562,-12.5409,-12.6794,-12.7025,-12.587,-12.4409,-12.287,-12.2582,-12.2639,-12.281,-12.3994,-12.5382,-12.6928,-12.7575,-12.7734,-12.7187,-12.7109,-12.6797,-12.5781,-12.6172,-12.6484,-12.6484,-12.7265,-12.7265,-12.6484,-12.6015,-12.5078,-12.3906,-12.2734,-12.1562,-12.0703,-12.039,-12.039,-12.0781,-12.1172,-12.1718,-12.2187,-12.2187,-12.1636,-12.0674,-12.1794,-12.2808,-12.4033,-12.6403,-12.8593,-13.0625,-13.2031,-13.3125,-13.3827,0.0,0.0,0.0,0.0,0.0,0.0,0.0,0.0,0.0,0.0,0.0,-7.948,-8.2461,0.0,0.0,0.0,-8.8023,-8.8536,-8.8536,-8.8169,-8.8757,-9.0519,-9.0225,-9.0592,-9.1767,-9.1767,-9.1767,-9.1767,-9.3455,-9.5217,-9.7052,-9.9493,-10.1787,-10.3973,-10.4239,-10.4265,-10.4482,-10.3405,-10.3712,-10.4789,-10.3482,-10.2866,-10.302,-10.3558,-10.2789,-10.1481,-10.302,-10.302,-10.2404,-10.3482,-10.3866,-10.402,-10.4789,-10.5713,0.0,0.0,0.0,-10.4713,-10.4097,-10.5405,-10.7175,-10.8098,-11.0791,-11.3714,-11.5176,-11.7715,-11.9792,-12.0177,-12.0716,-12.1408,-12.287,-12.21,-12.1224,-12.1095,-12.0998,-12.1306,-12.2512,-12.3516,-12.4729,-12.6484,-12.6328,-12.5703,-12.5078,-12.4609,-12.3906,-12.289,-12.3203,-12.3593,-12.3828,-12.4609,-12.4687,-12.3828,-12.3437,-12.25,-12.1172,-12.0078,-11.9375,-11.8906,-11.8906,-11.9218,-11.9609,-12.0312,-12.0936,-12.1399,-12.1399,-12.083,-11.9897,-12.1123,-12.2035,-12.2814,-12.5517,-12.7726,-12.9604,-13.1015,-13.2187,-13.3203,0.0,0.0,0.0,0.0,0.0,0.0,0.0,0.0,0.0,0.0,0.0,-8.0207,-8.3309,-8.4966,-8.6465,-8.8029,-8.8904,-8.9344,-8.9344,-9.0005,-9.0445,-9.0592,-9.1326,0.0,-9.1767,-9.1767,-9.1767,-9.1767,-9.3455,-9.5511,-9.786,-10.0313,-10.3605,-10.7446,-10.5785,-10.5582,-10.6174,-10.4482,-10.5328,-10.7098,-10.2174,-10.1712,-10.3558,-10.1173,-10.0789,-10.1404,-10.2327,-10.2097,-10.1635,-10.3328,-10.3866,-10.402,-10.4789,-10.5713,-10.6097,0.0,0.0,0.0,-10.3866,-10.6328,-10.8406,-10.6867,-10.9098,-11.1868,-11.2714,-11.3714,-11.4791,-11.6407,-11.6176,-11.6022,-11.6792,-11.8792,-12.0203,-11.9719,-12.048,-12.1733,-12.2827,-12.3335,-12.3906,-12.4765,-12.3515,-12.2422,-12.2422,-12.0937,-12.0234,-12.1015,-12.0312,-12.0234,-12.1093,-12.1875,-12.2031,-12.1093,-12.1875,-12.1093,-11.8515,-11.6875,-11.6406,-11.7109,-11.7109,-11.7968,-11.9609,-11.9609,-11.9595,-11.9428,-11.9428,-11.8882,-11.8079,-11.9533,-12.06,-12.1634,-12.3736,-12.5985,-12.8193,-12.8664,-12.9922,-13.1405,0.0,0.0,0.0,0.0,0.0,0.0,0.0,0.0,-7.6454,0.0,0.0,0.0,0.0,-8.5407,-8.6751,-8.8835,-8.9271,-8.9638,-9.0152,-9.0005,-9.0298,-9.1326,-9.1179,-9.1253,-9.1767,-9.1767,-9.1767,-9.1767,-9.2941,-9.4777,-9.7126,-9.9053,-10.1943,-10.532,-10.5799,-10.64,-10.7098,-10.5405,-10.5174,-10.579,-10.2866,-10.1558,-10.1404,-10.1019,-10.0019,-9.9096,-10.1096,-10.1943,-10.2327,-10.3482,-10.4174,-10.4713,-10.502,-10.5328,-10.5174,-10.3635,-10.3482,-10.3712,-10.2481,-10.4328,-10.6328,-10.5713,-10.6482,-10.7867,-10.979,-11.0098,-11.0406,-11.2099,-11.2175,-11.2534,-11.4085,-11.5895,-11.7318,-11.782,-11.8876,-11.9806,-12.0498,-12.1309,-12.1718,-12.1484,-12.0937,-12.0078,-11.8984,-11.7812,-11.7187,-11.75,-11.7812,-11.8281,-11.9218,-12.0625,-12.0703,-11.9297,-11.9531,-11.8515,-11.5937,-11.5781,-11.5937,-11.6172,-11.6718,-11.7578,-11.8828,-11.8571,-11.853,-11.8313,-11.803,-11.7634,-11.74,-11.8742,-11.9577,-12.0267,-12.2412,-12.4695,-12.7111,-12.7825,-12.9104,-13.0571,0.0,0.0,0.0,-7.6927,0.0,-7.5912,-7.7401,-7.7401,-7.7604,-7.8619,0.0,0.0,0.0,0.0,-8.8095,-9.0008,-9.0005,-9.0152,-9.0959,-9.0519,-9.0665,-9.1767,-9.1326,-9.1253,-9.1767,-9.1767,-9.1767,-9.1767,-9.2941,-9.463,-9.6759,-9.8374,-10.0976,-10.4384,-10.4907,-10.6343,-10.853,-10.7322,-10.7021,-10.7021,-10.3482,-10.2174,-10.2097,-10.1481,-10.0635,-9.9942,-10.1866,-10.2635,-10.2635,-10.2866,-10.3405,-10.3789,-10.3789,-10.402,-10.402,-10.2866,-10.3174,-10.3635,-10.2481,-10.402,-10.5867,-10.5636,-10.602,-10.6559,-10.7405,-10.7713,-10.7908,-10.8453,-10.9109,-11.0146,-11.2096,-11.3518,-11.5033,-11.6984,-11.8164,-11.8996,-11.9311,-11.9524,-11.9297,-11.8437,-11.75,-11.6562,-11.539,-11.4765,-11.4531,-11.4765,-11.5937,0.0,-11.7422,-11.8828,-11.8828,-11.7109,-11.7031,-11.6093,-11.4062,-11.4922,-11.539,-11.5703,-11.6562,-11.742,-11.8189,-11.7975,-11.7793,-11.7644,-11.721,-11.7037,-11.7114,-11.7973,-11.862,-11.9105,-12.1121,-12.3205,-12.5098,-12.5978,-12.7506,-12.8985,-7.5777,-7.6386,-7.7198,-7.7874,-7.7401,-7.7401,-7.8889,-7.8483,-7.8551,-7.9972,0.0,0.0,0.0,0.0,0.0,-9.1767,-9.1106,-9.0959,-9.1767,-9.1767,-9.1767,-9.1767,-9.1767,-9.1767,-9.1767,-9.1767,-9.1767,-9.1767,-9.3455,-9.507,-9.6685,-9.83,-10.12,-10.4981,-10.3493,-10.5483,-11.0062,-11.0142,-11.0637,-11.0791,-10.4097,-10.3405,-10.602,-10.2635,-10.2327,-10.3866,-10.4713,-10.402,-10.2481,-10.1712,-10.1404,-10.1481,-10.1481,-10.202,-10.2635,-10.2635,-10.3328,-10.402,0.0,0.0,0.0,-10.6713,-10.7636,-10.8175,-10.5713,-10.6405,-10.7181,-10.5757,-10.6859,-10.8637,-11.0527,-11.1583,-11.3418,-11.713,-11.8481,-11.9224,-11.9374,-11.7968,-11.6562,-11.5703,-11.3437,-11.1797,-11.1797,-11.1797,-11.2187,-11.3125,-11.4687,-11.5625,-11.5703,-11.6406,-11.6093,-11.4531,-11.4375,-11.3984,-11.3203,-11.4062,-11.4922,-11.5703,-11.6562,-11.733,-11.7934,-11.7923,-11.7625,-11.7037,-11.7037,-11.7003,-11.6968,-11.7472,-11.7792,-11.7991,-11.9995,-12.1297,-12.2218,-12.3387,-12.4889,-12.6523,-7.7333,-7.7536,-7.7942,-7.8686,-7.8213,-7.801,-7.8957,-7.8957,-7.8957,0.0,0.0,0.0,-8.5728,-8.9726,-9.2423,-9.2721,-9.2574,-9.2207,-9.184,-9.1767,-9.1767,-9.1767,-9.1767,-9.1767,-9.1767,-9.1767,-9.1767,-9.1767,-9.2868,-9.3969,-9.4997,-9.6612,-9.8603,-10.0902,-10.2831,-10.4847,-10.6598,-10.7163,-10.8009,-10.8482,-10.602,-10.4789,-10.4405,-10.2097,-10.1173,-10.1327,-10.2097,-10.3174,-10.4328,-10.3482,-10.4789,-10.6636,-10.5405,-10.4328,-10.3482,-10.3482,-10.4636,-10.5713,-10.5713,0.0,0.0,0.0,0.0,0.0,-10.6867,-10.5867,-10.5101,-10.537,-10.6394,-10.7403,-10.8439,-10.9823,-11.1331,-11.3017,-11.4863,-11.6001,-11.5632,-11.4634,-11.3405,-11.2187,-11.0781,-10.9765,-10.9062,-10.9062,-10.9687,0.0,-11.2265,-11.3515,-11.4765,-11.4531,-11.3984,-11.3593,-11.289,-11.25,-11.2265,-11.3672,-11.4922,-11.5781,-11.6378,-11.7116,-11.7934,-11.7364,-11.7181,-11.7003,-11.6673,-11.6589,-11.6624,-11.6804,-11.7176,-11.7869,-11.9125,-12.0521,-12.1909,-12.2773,-12.4204,-12.5672,-7.8077,-7.8213,-7.8686,-7.9431,-7.9228,-7.9295,-8.031,-8.0242,-8.0242,0.0,0.0,0.0,-8.8085,-9.1822,-9.3675,-9.2648,-9.2868,-9.2721,-9.184,-9.1767,-9.1767,-9.1767,-9.1767,-9.1767,-9.1767,-9.1767,-9.1767,-9.1767,-9.3015,-9.3822,-9.4336,-9.6318,-9.786,-9.9181,-10.1497,-10.312,-10.4226,-10.5404,-10.7011,-10.8636,-10.7405,-10.7175,-10.7405,-10.5713,-10.5174,-10.5328,-10.5097,-10.602,-10.6867,-10.4713,-10.502,-10.602,-10.4713,-10.4328,-10.4405,-10.4405,-10.5636,-10.6867,-10.6867,-10.7867,-10.9021,-10.9406,0.0,0.0,-10.6328,-10.5482,-10.4599,-10.3287,-10.4325,-10.5705,-10.6567,-10.7775,-10.9082,-11.0135,-11.1393,-11.2211,-11.2197,-11.1578,-11.0393,-10.8494,-10.7263,-10.6406,-10.5937,-10.6484,-10.75,-10.8906,-11.0781,-11.2187,-11.2812,-11.1718,-11.0937,-11.0468,-11.1093,-11.1172,-11.0781,-11.3593,-11.5232,-11.5602,-11.6569,-11.7311,-11.7506,-11.7491,-11.7166,-11.6789,-11.7001,-11.6792,-11.6484,-11.6484,-11.6792,-11.7407,-11.8561,-11.9715,-12.0716,-12.187,-12.3178,-12.4409,0.0,-7.8754,-7.9431,-8.0175,-8.031,-8.0851,-8.2272,-8.1799,-8.1866,0.0,-8.5272,-8.7897,-9.1766,-9.4116,-9.4483,-9.2281,-9.2721,-9.2721,-9.184,-9.1767,-9.1767,-9.1767,-9.1767,-9.1767,-9.1767,-9.1767,-9.184,-9.1913,-9.3529,-9.4336,-9.4483,-9.6685,-9.8227,-9.9035,-9.9842,-10.1126,-10.2744,-10.4302,-10.6636,-10.931,-10.8364,-10.9713,-11.2099,-11.056,-11.1021,-11.2175,-11.056,-11.0175,-10.9713,-10.579,-10.3789,-10.2789,-10.2097,-10.3328,-10.502,-10.5328,-10.6482,-10.779,-10.8021,-10.8713,-10.9483,-11.0329,-11.0406,0.0,-10.5713,-10.602,-10.5831,-10.1806,-10.277,-10.4711,-10.5769,-10.6636,-10.7378,-10.8474,-10.8492,-10.8626,-10.9404,-10.8907,-10.761,-10.5134,-10.3578,-10.2812,-10.2812,-10.4219,-10.5625,-10.6562,-10.9765,-11.1328,-11.0468,-10.8672,-10.7422,-10.6719,-10.8984,-10.9922,-10.9375,-11.3514,-11.5529,-11.5515,-11.6962,-11.7506,-11.7037,-11.7665,-11.7484,-11.6484,-11.733,-11.7176,-11.6484,-11.6484,-11.6484,-11.6715,-11.8331,-11.9023,-11.9331,-12.0869,-12.21,-12.287,-7.9025,-7.9498,-8.0242,-8.0919,-8.1054,-8.1596,-8.3084,-8.2137,-8.2002,-8.4099,-8.7012,-9.033,-9.4329,-9.463,-9.4336,-9.3822,-9.3382,-9.2721,-9.184,-9.1767,-9.1767,-9.1767,-9.1767,-9.1767,-9.1767,-9.1767,-9.2134,-9.2868,-9.3822,-9.463,-9.529,-9.6392,-9.7346,-9.8154,-9.8961,-10.0164,-10.1779,-10.2808,-10.3614,-10.4626,-10.8209,-10.9713,-10.9637,-10.9329,-10.979,-11.056,-10.9483,-11.0098,-11.0868,-10.8713,-10.6405,-10.4713,-10.5174,-10.4789,-10.4482,-10.6636,-10.7405,-10.8098,-11.0175,-11.1329,-11.2022,-11.2175,-11.1714,0.0,-11.1021,-11.0714,-11.0263,-10.9569,-10.9926,-10.9993,-10.9405,-10.9199,-10.9212,-10.9524,-10.8414,-10.7394,-10.7375,-10.6904,-10.5585,-10.3329,-10.2328,-10.1875,-10.1875,-10.2812,-10.4297,-10.6484,-10.8593,-10.9687,-10.9609,-10.7265,-10.6172,-10.6719,-10.7187,-10.8437,-11.0312,-11.3014,-11.4989,-11.6373,-11.6929,-11.712,-11.7037,-11.6942,-11.6693,-11.6484,-11.6715,-11.6715,-11.6484,-11.6484,-11.6484,-11.6561,-11.7638,-11.8484,-11.9177,-12.0177,-12.1485,-12.287,-7.8619,-7.916,-7.9972,-8.1122,-8.1596,-8.2205,-8.3355,-8.2881,-8.3084,-8.4979,-8.8752,-9.2191,-9.4622,-9.529,-9.485,-9.3161,-9.3088,-9.2721,-9.184,-9.1767,-9.1767,-9.1767,-9.1767,-9.1987,-9.2427,-9.1987,-9.2207,-9.3088,-9.3896,-9.4483,-9.4923,-9.6539,-9.7052,-9.6759,-9.8814,-9.9934,-10.0389,-10.2385,-10.3624,-10.4161,-10.6712,-10.7749,-10.7673,-10.8079,-10.907,-11.0062,-10.9223,-10.9506,-11.0002,-10.8705,-10.7713,-10.6713,-10.502,-10.5097,-10.602,-10.7328,-10.8021,-10.879,-11.0868,-11.2099,-11.2714,-11.2714,-11.2714,0.0,0.0,-11.1175,-11.0993,-10.9084,-10.9414,-10.9674,-10.89,-10.8162,-10.7805,-10.7741,-10.6628,-10.5486,-10.4774,-10.4425,-10.3435,-10.1267,-10.059,-10.0469,-10.0937,-10.1719,-10.3281,-10.5937,-10.6875,-10.7187,-10.6797,-10.5078,-10.4375,-10.4765,-10.6015,-10.7497,-10.9114,-11.2422,-11.4488,-11.5496,-11.6453,-11.6933,-11.6827,-11.7001,-11.6869,-11.6484,-11.7023,-11.6869,-11.6484,-11.6484,-11.6484,-11.6561,-11.7484,-11.8331,-11.9177,-12.0023,-12.11,-12.2331,-7.7942,-7.8619,-7.9634,-8.119,-8.2002,-8.2746,-8.3761,-8.3693,-8.4242,-8.6196,-9.0192,-9.3265,-9.4402,-9.5511,-9.5437,-9.3382,-9.2868,-9.2721,-9.2941,-9.206,-9.1473,-9.1326,-9.162,-9.1987,-9.2354,-9.1987,-9.2207,-9.3088,-9.3749,-9.4189,-9.4556,-9.6539,-9.6979,-9.6318,-9.8594,-9.9622,-9.9774,-10.2315,-10.3576,-10.3798,-10.4496,-10.5698,-10.7295,-10.7899,-10.9195,-11.0542,-10.9686,-10.9182,-10.8793,-10.8191,-10.8329,-10.8098,-10.4713,-10.5097,-10.7098,-10.7867,-10.8329,-10.8867,-11.1329,-11.2483,-11.3022,-11.3176,-11.3637,-11.333,0.0,0.0,0.0,-10.7976,-10.8432,-10.9105,-10.8465,0.0,0.0,-10.6688,0.0,0.0,0.0,-10.2924,0.0,-9.9949,-9.9306,0.0,-10.0234,-10.1406,-10.2969,-10.5078,-10.539,-10.5078,-10.4219,-10.3203,-10.2734,-10.289,-10.4998,-10.6464,-10.7309,-11.1305,-11.3494,-11.3938,-11.5773,-11.6403,-11.6022,-11.6869,-11.6792,-11.6099,-11.6792,-11.6715,-11.6022,-11.6176,-11.633,-11.6407,-11.7176,-11.8177,-11.9177,-11.9792,-12.0716,-12.1562,-7.7874,-7.8619,-7.9769,-8.1934,-8.234,-8.3084,-8.5182,-8.437,-8.4831,-8.8733,-9.075,-9.2835,-9.5135,-9.4923,-9.5584,-9.808,-9.3749,-9.2648,-9.6906,-9.3161,-9.0445,-8.9711,-9.1033,-9.1179,-8.9858,-9.1106,-9.2207,-9.3088,-9.3161,-9.3969,-9.5364,-9.5658,-9.6832,-9.8668,-9.7566,-9.8668,-10.131,-10.1617,-10.0588,-9.9048,-10.1776,-10.573,-10.9723,-10.9798,-11.093,-11.2192,-11.1406,-11.0237,-10.8946,-10.8805,-10.8406,-10.779,-10.7328,-10.579,-10.5097,-10.879,-10.8406,-10.7713,-11.2406,-11.3791,-11.4022,-11.4791,-11.4484,-11.3868,-11.3483,0.0,-11.3791,-11.4109,0.0,-11.3196,-11.2589,0.0,0.0,-11.0853,0.0,0.0,-10.7025,-10.4189,-10.1818,-10.0787,-9.9697,0.0,0.0,-10.25,-10.3984,-10.4297,-10.5078,-10.5078,-10.4219,-10.2578,-10.2109,-10.289,-10.3714,-10.491,-10.6383,-10.9493,-11.1398,-11.2234,-11.4433,-11.511,-11.433,-11.5176,-11.5099,-11.433,-11.4407,-11.4407,-11.433,-11.5099,-11.5407,-11.5484,-11.633,-11.7715,-11.91,-11.9177,-12.0177,-12.1562,-7.7942,-7.8619,-7.9701,-8.146,-8.2137,-8.3016,-8.4843,-8.5317,-8.6782,-9.0445,-9.1857,-9.3981,-9.7844,-9.7566,-9.7787,-9.9622,-9.7199,-9.5804,-9.6465,-9.4556,-9.2868,-9.162,-9.2648,-9.3161,-9.2941,-9.2721,-9.2941,-9.3822,-9.3308,-9.3675,-9.4777,-9.529,-9.6025,-9.6979,-9.6759,-9.7419,-9.8814,-10.0723,-10.1457,-10.1604,-10.388,-10.6733,-10.9151,-10.6697,-10.6772,-10.8187,-10.7909,-10.7659,-10.7379,-10.6908,-10.7839,-10.8713,-10.6328,-10.6097,-10.7098,-10.8406,-10.8713,-10.9175,-11.1791,-11.3637,-11.4561,-11.4022,-11.433,-11.4484,-11.3483,-11.3637,-11.3791,-11.3176,0.0,0.0,0.0,0.0,0.0,0.0,-10.7179,0.0,0.0,0.0,-10.1425,0.0,0.0,0.0,0.0,0.0,0.0,0.0,-10.3984,-10.4062,-10.2812,-10.25,-10.2496,-10.2705,-10.3904,-10.5038,-10.5761,-10.8976,-11.125,-11.2426,-11.4382,-11.5099,-11.4791,-11.5099,-11.4791,-11.4022,-11.4022,-11.433,-11.4791,-11.5099,-11.5561,-11.6022,-11.6407,-11.733,-11.8407,-11.8869,-11.9792,-12.0869,-7.828,-7.8754,-7.9566,-8.1054,-8.1731,-8.2611,-8.4099,-8.5249,-8.733,-9.1081,-9.1998,-9.4339,-9.9675,-10.0209,-10.1017,-10.3072,-10.1677,-10.0136,-9.8594,-9.7052,-9.507,-9.2501,-9.3602,-9.4263,-9.4189,-9.3675,-9.3749,-9.4263,-9.3749,-9.3822,-9.463,-9.5217,-9.5878,-9.6465,-9.6832,-9.7273,-9.786,-10.0723,-10.2191,-10.3072,-10.4981,-10.6376,-10.7183,-10.4908,-10.4541,-10.5147,-10.521,-10.5613,-10.5997,-10.5734,-10.7303,-10.9021,-10.6174,-10.6482,-10.779,-10.7713,-10.8175,-10.9098,-11.0714,-11.2688,-11.4235,-11.3296,-11.392,-11.4347,-11.2988,-11.3176,-11.333,-11.2099,-11.1791,0.0,0.0,0.0,-10.8713,-10.7944,0.0,-10.579,0.0,-10.3013,0.0,0.0,0.0,0.0,0.0,0.0,0.0,0.0,0.0,-10.3203,-10.1719,-10.2187,-10.2569,-10.2792,-10.4466,-10.5496,-10.5852,-10.8929,-11.1076,-11.2406,-11.4099,-11.4791,-11.4561,-11.4791,-11.433,-11.333,-11.333,-11.3791,-11.4561,-11.4791,-11.5407,-11.6176,-11.6407,-11.7023,-11.7869,-11.8792,-11.9562,-12.0408,-7.8957,-7.9092,-7.9566,-8.1054,-8.1325,-8.1799,-8.3287,-8.3558,-8.5275,-9.0163,-9.0723,-9.321,-9.9602,-10.1677,-10.4834,-11.0414,-10.7183,-10.5201,-10.6009,-10.087,-9.5658,-9.0886,-9.3015,-9.3161,-9.0812,-9.3088,-9.4263,-9.4263,-9.4263,-9.4703,-9.5437,-9.5511,-9.6759,-9.8961,-9.8227,-9.8741,-10.0283,-10.1971,-10.1824,-10.0576,-10.2999,-10.4027,-10.432,-10.6596,-10.6523,-10.5147,-10.521,-10.5238,-10.5393,-10.6191,-10.7043,0.0,0.0,0.0,-10.5482,-10.7175,-10.6482,-10.602,-10.9329,-11.1113,-11.2256,-11.3612,-11.3584,-11.3184,-11.2842,-11.2714,-11.2714,-11.2714,-11.2714,-11.2406,-11.1637,-11.0098,-10.9406,-11.1098,-10.8636,0.0,0.0,-10.5405,-10.3326,-10.1826,0.0,0.0,0.0,0.0,0.0,0.0,-10.2422,0.0,-10.1562,-10.1562,-10.2335,-10.3729,-10.5101,-10.6236,-10.6782,-10.9148,-11.0714,-11.1637,-11.3176,-11.3637,-11.2791,-11.3714,-11.3099,-11.1637,-11.1637,-11.2022,-11.2791,-11.3714,-11.4561,-11.5407,-11.6176,-11.7023,-11.7869,-11.8792,-11.9562,-12.0408,-7.9566,-7.9837,-7.9972,-8.0445,-8.0987,-8.1799,-8.3287,-8.3896,-8.64,-9.2302,-9.3972,-9.7566,-10.5159,-10.6834,-10.9106,-11.3245,-11.1795,-10.9854,-10.8052,-10.5715,-10.2558,-9.8741,-9.8374,-9.8154,-9.7787,-9.7052,-9.6685,-9.6685,-9.5584,-9.5511,-9.6318,-9.5731,-9.6539,-9.83,-9.7493,-9.7126,-9.7346,-10.0503,-10.1604,-10.1457,-10.6082,-10.7624,-10.689,-10.5128,-10.432,-10.4256,-10.3107,-10.3489,0.0,-10.4664,-10.6121,-10.7713,-10.8021,-10.7867,-10.7713,-10.8329,-10.8867,0.0,0.0,0.0,-11.3119,-11.2526,-11.2611,-11.2462,-11.1295,-11.1483,-11.1714,-11.1175,-11.0637,-11.0098,-10.979,-10.9329,-10.8867,-10.9021,-10.8482,-10.779,0.0,-10.5636,-10.4556,-10.4478,-10.3045,-10.2367,0.0,0.0,0.0,0.0,-10.1015,0.0,-10.0781,-10.1328,-10.2392,-10.4321,-10.5398,-10.6421,-10.7451,-10.9258,-11.0868,-11.2329,-11.2868,-11.333,-11.3637,-11.333,-11.2791,-11.2329,-11.2329,-11.3099,-11.4407,-11.4714,-11.533,-11.6176,-11.7023,-11.7484,-11.7869,-11.8792,-11.9562,-12.0454,-7.9634,-8.004,-8.031,-8.0513,-8.0784,-8.1393,-8.2881,-8.464,-8.7891,-9.3615,-9.656,-10.0961,-10.8451,-11.0399,-11.2637,-11.6211,-11.6318,-11.4332,-10.9886,-11.0193,-10.8211,-10.2925,-10.2779,-10.2485,-10.1457,-10.0283,-9.9035,-9.786,-9.7126,-9.6906,-9.7126,-9.6318,-9.6612,-9.786,-9.7933,-9.7199,-9.6171,-10.0209,-10.1604,-10.1531,-10.6963,-10.8799,-10.8064,-10.5128,-10.432,-10.4467,0.0,-10.2612,-10.3475,-10.3488,-10.4996,-10.6918,-10.7475,-10.779,-10.8098,-10.8406,-10.9329,-11.0098,-10.979,-11.1496,0.0,-11.1834,-11.2149,0.0,-11.0987,-11.1098,-11.1175,-11.0021,-10.9483,-10.9098,-10.8175,-10.8482,-10.8636,-10.779,-10.8098,-10.7867,0.0,-10.5713,-10.5785,-10.6327,-10.4806,-10.3797,-10.4218,0.0,0.0,-10.0,-10.0078,-10.0234,0.0,0.0,-10.2537,-10.4502,-10.5981,-10.753,-10.9021,-11.0406,-11.1791,-11.3176,-11.3483,-11.3637,-11.3483,-11.3637,-11.333,-11.2714,-11.3022,-11.4022,-11.533,-11.533,-11.5792,-11.6561,-11.7484,-11.8177,-11.8792,-11.9331,-12.0082,-12.111,-7.9228,-7.9837,-8.0513,-8.119,-8.0716,-8.0716,-8.2205,-8.5587,-8.9593,-9.3922,-9.841,-10.3556,-10.9491,-11.2142,-11.522,-11.9272,-12.0428,-11.8216,-11.2086,-11.4598,-11.2396,-10.3806,-10.6302,-10.6082,-10.2191,-10.2632,-10.131,-9.8227,-9.8814,-9.8668,-9.7933,-9.7126,-9.7126,-9.7933,-9.9548,-9.8888,-9.6832,-10.087,-10.1824,-10.1017,-10.5715,-10.7551,-10.7551,-10.6816,-10.6376,-10.6082,-10.3586,-10.2677,-10.2814,-10.2837,-10.3756,-10.551,-10.7236,-10.7098,-10.6636,-10.7482,-10.779,-10.7867,-10.8713,-11.0381,-11.1792,-11.1609,0.0,0.0,0.0,0.0,-11.0868,-10.9294,-10.9525,-10.9252,-10.6908,-10.7713,-10.8482,-10.779,-10.7713,-10.7098,-10.5482,-10.602,-10.6712,-10.726,-10.6468,-10.5632,-10.4607,-10.4297,-10.2812,-9.9453,-9.9844,-9.9844,0.0,0.0,-10.2615,-10.458,-10.7204,-10.947,-11.1483,-11.2329,-11.3099,-11.4022,-11.4791,-11.433,-11.2791,-11.4407,-11.433,-11.2791,-11.3714,-11.4561,-11.5407,-11.5407,-11.5869,-11.6715,-11.7638,-11.8869,-12.0408,-12.0485,-12.1187,-12.2406,-8.1122,-8.1731,-8.1731,-8.1325,-8.0716,-8.0716,-8.2205,-8.5587,-9.0166,-9.6215,-10.1383,-10.6676,-11.2127,-11.418,-11.6634,-12.0236,-12.0689,-12.0416,-11.9422,-11.9517,-11.8122,-11.4525,-11.291,-11.1588,-11.0487,-10.6523,-10.41,-10.3293,-9.9842,-9.8374,-9.8741,-9.7346,-9.6832,-9.7052,-9.8668,-9.7713,-9.5217,-9.9842,-10.2632,-10.41,-10.6596,-10.8285,-10.9166,0.0,-10.689,-10.6082,-10.3586,-10.3124,-10.3634,-10.3602,-10.4287,-10.551,-10.7236,-10.7098,-10.6713,-10.8175,-10.8636,-10.879,-10.956,-11.0685,-11.1573,-11.1526,-11.1224,-11.088,0.0,0.0,0.0,0.0,0.0,0.0,-10.6817,-10.6911,-10.7021,-10.679,-10.7328,-10.7482,-10.7098,-10.7713,-10.872,-10.9983,-10.8159,-10.7192,-10.7888,-10.5703,-10.3594,-10.2031,-10.0312,-9.9219,-9.8984,0.0,0.0,-10.5514,-10.806,-11.0401,-11.2406,-11.2637,-11.3099,-11.4022,-11.3022,-11.2637,-11.2714,-11.3176,-11.3483,-11.3714,-11.4561,-11.5407,-11.6176,-11.6869,-11.733,-11.7638,-11.91,-12.0716,-12.2331,-12.287,-12.359,-12.432,-8.119,-8.2002,-8.2205,-8.1393,-8.2272,-8.3558,-8.4708,-8.6941,-9.0527,-9.6277,-10.1893,-10.6697,-11.0283,-11.4034,-11.7609,-12.0476,-12.133,-12.1687,-12.1035,-12.2307,-12.1572,-11.8489,-11.7388,-11.5773,-11.357,-10.9092,-10.5715,-10.3513,-9.9769,-9.7933,-9.8007,-9.6759,-9.6171,-9.6245,-9.8227,-9.7713,-9.5584,-9.8961,-10.1971,-10.4687,-10.6009,-10.7257,0.0,-10.7404,-10.6816,-10.6082,-10.3586,-10.2812,-10.2983,-10.37,-10.4285,-10.4996,-10.7071,-10.7405,-10.7175,-10.8482,-10.8867,-10.9021,-10.9483,-11.0483,-11.1329,-11.0637,-11.0637,-11.0483,-10.9406,-10.9021,-10.8488,0.0,-10.6681,-10.6024,0.0,-10.4908,-10.5405,-10.579,-10.6867,-10.7713,-10.7713,-10.9021,-11.0264,-11.0994,-11.0437,-11.031,-11.0935,-10.6484,-10.3594,-10.3515,-10.1406,-10.0078,0.0,0.0,0.0,-10.6614,-10.9388,-11.1882,-11.4009,-11.3535,-11.3483,-11.4022,-11.3022,-11.2637,-11.2714,-11.3483,-11.4099,-11.4561,-11.5484,-11.633,-11.71,-11.7638,-11.8023,-11.8484,-12.0177,-12.187,-12.3485,-12.387,-12.4285,-12.4524,-8.0581,-8.1596,-8.234,-8.1663,-8.464,-8.7482,-8.87,-8.985,-9.2083,-9.6277,-10.1825,-10.5953,-10.7509,-11.3147,-11.7841,-12.0317,-12.2083,-12.2269,-12.0375,-12.3555,-12.3628,-11.937,-12.0324,-11.8783,-11.4305,-11.0487,-10.6376,-10.2118,-9.9035,-9.7273,-9.6685,-9.6025,-9.5584,-9.5584,-9.7933,-9.808,-9.6832,-9.83,-10.0576,-10.3219,-10.41,-10.5128,-10.5862,-10.5862,-10.5862,-10.5568,-10.3513,-10.2265,-10.1923,-10.3214,-10.379,-10.4378,-10.6507,-10.7287,-10.7482,-10.8482,-10.8713,-10.8636,-10.879,-11.0021,-11.0791,-10.9098,-10.979,-11.0329,-10.8021,-10.7867,-10.7523,-10.4715,-10.506,-10.502,0.0,0.0,-10.402,-10.502,-10.6482,-10.7636,-10.7713,-10.979,-11.1268,-11.1305,-11.2227,0.0,-11.32,-10.75,-10.3984,-10.4609,-10.3125,0.0,0.0,0.0,0.0,-10.752,-11.0614,-11.3437,-11.5575,0.0,-11.3868,-11.4022,-11.3791,-11.333,-11.2791,-11.4407,-11.5176,-11.533,-11.6176,-11.6869,-11.7638,-11.7792,-11.8407,-11.9408,-12.11,-12.2716,-12.4024,-12.4101,-12.3938,-12.3672,-8.1799,-8.2746,-8.3287,-8.3152,-8.5723,-8.9106,-9.2962,-9.621,-9.9187,-10.1893,-10.6358,-10.9877,-11.1365,-11.3834,-11.6238,-11.8619,-12.0865,-12.2632,-12.3603,-12.4289,-12.4289,-12.3481,-12.1793,-11.9884,-11.7608,-11.0487,-10.6376,-10.5495,-9.9108,-9.6171,-9.6685,-9.6539,-9.6171,-9.5584,-9.7346,-9.7566,-9.6759,-9.7713,-9.8447,-9.9035,-10.0503,-10.1971,-10.3293,-10.3293,-10.3293,-10.3293,-10.2925,-10.2632,-10.2353,-10.2085,-10.2895,-10.4092,-10.4519,-10.5096,-10.5867,-10.7405,-10.7405,-10.7098,-10.8482,-10.9098,-10.9098,-10.8175,-10.7636,-10.7175,-10.6713,-10.5713,-10.4908,-10.5183,-10.417,-10.3214,-10.2786,0.0,0.0,-10.4866,-10.602,-10.6867,-10.7636,-10.9329,-11.0804,-11.2005,-11.0494,-11.0388,-11.2966,-11.0234,-10.789,-10.7422,-10.5781,-10.3906,0.0,0.0,0.0,0.0,-11.0515,0.0,0.0,0.0,-11.333,-11.4022,-11.2637,-11.2175,-11.2714,-11.3791,-11.4561,-11.533,-11.6176,-11.6561,-11.6792,-11.7484,-11.8715,-12.0331,-12.2024,-12.287,-12.3178,-12.387,-12.339,-12.2472,-8.2813,-8.3558,-8.4437,-8.5655,-8.8632,-9.2421,-9.6886,-10.0743,-10.284,-10.1893,-10.4396,-10.6697,-10.7779,-11.2075,-11.5631,-11.7063,-12.0212,-12.2415,-12.3261,-12.3628,-12.3701,-12.3261,-12.1719,-11.9737,-11.7168,-11.0928,-10.6816,-10.5128,-9.9108,-9.6098,-9.6098,-9.6098,-9.5878,-9.5584,-9.6759,-9.7493,-9.786,-9.7052,0.0,-9.8521,-9.8888,-9.9989,-10.1531,-10.1531,-10.1531,-10.1384,-10.1017,-10.0796,-10.0882,-10.1275,-10.1981,-10.2874,-10.3725,-10.4205,-10.4866,-10.6476,-10.6713,-10.6482,-10.679,-10.7328,-10.7328,-10.602,-10.5713,-10.5482,-10.4636,-10.4174,-10.3791,-10.3434,-10.2904,-10.2482,-10.2199,-10.2789,0.0,0.0,-10.6328,-10.779,-10.8329,-10.979,-11.0999,-11.1361,-11.0092,-11.0026,-11.2071,-11.0933,-10.9609,-10.8672,-10.75,-10.5703,-10.3125,0.0,0.0,0.0,0.0,0.0,0.0,0.0,0.0,-11.4022,-11.2329,-11.2175,-11.3407,-11.3791,-11.4714,-11.5869,-11.633,-11.6792,-11.733,-11.8561,-11.9562,-12.0408,-12.1716,-12.2485,-12.287,-12.2793,-12.2361,-12.185,-8.39,-8.4899,-8.6223,-8.8249,-9.1985,-9.6007,-9.966,-10.3314,-10.4667,-10.2231,-10.284,-10.372,-10.4464,-11.0454,-11.4563,-11.5625,-11.9407,-12.1866,-12.2086,-12.2674,-12.2674,-12.1866,-12.0912,-11.893,-11.5773,-11.1001,-10.689,-10.3586,-9.9181,-9.6318,-9.4997,-9.5511,-9.5584,-9.529,-9.6098,-9.6832,0.0,0.0,-9.6539,-9.808,-9.7566,-9.8374,-9.9769,-9.9769,-9.9916,-9.9989,-9.9328,-9.9108,-9.9338,-10.0389,-10.1043,-10.1458,-10.2998,-10.3554,-10.4109,-10.593,-10.6328,-10.602,-10.5482,-10.5713,-10.579,-10.4328,-10.4174,-10.4174,-10.2712,-10.2866,-10.302,-10.1635,-10.1789,-10.2174,-10.1712,-10.2712,0.0,0.0,-10.6405,-10.8406,-10.8636,-11.0098,-11.0997,-11.0421,-11.0071,-11.0225,-11.0587,-11.0764,-11.039,-10.9062,-10.8593,-10.7187,-10.4922,-10.8515,-11.0624,0.0,0.0,-11.5674,-11.727,0.0,-11.4007,-11.4116,-11.2421,-11.2498,-11.4116,-11.3989,-11.4868,-11.6484,-11.6484,-11.6869,-11.7638,-11.91,-11.9869,-12.01,-12.1023,-12.187,-12.2485,-12.187,-12.1408,-12.1205,-8.5208,-8.7361,-8.9057,-9.0123,-9.4958,-9.8984,-9.9999,-10.2773,-10.5411,-10.7103,-10.6832,-10.6764,-10.7509,-11.0192,-11.2553,-11.4041,-11.832,-12.1279,-12.2086,-12.216,-12.1866,-12.0985,-11.9517,-11.7461,-11.4965,-11.0193,-10.6082,-10.2779,-9.9402,-9.6245,-9.3382,-9.5584,-9.5804,-9.441,0.0,0.0,0.0,-9.463,-9.5217,-9.4777,-9.5437,-9.6685,-9.808,-9.808,-9.8594,-9.9181,-9.9108,-9.9108,-9.9035,-9.8456,-9.9205,-10.0569,-10.1529,-10.2197,-10.3268,-10.57,-10.579,-10.5405,-10.6097,-10.579,-10.502,-10.4097,-10.3405,-10.2635,-10.1635,-10.1481,-10.1481,-10.1327,-10.1404,-10.1635,-10.2327,-10.2635,-10.302,0.0,0.0,-10.6867,-10.7713,-10.9329,-11.0072,-10.9569,-11.033,-11.0069,-10.8167,-11.0299,-11.0781,-10.8281,-10.8828,-10.8437,-10.6562,-10.9062,-11.0537,-11.0217,0.0,-11.5793,-11.7025,-11.4836,-11.3928,-11.4336,-11.2711,-11.2711,-11.438,-11.408,-11.4868,-11.6484,-11.6484,-11.6484,-11.6715,-11.7638,-11.8484,-11.9331,-12.01,-12.1023,-12.1716,-12.1562,-12.0562,-11.9433,-8.5566,-8.7791,-9.0028,-9.2312,-9.5903,-9.9322,-10.1893,-10.3314,-10.4464,-10.5817,-10.575,-10.6011,-10.7253,-10.9468,-11.1541,-11.2877,-11.6838,-11.9517,-11.9884,-12.0765,-12.0765,-11.9517,-11.8783,-11.7021,-11.4084,-11.1221,-10.7697,-10.3366,-10.1164,-9.8374,-9.529,-9.5731,-9.5364,0.0,0.0,-9.3088,-9.2574,-9.3088,-9.3675,-9.4336,-9.463,-9.5731,-9.7199,-9.7199,-9.7346,-9.764,-9.764,-9.764,-9.764,-9.7273,-9.7946,-9.9055,-10.0381,-10.1277,-10.2532,-10.4922,-10.5713,-10.5713,-10.5097,-10.4636,-10.4097,-10.2712,-10.2097,-10.1712,-10.1404,-10.1327,-10.1327,-10.1327,-10.1712,-10.2174,-10.2481,-10.3405,-10.4174,0.0,0.0,0.0,-10.7713,-10.8329,-10.8531,-10.7911,-10.743,-10.7109,-10.6841,-10.8499,-10.9609,-10.9609,-11.1328,-11.1015,-10.7734,-11.1015,0.0,-11.2014,0.0,-11.5765,-11.6826,-11.4662,-11.3405,-11.31,-11.1883,-11.1904,-11.2899,-11.381,-11.5087,-11.6484,-11.6484,-11.6484,-11.6561,-11.7407,-11.8331,-11.9177,-12.0023,-12.0793,-12.1485,-12.1023,-12.01,-11.9081,-8.5948,-8.8471,-9.1397,-9.4151,-9.7121,-10.0337,-10.3179,-10.3585,-10.3787,-10.4261,-10.4193,-10.4707,-10.6406,-10.8627,-11.0693,-11.2423,-11.5895,-11.8195,-11.8709,-11.959,-11.959,-11.8489,-11.8195,-11.6727,-11.3644,-11.2322,-10.9166,-10.432,-10.2632,-9.9989,-9.6318,-9.4997,0.0,0.0,-9.2354,-9.206,-9.2354,-9.1987,-9.2794,-9.4263,-9.4263,-9.529,-9.6685,-9.6685,-9.6685,-9.6759,-9.6979,-9.6906,-9.6759,-9.6979,-9.7273,-9.7874,-9.9731,-10.0952,-10.1996,-10.4418,-10.5713,-10.6097,-10.4636,-10.4097,-10.3482,-10.2097,-10.1327,-10.1019,-10.1173,-10.1096,-10.1096,-10.1635,-10.2404,-10.302,-10.302,-10.4405,-10.5405,-10.5097,0.0,0.0,0.0,-10.7482,-10.722,-10.6827,-10.6083,-10.5612,-10.5581,-10.7229,-10.8511,-10.9062,0.0,0.0,0.0,0.0,0.0,0.0,0.0,0.0,0.0,-11.4815,-11.3412,-11.2406,-11.1315,-11.1216,-11.2246,-11.4034,-11.5282,-11.6176,-11.6505,-11.6512,-11.628,-11.7206,-11.8208,-11.9168,-11.9453,-12.0177,-12.11,-12.0331,-11.9331,-11.8266,-8.6667,-9.0372,-9.3564,-9.5275,-9.9443,-10.2705,-10.3517,-10.3585,-10.3585,-10.3585,-10.2976,-10.3414,-10.5628,-10.7785,-11.0124,-11.2351,-11.5384,-11.7902,-11.9517,-11.8856,-11.8416,-11.8416,-11.7608,-11.6066,-11.3644,-11.2763,-10.9973,-10.5128,-10.3513,-10.0209,-9.5437,0.0,-9.184,-9.184,-9.184,-9.14,-9.0665,-9.1473,-9.2794,-9.4263,-9.4263,-9.529,-9.6685,-9.6685,-9.6685,-9.6832,-9.7566,-9.7346,-9.6832,-9.764,-9.7346,-9.7137,-9.958,-10.0952,-10.1996,-10.4418,-10.5713,-10.6174,-10.5328,-10.4482,-10.3712,-10.2789,-10.1327,-10.0327,-10.1096,-10.0712,-10.0558,-10.2174,-10.3328,-10.3866,-10.3866,-10.5328,-10.6097,-10.5174,0.0,0.0,0.0,-10.7021,-10.6526,-10.6827,-10.751,-10.6861,-10.4087,-10.6929,-10.7989,0.0,0.0,0.0,0.0,0.0,0.0,-11.1875,-11.5234,0.0,-11.6607,-11.5221,-11.3893,-11.2694,-11.0977,-11.1133,-11.2838,-11.4809,-11.5514,-11.5374,-11.6516,-11.6495,-11.5797,-11.6727,-11.8044,-11.9368,-11.832,-11.8792,-12.0177,-11.9408,-11.8023,-11.6573,-8.609,-8.9303,-9.2208,-9.3256,-9.726,-10.0405,-10.1216,-10.1284,-10.1487,-10.2028,-10.1419,-10.2221,-10.6057,-10.7616,-10.9446,-11.2248,-11.4415,-11.5993,-11.7094,-11.7388,-11.7608,-11.7608,-11.5822,-11.4023,-11.2135,-11.0304,-10.7827,-10.4563,0.0,0.0,0.0,-9.2941,-9.1767,-9.1767,-9.1253,-9.1106,-9.1473,-9.2354,-9.3308,-9.4336,-9.4923,-9.5731,-9.6685,-9.6685,-9.6685,-9.6759,-9.6979,-9.6906,-9.6759,-9.6979,-9.7285,-9.7701,-9.9013,-10.0424,-10.192,-10.3684,-10.5328,-10.6097,-10.4713,-10.4097,-10.3482,-10.2097,-10.0866,-10.0327,-10.1096,-10.1635,-10.202,-10.2481,-10.3712,-10.4713,-10.4713,-10.5636,-10.6328,-10.602,-10.6482,0.0,-10.602,0.0,-10.5216,-10.4273,-10.5101,-10.5301,-10.3864,-10.5979,0.0,0.0,0.0,0.0,0.0,0.0,0.0,0.0,-11.4375,0.0,-11.5224,-11.4061,-11.2811,-11.1315,-11.069,-11.1182,-11.2484,-11.3456,-11.4225,-11.4701,-11.573,-11.6112,-11.6028,-11.6883,-11.7831,-11.8551,-11.8176,-11.8677,-11.9299,-11.814,-11.7211,-11.6419,-8.5342,-8.8431,-9.1398,-9.2359,-9.6003,-9.8916,-9.966,-9.9796,-9.9999,-10.0472,-10.0066,-10.1264,-10.5102,-10.6446,0.0,-11.2143,-11.357,-11.4672,-11.5479,-11.5699,-11.5734,-11.5481,-11.3825,-11.1961,-11.0223,-10.8734,0.0,-10.4315,-10.2213,-9.9121,-9.4997,-9.3161,-9.2134,-9.1767,-9.1253,-9.1326,-9.184,-9.2721,-9.3529,-9.4336,-9.5217,-9.6025,-9.6685,-9.6685,-9.6685,-9.6759,-9.7419,-9.7199,-9.6759,-9.7419,-9.7727,-9.7964,-9.8772,-10.0369,-10.2175,-10.3541,-10.4866,-10.5636,-10.4328,-10.3866,-10.3482,-10.1712,-10.0712,-10.0327,-10.1096,-10.2481,-10.3482,-10.3482,-10.4866,-10.602,-10.5636,-10.6328,-10.679,-10.6482,-10.6405,-10.602,-10.4789,0.0,-10.352,-10.3142,0.0,0.0,0.0,-10.5979,-10.71,0.0,0.0,0.0,0.0,0.0,0.0,-11.3203,-11.3984,0.0,-11.4922,-11.3828,-11.2734,-11.1562,-11.0937,-11.1034,-11.1817,-11.2479,-11.329,-11.4016,-11.5026,-11.5612,-11.5871,-11.6629,-11.7478,-11.8315,-11.7749,-11.7908,-11.8214,-11.6975,-11.6005,-11.5273,-8.4624,-8.7684,-9.0554,0.0,-9.5407,0.0,-9.8848,-9.8916,-9.8916,-9.8984,-9.8984,-10.0078,-10.3136,-10.4695,-10.7437,-11.1759,0.0,0.0,0.0,-11.3864,-11.3166,-11.2482,-11.1659,-11.0151,-10.7868,-10.7686,-10.6485,-10.426,-10.0232,-9.686,-9.4334,-9.3529,-9.2648,-9.1767,-9.1767,-9.184,-9.1913,-9.2868,-9.3675,-9.4483,-9.529,-9.6098,-9.6685,-9.6685,-9.6685,-9.6906,-9.8374,-9.8007,-9.6906,-9.8447,-9.8466,-9.8105,-9.8922,-10.0852,-10.3011,-10.3744,-10.4482,-10.4866,-10.4097,-10.3866,-10.3405,-10.1712,-10.0789,-10.0481,-10.1173,-10.3405,-10.5174,-10.5174,-10.6482,-10.7405,-10.6636,-10.7021,-10.7328,-10.6405,-10.6174,-10.5636,-10.3866,-10.2327,-10.1747,0.0,0.0,0.0,-10.5024,-10.6617,-10.6669,0.0,0.0,0.0,0.0,0.0,-11.3125,-11.3125,-11.3984,-11.4922,-11.5625,-11.4062,-11.3203,-11.3125,-11.1406,-11.0807,-11.1138,-11.1916,-11.2608,-11.3181,-11.429,-11.5031,-11.5369,-11.5871,-11.713,-11.8461,-11.6982,-11.6633,-11.6771,-11.5875,-11.4677,-11.3628,0.0,0.0,-8.9083,-9.0629,-9.3488,-9.5939,-9.7225,-9.6954,-9.6954,-9.8104,-9.7766,-9.8716,-10.2305,-10.4033,-10.6057,-10.8727,-11.0682,-11.2102,-11.291,-11.2763,-11.2362,-11.1688,-10.9871,-10.8009,-10.646,-10.4728,-10.2885,-10.1073,-9.918,-9.6935,-9.4602,-9.359,-9.2648,-9.1767,-9.1767,-9.2134,-9.2868,-9.4336,-9.507,-9.5364,-9.6759,-9.7052,-9.6685,-9.6685,-9.6685,-9.6759,-9.7126,-9.7052,-9.6759,-9.7126,-9.8375,-9.9826,-10.0743,-10.2588,-10.4394,-10.398,-10.4482,-10.4866,-10.4097,-10.3405,-10.2635,-10.1635,-10.1712,-10.2097,-10.2174,-10.4328,-10.6097,-10.6097,-10.6867,-10.7405,-10.6636,-10.602,-10.5636,-10.5405,-10.4328,-10.3097,-10.2097,-10.1635,-10.1212,0.0,-10.2976,-10.4736,-10.4772,-10.6107,-10.7183,0.0,0.0,0.0,0.0,-11.1562,-11.2187,-11.2187,-11.3672,-11.4609,-11.4765,-11.4375,-11.3515,-11.2187,-11.1093,-11.0916,-11.1383,-11.1296,-11.1919,-11.2883,-11.3613,-11.4581,-11.5693,-11.6228,-11.6997,-11.7629,-11.6405,-11.5927,-11.5908,-11.4576,-11.3872,-11.3572,-8.3907,-8.6072,-8.8391,-9.0744,-9.3073,-9.4992,-9.5736,-9.5533,-9.5736,-9.6819,-9.715,-9.8426,-10.115,-10.3862,-10.6047,-10.7294,-10.9709,-11.1368,-11.1808,-11.1882,-11.1061,-10.9402,-10.8058,-10.6267,-10.3947,-10.3015,-10.1291,-9.8983,-9.8177,-9.6597,-9.4264,-9.4166,-9.3749,-9.2941,-9.2941,-9.3382,-9.4263,-9.5511,-9.6245,-9.6685,-9.7566,-9.764,-9.7199,-9.6832,-9.6685,-9.6759,-9.7126,-9.6979,-9.6909,-9.795,-9.9449,-10.1086,-10.2715,-10.4921,-10.679,-10.6328,-10.5713,-10.4866,-10.4097,-10.3328,-10.2481,-10.202,-10.2481,-10.3405,-10.4174,-10.602,-10.7405,-10.7098,-10.7713,-10.7867,-10.6636,-10.5713,-10.502,-10.4559,-10.3097,-10.1635,-10.0327,-10.0173,0.0,-10.0096,-10.2538,-10.4386,-10.5243,-10.6505,-10.7734,-10.8593,-10.8593,0.0,-11.1172,-11.1718,-11.2109,-11.25,-11.3437,-11.4297,-11.5078,-11.5078,-11.3828,-11.1328,-11.0781,-11.0534,-11.0275,-11.0496,-11.1213,-11.2237,-11.2914,-11.4198,-11.5702,-11.5816,-11.6164,-11.6773,-11.5919,-11.5188,-11.4599,-11.3405,-11.3221,-11.3396,-8.393,-8.5948,-8.821,-9.1397,-9.3362,-9.4586,-9.4721,-9.4721,-9.4992,-9.5669,-9.7219,-9.8665,-9.9853,-10.3862,-10.6536,-10.6273,-10.8916,-11.0717,-11.1221,-11.097,-10.9715,-10.6883,-10.6627,-10.4809,-10.1547,-10.169,-10.0541,-9.7737,-9.7393,-9.5925,-9.3759,-9.4974,-9.507,-9.4336,-9.441,-9.4923,-9.5731,-9.6604,-9.7337,-9.808,-9.7997,-9.7923,-9.7787,-9.6979,-9.6685,-9.6759,-9.7493,-9.7419,-9.7426,-9.9563,-10.1255,-10.2656,-10.5026,-10.7426,-10.9329,-10.9329,-10.7559,-10.5482,-10.4482,-10.3635,-10.2789,-10.2866,-10.3635,-10.4713,-10.6405,-10.8021,-10.8867,-10.8021,-10.8406,-10.8329,-10.6482,-10.5482,-10.4713,-10.3789,-10.2097,-10.0481,-9.9173,0.0,-9.9327,-10.0173,-10.2328,-10.4269,-10.5923,-10.727,-10.8202,-10.8437,-10.9218,-11.0078,-11.0937,-11.1797,-11.2578,-11.3437,-11.3437,-11.4062,-11.5625,-11.5625,-11.3984,-11.0781,-11.0703,-11.0068,-10.9212,-10.9661,-11.0608,-11.1564,-11.2169,-11.3789,-11.5702,-11.5065,-11.5418,-11.6073,-11.5399,-11.4422,-11.3317,-11.2361,-11.2592,-11.3203,-8.393,-8.5948,-8.821,-9.1397,-9.2961,-9.3977,-9.4586,-9.4721,-9.4992,-9.5669,-9.8111,-9.9745,-9.9368,-10.3181,-10.5425,-10.4067,-10.6093,-10.8519,-11.097,-10.9927,-10.8591,-10.6953,-10.5619,-10.3815,-10.1547,-9.966,-9.836,-9.7737,-9.6831,-9.5712,-9.454,-9.5188,-9.507,-9.4336,-9.4997,-9.5804,-9.6535,-9.7537,-9.8359,-9.8882,-9.8408,-9.8068,-9.7787,-9.6979,-9.6685,-9.6685,-9.6832,-9.7713,-9.8897,-9.9935,-10.2755,-10.5982,-10.7767,-10.9572,-11.1098,-11.1098,-10.979,-10.8021,-10.6405,-10.4866,-10.3866,-10.4482,-10.5405,-10.6482,-10.8098,-10.9329,-10.979,-10.8867,-10.879,-10.8175,-10.5713,-10.4636,-10.3789,-10.2866,-10.0789,-9.9327,-9.9788,0.0,-10.0173,-10.1019,-10.3527,-10.5722,-10.6935,-10.8107,-10.9181,-11.0078,-11.1015,-11.1875,-11.2734,-11.3593,-11.4218,-11.4297,-11.4297,-11.4375,-11.4687,-11.4687,-11.3672,-11.1718,-11.1015,-11.0468,-11.0308,-10.9472,-11.0105,-11.1792,-11.1737,-11.3164,-11.5702,-11.5065,-11.5418,-11.6073,-11.4703,-11.3494,-11.2361,-11.1505,-11.1968,-11.3281,-8.3579,-8.5228,-8.7373,-9.1469,-9.2625,-9.3233,-9.3977,-9.4451,-9.4992,-9.5669,-9.8593,-10.0265,-9.9164,-10.328,-10.5429,-10.3695,-10.5468,-10.7382,-10.8719,-10.8215,-10.7169,-10.5733,-10.4994,-10.3436,-10.0743,-9.8578,-9.6775,-9.5503,-9.603,-9.5568,-9.4372,-9.604,-9.6832,-9.6906,-9.7273,-9.7472,-9.7548,-9.8049,-9.8426,-9.8566,-9.7905,-9.7766,-9.7787,-9.6979,-9.6685,-9.6759,-9.7199,-9.808,-9.9416,-10.16,-10.4192,-10.701,-11.0016,-11.1492,-11.2175,-11.2714,-11.0714,-10.8021,-10.6713,-10.579,-10.5636,-10.679,-10.7405,-10.8175,-10.9867,-11.0637,-11.0483,-10.9175,-10.8636,-10.7636,-10.5482,-10.4097,-10.2866,-10.202,-10.0173,0.0,0.0,-9.9788,-10.0712,-10.2481,-10.5237,-10.726,-10.8233,-10.9108,-10.9993,-11.0983,-11.1636,-11.25,-11.3828,-11.4687,-11.4922,-11.4531,-11.4531,-11.4297,-11.3828,-11.4297,-11.3437,-11.1172,-11.0781,-11.0078,-10.9218,-10.9128,-10.96,-11.0468,-11.1393,-11.2864,-11.4797,-11.4858,-11.499,-11.5114,-11.3815,-11.2643,-11.1505,-11.0671,-11.1578,-11.3281,-8.351,-8.5053,-8.7162,-9.1615,-9.2421,-9.2692,-9.3436,-9.4383,-9.5195,-9.5736,-9.893,-10.053,-9.9288,-10.3,-10.4898,-10.3225,-10.46,-10.5636,-10.5846,-10.5846,-10.5389,-10.457,-10.3935,-10.2467,-10.0202,-9.7834,-9.5909,-9.4359,-9.5542,-9.5755,-9.4787,-9.7268,-9.8668,-9.9108,-9.9302,-9.9087,-9.8506,-9.8318,-9.8339,-9.8434,-9.73,-9.7295,-9.7787,-9.7199,-9.7126,-9.7346,-9.8154,-9.9181,-10.0671,-10.3786,-10.6087,-10.8357,-11.212,-11.333,-11.3407,-11.3868,-11.1406,-10.8329,-10.7328,-10.7098,-10.7636,-10.9098,-10.9637,-11.0175,-11.1714,-11.1945,-11.1329,-10.9637,-10.8482,-10.7405,-10.5482,-10.402,-10.2789,-10.1789,0.0,0.0,0.0,-10.0712,-10.2174,-10.4789,-10.7062,-10.9007,-11.0111,-11.0394,-11.1027,-11.1864,-11.2227,-11.3118,-11.4602,-11.5311,-11.5312,-11.437,-11.4296,-11.3906,-11.3203,-11.3906,-11.2968,-11.0625,-11.039,-10.9375,-10.7734,-10.8437,-10.8828,-10.9062,-11.0781,-11.2483,-11.4009,-11.4431,-11.4525,-11.4293,-11.2967,-11.1892,-11.0904,-11.042,-11.1612,-11.3593,-8.4407,-8.6265,-8.846,-9.18,-9.2421,-9.2692,-9.3436,-9.4789,-9.5736,-9.5804,-9.8984,-10.0642,-9.93,-10.1302,-10.2347,-10.1597,-10.1733,-10.2072,-10.2819,-10.2819,-10.3383,-10.4451,-10.2016,-10.0395,-10.0202,-9.736,-9.6042,-9.6339,-9.6269,-9.6518,-9.6991,-9.9057,-9.9769,-9.9102,-10.0064,-10.0111,-9.9189,-9.8269,-9.8367,-9.9136,-9.7064,-9.694,-9.786,-9.7787,-9.83,-9.9035,-9.9842,-10.1604,-10.3985,-10.6565,-10.9107,-11.1537,-11.4191,-11.5099,-11.5022,-11.4176,-11.2714,-11.0868,-10.9175,-10.9329,-11.0098,-11.1098,-11.1868,-11.2714,-11.3637,-11.3176,-11.2099,-11.0483,-10.9406,-10.8098,-10.5559,-10.502,-10.4405,-10.2789,0.0,0.0,-10.3405,-10.4174,-10.5713,-10.8175,-10.9371,-11.0806,-11.2711,-11.222,-11.2165,-11.3395,-11.3723,-11.4287,-11.5223,-11.5611,-11.5302,-11.413,-11.3584,-11.3281,-11.3203,-11.3281,-11.2422,-11.0625,-10.9765,-10.8515,-10.6797,-10.6875,-10.7265,-10.8203,-10.9922,-11.2014,-11.4009,-11.3808,-11.3981,-11.4171,-11.2556,-11.1593,-11.1003,-11.1305,-11.2695,-11.4531,-8.2685,-8.5154,-8.7786,-9.0568,-9.1406,-9.2015,-9.2759,-9.418,-9.5263,-9.5736,-9.7768,-9.894,-9.8431,-9.9965,-10.0938,-10.0666,-10.1081,-10.169,-10.2502,-10.2502,-10.2691,-10.3257,-10.1868,-10.0472,-9.9525,-9.7969,-9.6724,-9.5868,-9.6652,-9.7231,-9.7961,-9.9577,-10.0723,-10.1303,-10.0775,-10.0299,-9.9581,-9.7883,-9.7254,-9.7302,-9.6038,-9.6419,-9.7933,-9.8447,-9.9108,-10.0062,-10.1898,-10.3439,-10.509,-10.8217,-11.024,-11.1853,-11.4497,-11.4868,-11.433,-11.3407,-11.2368,-11.1411,-11.1319,-11.1483,-11.2099,-11.3483,-11.3714,-11.3714,-11.4561,-11.4099,-11.3022,-11.1406,-11.0329,-10.9098,-10.7098,-10.6328,-10.5713,-10.5097,0.0,-10.4636,-10.6097,-10.6482,-10.7713,-11.0175,-11.1714,-11.2877,-11.3622,-11.3149,-11.2809,-11.3301,-11.3083,-11.3317,-11.4174,-11.441,-11.4176,-11.3784,-11.2715,-11.2071,-11.2071,-11.2261,-11.1484,-10.9765,-10.8906,-10.789,-10.6719,-10.6719,-10.7187,-10.8125,-10.9666,-11.13,-11.2892,-11.2686,-11.2932,-11.3198,-11.1748,-11.1078,-11.1003,-11.1396,-11.278,-11.4609,-8.1662,-8.4729,-8.7579,-8.9488,-9.0459,-9.1203,-9.1947,-9.3368,-9.4518,-9.506,-9.6345,-9.7193,-9.7279,-9.8326,-9.9316,-9.9853,-10.0608,-10.1419,-10.2434,-10.2502,-10.2502,-10.2502,-10.1758,-10.0811,-9.9457,-9.851,-9.7167,-9.5547,-9.7148,-9.7892,-9.8124,-9.9933,-10.1173,-10.2049,-10.0851,-10.0108,-9.9534,-9.7529,-9.6858,-9.6904,-9.6126,-9.6922,-9.8741,-9.9548,-10.0723,-10.2118,-10.4027,-10.5422,-10.671,-10.9875,-11.1308,-11.2232,-11.4881,-11.4887,-11.3903,-11.3289,-11.2488,-11.2,-11.2762,-11.335,-11.3791,-11.5022,-11.5022,-11.4868,-11.5484,-11.5022,-11.4022,-11.2637,-11.1406,-11.0175,-10.8713,-10.779,-10.7098,-10.679,-10.6713,-10.7098,-10.8329,-10.8867,-11.0098,-11.2406,-11.3714,-11.4484,-11.4791,-11.4201,-11.3773,-11.3851,-11.3116,-11.2837,-11.3161,-11.3405,-11.3177,-11.2711,-11.1666,-11.0995,-11.0603,-11.1228,-11.0781,-10.9297,-10.8437,-10.75,-10.6719,-10.6719,-10.7031,-10.7734,-10.9394,-11.0808,-11.1872,-11.1924,-11.2299,-11.2696,-11.1569,-11.1492,-11.1992,-11.2335,-11.358,-11.539,-8.1723,-8.5233,-8.8226,-8.897,-8.9715,-9.0459,-9.1203,-9.2556,-9.3571,-9.3571,-9.4857,-9.5736,-9.5804,-9.6413,-9.7495,-9.8984,-9.9796,-10.0878,-10.2434,-10.2502,-10.2502,-10.2502,-10.1758,-10.1014,-10.0202,-9.8781,-9.7292,-9.5804,-9.7846,-9.8348,-9.7569,-10.047,-10.139,-10.0649,-10.0165,-9.965,-9.88,-9.7542,-9.7562,-9.8531,-9.7753,-9.8575,-10.0429,-10.1164,-10.2999,-10.5201,-10.6082,-10.7477,-10.914,-11.1751,-11.259,-11.3064,-11.5724,-11.5292,-11.3876,-11.3876,-11.3342,-11.2905,-11.3723,-11.4629,-11.533,-11.533,-11.5869,-11.6484,-11.6484,-11.5869,-11.5099,-11.4176,-11.2714,-11.1329,-11.0406,-10.9483,-10.8713,-10.7867,-10.9098,-11.0175,-11.0175,-11.1714,-11.3407,-11.5099,-11.533,-11.5561,-11.6407,-11.5792,-11.533,-11.533,-11.3968,-11.2854,-11.2283,-11.2941,-11.2389,-11.0685,-11.0608,-10.9858,-10.8471,-10.987,-11.0234,-10.9297,-10.8437,-10.75,-10.6719,-10.6719,-10.6719,-10.6874,-10.916,-11.0496,-11.1094,-11.1613,-11.2389,-11.3119,-11.2502,-11.3005,-11.3974,-11.4368,-11.5625,-11.7031,-8.2491,-8.596,-8.8835,-8.9038,-8.9715,-9.0256,-9.0527,-9.1338,-9.215,-9.2692,-9.2692,-9.3233,-9.4857,-9.5195,-9.6345,-9.8848,-9.9796,-10.0878,-10.2434,-10.2502,-10.2502,-10.2502,-10.2299,-10.1622,-10.0202,-9.9796,-9.9003,-9.7999,-9.8514,-9.8656,-9.8419,-9.9712,-10.0266,-10.0124,-9.9523,-9.9511,-9.9719,-9.8228,-9.7901,-9.8632,-9.8825,-10.0107,-10.2118,-10.3513,-10.562,-10.788,-10.9289,-11.0105,-11.0939,-11.3518,-11.4009,-11.3897,-11.5878,-11.5675,-11.4715,-11.4104,-11.3249,-11.2797,-11.3708,-11.4115,-11.4732,-11.5778,-11.633,-11.6484,-11.6484,-11.5869,-11.5176,-11.5022,-11.4022,-11.3176,-11.2868,-11.2714,-11.2175,-11.1329,-11.2099,-11.2868,-11.2868,-11.3791,-11.4868,-11.6022,-11.6099,-11.6176,-11.6484,-11.5792,-11.533,-11.533,-11.3808,-11.2812,-11.2578,-11.2195,-11.1499,-11.042,-10.9901,-10.9315,-10.8471,-10.9081,-10.9119,-10.8437,-10.75,-10.7031,-10.6719,-10.7265,-10.789,-10.8593,-11.007,-11.151,-11.2705,-11.1293,-11.2037,-11.3893,-11.2813,-11.3412,-11.4911,-11.4602,-11.5625,-11.6875,-8.2363,-8.563,-8.8294,-8.8564,-8.9038,-8.9444,-8.9715,-9.0391,-9.1,-9.1474,-9.1406,-9.1947,-9.3639,-9.4315,-9.5669,-9.8037,-9.9728,-10.1216,-10.2434,-10.2502,-10.2502,-10.2502,-10.2231,-10.1487,-10.0202,-10.0202,-9.9547,-9.818,-9.8687,-9.8666,-9.8376,-9.9042,-9.9463,-9.9463,-9.8756,-9.9009,-9.9581,-9.868,-9.8866,-9.999,-10.0536,-10.2389,-10.4745,-10.6075,-10.8184,-11.0489,-11.1463,-11.1987,-11.2577,-11.4617,-11.506,-11.5136,-11.5804,-11.5413,-11.4497,-11.3657,-11.3174,-11.3174,-11.3829,-11.4409,-11.5165,-11.6163,-11.6484,-11.6484,-11.6484,-11.5869,-11.5407,-11.5715,-11.4791,-11.4099,-11.4484,-11.4022,-11.3407,-11.3176,-11.3714,-11.4099,-11.4484,-11.5176,-11.6022,-11.6407,-11.6484,-11.6484,-11.6484,-11.6099,-11.5561,-11.533,-11.4022,-11.2868,-11.2329,-11.1406,-11.0406,-10.9175,-10.9186,-10.8918,-10.8309,-10.929,-10.929,-10.8515,-10.7969,-10.789,-10.8281,-10.8828,-10.9531,-11.039,-11.1266,-11.2537,-11.3671,-11.2466,-11.3057,-11.4727,-11.4216,-11.4777,-11.5904,-11.5622,-11.6328,-11.7422,-8.1915,-8.4771,-8.7211,-8.7955,-8.8091,-8.8294,-8.897,-8.9647,-9.0121,-9.0121,-9.0662,-9.1406,-9.2218,-9.3706,-9.5195,-9.6751,-9.966,-10.169,-10.2502,-10.2502,-10.2502,-10.2502,-10.1758,-10.1014,-10.0202,-10.0134,-9.9119,-9.6954,-9.8249,-9.8455,-9.7763,-9.8524,-9.8756,-9.8687,-9.8104,-9.8275,-9.8983,-9.9069,-10.0201,-10.2204,-10.313,-10.5338,-10.7963,-10.8932,-11.0701,-11.2797,-11.2872,-11.3401,-11.4135,-11.4811,-11.5702,-11.6224,-11.5413,-11.4526,-11.3603,-11.2814,-11.3183,-11.3873,-11.3873,-11.5248,-11.6484,-11.6484,-11.6484,-11.6484,-11.6484,-11.5869,-11.5484,-11.633,-11.5176,-11.4407,-11.5176,-11.4099,-11.333,-11.4022,-11.4176,-11.4484,-11.5176,-11.6022,-11.6484,-11.6484,-11.6484,-11.6484,-11.6484,-11.6484,-11.6176,-11.5484,-11.4561,-11.3407,-11.1791,-11.0868,-10.9713,-10.8098,-10.879,-10.8878,-10.8439,-11.0301,-11.0589,-10.953,-10.9609,-11.0078,-11.0781,-11.0937,-11.1406,-11.2187,-11.2838,-11.3485,-11.4411,-11.4761,-11.5282,-11.5682,-11.6384,-11.6763,-11.7109,-11.7031,-11.7578,-11.8203,-8.3195,-8.5894,-8.8023,-8.87,-8.8835,-8.8903,-8.9038,-8.9241,-8.9309,-8.9309,-8.9444,-9.0053,-9.1406,-9.2895,-9.4654,-9.6683,-9.966,-10.169,-10.2502,-10.2502,-10.2502,-10.2502,-10.1758,-10.1014,-10.0202,-9.966,-9.8848,-9.7766,-9.8065,-9.7779,-9.7099,-9.7847,-9.7847,-9.7303,-9.7144,-9.8071,-9.9902,-9.9744,-10.1262,-10.3978,-10.5891,-10.796,-10.9752,-11.1221,-11.3001,-11.4717,-11.5402,-11.5326,-11.4811,-11.4326,-11.4769,-11.5282,-11.4526,-11.3458,-11.2814,-11.2586,-11.3183,-11.3873,-11.3873,-11.5248,-11.6484,-11.6484,-11.6484,-11.6484,-11.6484,-11.5869,-11.5484,-11.633,-11.5715,-11.533,-11.6099,-11.5869,-11.5484,-11.5099,-11.5484,-11.5792,-11.5407,-11.6022,-11.6484,-11.6484,-11.6484,-11.6484,-11.6484,-11.6484,-11.6407,-11.633,-11.5484,-11.4561,-11.3483,-11.2637,-11.1714,-11.0714,-11.0791,-11.096,-11.1118,-11.1676,-11.168,-11.1026,-11.1868,-11.25,-11.2734,-11.3281,-11.3828,-11.3984,-11.518,-11.6217,-11.6986,-11.6182,-11.6919,-11.8168,-11.7087,-11.7232,-11.789,-11.7265,-11.7578,-11.8672,-8.3681,-8.5965,-8.7617,-8.7955,-8.8361,-8.8564,-8.8564,-8.8835,-8.9106,-8.9106,-8.9106,-8.9647,-9.1135,-9.2692,-9.4924,-9.8172,-10.0269,-10.169,-10.2502,-10.2502,-10.2299,-10.2028,-10.1216,-10.0472,-9.9728,-9.8984,-9.8375,-9.8037,-9.8037,-9.7834,-9.7428,-9.7834,-9.7766,-9.7428,-9.7678,-9.8894,-10.0548,-10.1233,-10.286,-10.5449,-10.7872,-10.9751,-11.1451,-11.2759,-11.3934,-11.5269,-11.5681,-11.5802,-11.5588,-11.4761,-11.4805,-11.4919,-11.3609,-11.2963,-11.2431,-11.1946,-11.2739,-11.3873,-11.3873,-11.5248,-11.6484,-11.6484,-11.6484,-11.6484,-11.6484,-11.5869,-11.5484,-11.633,-11.5869,-11.5484,-11.6407,-11.6176,-11.5869,-11.5869,-11.5869,-11.5869,-11.5869,-11.6176,-11.6484,-11.6484,-11.6484,-11.6484,-11.6484,-11.6484,-11.6484,-11.6484,-11.5792,-11.4868,-11.4022,-11.3176,-11.2329,-11.1483,-11.1868,-11.2071,-11.2271,-11.3462,-11.4178,-11.4302,-11.4431,-11.4609,-11.5,-11.5937,-11.6797,-11.7578,-11.8267,-11.9112,-11.9887,-11.8902,-11.8834,-11.9268,-11.7862,-11.7802,-11.8203,-11.7812,-11.8437,-12.0,-8.3789,-8.5671,-8.6738,-8.6873,-8.7414,-8.782,-8.7955,-8.8497,-8.897,-8.9038,-8.9106,-8.9647,-9.1135,-9.303,-9.5804,-9.9863,-10.0878,-10.169,-10.2502,-10.2367,-10.2028,-10.1419,-10.0405,-9.9593,-9.9119,-9.824,-9.7901,-9.8037,-9.8037,-9.8037,-9.8037,-9.8037,-9.8092,-9.8391,-9.8803,-9.9981,-10.1802,-10.2886,-10.4761,-10.7381,-10.96,-11.1381,-11.2892,-11.3844,-11.4526,-11.4963,-11.5194,-11.5835,-11.6295,-11.5178,-11.4958,-11.4742,-11.2884,-11.2343,-11.2257,-11.1484,-11.2505,-11.3873,-11.3873,-11.5248,-11.6484,-11.6484,-11.6484,-11.6484,-11.6484,-11.6022,-11.5715,-11.6407,-11.6022,-11.5715,-11.6407,-11.6022,-11.5715,-11.6407,-11.5869,-11.5715,-11.6407,-11.6484,-11.6484,-11.6484,-11.6561,-11.6792,-11.6869,-11.6792,-11.6792,-11.6869,-11.6099,-11.5176,-11.4484,-11.3637,-11.2791,-11.2175,-11.2868,-11.333,-11.333,-11.5706,-11.7208,-11.7775,-11.7296,-11.7265,-11.789,-11.8828,-12.0078,-12.1562,-12.1718,-12.2109,-12.2578,-12.1718,-12.0703,-11.9687,-11.8672,-11.8281,-11.8281,-11.8515,-11.9687,-12.1718,-8.3723,-8.5203,-8.6129,-8.6805,-8.7008,-8.7279,-8.7888,-8.8091,-8.8361,-8.897,-8.9106,-8.9647,-9.1135,-9.4383,-9.7428,-9.9999,-10.0878,-10.169,-10.2502,-10.1893,-10.1487,-10.1352,-9.939,-9.8578,-9.9051,-9.7766,-9.736,-9.8037,-9.8037,-9.8037,-9.8037,-9.8037,-9.8633,-9.9723,-9.919,-10.1188,-10.49,-10.4441,-10.6678,-11.0718,-11.1822,-11.2826,-11.3789,-11.4693,-11.4573,-11.4297,-11.5534,-11.6741,-11.698,-11.4684,-11.4378,-11.452,-11.2122,-11.1925,-11.2279,-11.1368,-11.2505,-11.3873,-11.3873,-11.5248,-11.6484,-11.6484,-11.6484,-11.6484,-11.6484,-11.6407,-11.6407,-11.6484,-11.6407,-11.6407,-11.6484,-11.6407,-11.6407,-11.6484,-11.6407,-11.6407,-11.6484,-11.6484,-11.6484,-11.6484,-11.7176,-11.7869,-11.8715,-11.81,-11.7869,-11.8715,-11.733,-11.633,-11.6176,-11.5407,-11.4868,-11.4791,-11.5561,-11.6022,-11.6022,-11.8267,-11.9465,-11.9721,-12.1521,-12.2109,-12.1484,-12.2422,-12.3281,-12.4297,-12.5,-12.5,-12.4375,-12.3515,-12.2187,-12.0625,-11.8906,-11.8281,-11.8437,-11.9062,-12.1015,-12.3437,-8.3886,-8.522,-8.5723,-8.5655,-8.6332,-8.6873,-8.6805,-8.7144,-8.7685,-8.8361,-8.8497,-8.9173,-9.1068,-9.4654,-9.7766,-9.9999,-10.0878,-10.1487,-10.1893,-10.1555,-10.1014,-10.0202,-9.9119,-9.8375,-9.7834,-9.7631,-9.7495,-9.736,-9.736,-9.7563,-9.7969,-9.7563,-9.8344,-10.0066,-10.061,-10.245,-10.5619,-10.6507,-10.8258,-11.068,-11.2648,-11.3226,-11.3181,-11.4135,-11.394,-11.3335,-11.4371,-11.5627,-11.6356,-11.4826,-11.4656,-11.4484,-11.25,-11.2102,-11.2176,-11.1441,-11.2505,-11.3873,-11.3873,-11.5248,-11.6484,-11.6484,-11.6484,-11.6484,-11.6484,-11.6484,-11.6484,-11.6484,-11.6484,-11.6484,-11.6484,-11.6869,-11.7176,-11.7176,-11.7176,-11.7176,-11.7176,-11.6792,-11.6715,-11.7176,-11.8023,-11.8715,-11.91,-11.8792,-11.8715,-11.91,-11.8407,-11.8023,-11.8023,-11.7561,-11.7407,-11.7407,-11.7792,-11.8023,-11.8023,-11.9276,-12.0477,-12.1434,-12.3785,-12.4531,-12.3672,-12.4531,-12.5625,-12.6875,-12.6797,-12.6484,-12.6093,-12.4218,-12.25,-12.0703,-11.8984,-11.8593,-11.9218,-12.1093,-12.2812,-12.4375]},{"header":{"parameterUnit":"m.s-1","parameterCategory":1,"la1":30.6,"la2":28.766,"lo1":-90.7593,"lo2":-88.6598,"dy":0.0162,"dx":0.0183,"nx":116,"ny":114,"refTime":"2024-04-09T06:00:00:Z","depth":0,"parameterNumber":3,"parameterNumberName":"V-component_of_WINDS"},"data":[0.0,0.0,0.0,0.0,0.0,0.0,0.0,0.0,0.0,0.0,0.0,0.0,0.0,0.0,0.0,0.0,0.0,0.0,0.0,0.0,0.0,0.0,0.0,0.0,0.0,0.0,0.0,0.0,0.0,0.0,0.0,0.0,0.0,0.0,0.0,0.0,0.0,0.0,0.0,0.0,0.0,0.0,0.0,0.0,0.0,0.0,0.0,0.0,0.0,0.0,0.0,0.0,0.0,0.0,0.0,0.0,0.0,0.0,0.0,0.0,0.0,0.0,0.0,0.0,0.0,0.0,0.0,0.0,0.0,0.0,0.0,0.0,0.0,0.0,0.0,0.0,0.0,0.0,0.0,0.0,0.0,0.0,0.0,0.0,0.0,0.0,0.0,0.0,0.0,0.0,0.0,0.0,0.0,0.0,0.0,0.0,0.0,0.0,0.0,0.0,0.0,0.0,0.0,0.0,0.0,0.0,0.0,0.0,0.0,0.0,0.0,0.0,0.0,0.0,0.0,0.0,0.0,0.0,0.0,0.0,0.0,0.0,0.0,0.0,0.0,0.0,0.0,0.0,0.0,0.0,0.0,0.0,0.0,0.0,0.0,0.0,0.0,0.0,0.0,0.0,0.0,0.0,0.0,0.0,0.0,0.0,0.0,0.0,0.0,0.0,0.0,0.0,0.0,0.0,0.0,0.0,0.0,0.0,0.0,0.0,0.0,0.0,0.0,0.0,0.0,0.0,0.0,0.0,0.0,0.0,0.0,0.0,0.0,0.0,0.0,0.0,0.0,0.0,0.0,0.0,0.0,0.0,0.0,0.0,0.0,0.0,0.0,0.0,0.0,0.0,0.0,0.0,0.0,0.0,0.0,0.0,0.0,0.0,0.0,0.0,0.0,0.0,0.0,0.0,0.0,0.0,0.0,0.0,0.0,0.0,0.0,0.0,0.0,0.0,0.0,0.0,0.0,0.0,0.0,0.0,0.0,0.0,0.0,0.0,0.0,0.0,0.0,0.0,0.0,0.0,0.0,0.0,0.0,0.0,0.0,0.0,0.0,0.0,0.0,0.0,0.0,0.0,0.0,0.0,0.0,0.0,0.0,0.0,0.0,0.0,0.0,0.0,0.0,0.0,0.0,0.0,0.0,0.0,0.0,0.0,0.0,0.0,0.0,0.0,0.0,0.0,0.0,0.0,0.0,0.0,0.0,0.0,0.0,0.0,0.0,0.0,0.0,0.0,0.0,0.0,0.0,0.0,0.0,0.0,0.0,0.0,0.0,0.0,0.0,0.0,0.0,0.0,0.0,0.0,0.0,0.0,0.0,0.0,0.0,0.0,0.0,0.0,0.0,0.0,0.0,0.0,0.0,0.0,0.0,0.0,0.0,0.0,0.0,0.0,0.0,0.0,0.0,0.0,0.0,0.0,0.0,0.0,0.0,0.0,0.0,0.0,0.0,0.0,0.0,0.0,0.0,0.0,0.0,0.0,0.0,0.0,0.0,0.0,0.0,0.0,0.0,0.0,0.0,0.0,0.0,0.0,0.0,0.0,0.0,0.0,0.0,0.0,0.0,0.0,0.0,0.0,0.0,0.0,0.0,0.0,0.0,0.0,0.0,0.0,0.0,0.0,0.0,0.0,0.0,0.0,0.0,0.0,0.0,0.0,0.0,0.0,0.0,0.0,0.0,0.0,0.0,0.0,0.0,0.0,0.0,0.0,0.0,0.0,0.0,0.0,0.0,0.0,0.0,0.0,0.0,0.0,0.0,0.0,0.0,0.0,0.0,0.0,0.0,0.0,0.0,0.0,0.0,0.0,0.0,0.0,0.0,0.0,0.0,0.0,0.0,0.0,0.0,0.0,0.0,0.0,0.0,0.0,0.0,0.0,0.0,0.0,0.0,0.0,0.0,0.0,0.0,0.0,0.0,0.0,0.0,0.0,0.0,0.0,0.0,0.0,0.0,0.0,0.0,0.0,0.0,0.0,0.0,0.0,0.0,0.0,0.0,0.0,0.0,0.0,0.0,0.0,0.0,0.0,0.0,0.0,0.0,0.0,0.0,0.0,0.0,0.0,0.0,0.0,0.0,0.0,0.0,0.0,0.0,0.0,0.0,0.0,0.0,0.0,0.0,0.0,0.0,0.0,0.0,0.0,0.0,0.0,0.0,0.0,0.0,0.0,0.0,0.0,0.0,0.0,0.0,0.0,0.0,0.0,0.0,0.0,0.0,0.0,0.0,0.0,0.0,0.0,0.0,0.0,0.0,0.0,0.0,0.0,0.0,0.0,0.0,0.0,0.0,0.0,0.0,0.0,0.0,0.0,0.0,0.0,0.0,0.0,0.0,0.0,0.0,0.0,0.0,0.0,0.0,0.0,0.0,0.0,0.0,0.0,0.0,0.0,0.0,0.0,0.0,0.0,0.0,0.0,0.0,0.0,0.0,0.0,0.0,0.0,0.0,0.0,0.0,0.0,0.0,0.0,0.0,0.0,0.0,0.0,0.0,0.0,0.0,0.0,0.0,0.0,0.0,0.0,0.0,0.0,0.0,0.0,0.0,0.0,0.0,0.0,0.0,0.0,0.0,0.0,0.0,0.0,0.0,0.0,0.0,0.0,0.0,0.0,0.0,0.0,0.0,0.0,0.0,0.0,0.0,0.0,0.0,0.0,0.0,0.0,0.0,0.0,0.0,0.0,0.0,0.0,0.0,0.0,0.0,0.0,0.0,0.0,0.0,0.0,0.0,0.0,0.0,0.0,0.0,0.0,0.0,0.0,0.0,0.0,0.0,0.0,0.0,0.0,0.0,0.0,0.0,0.0,0.0,0.0,0.0,0.0,0.0,0.0,0.0,0.0,0.0,0.0,0.0,0.0,0.0,0.0,0.0,0.0,0.0,0.0,0.0,0.0,0.0,0.0,0.0,0.0,0.0,0.0,0.0,0.0,0.0,0.0,0.0,0.0,0.0,0.0,0.0,0.0,0.0,0.0,0.0,0.0,0.0,0.0,0.0,0.0,0.0,0.0,0.0,0.0,0.0,0.0,0.0,0.0,0.0,0.0,0.0,0.0,0.0,0.0,0.0,0.0,0.0,0.0,0.0,0.0,0.0,0.0,0.0,0.0,0.0,0.0,0.0,0.0,0.0,0.0,0.0,0.0,0.0,0.0,0.0,0.0,0.0,0.0,0.0,0.0,0.0,0.0,0.0,0.0,0.0,0.0,0.0,0.0,0.0,0.0,0.0,0.0,0.0,0.0,0.0,0.0,0.0,0.0,0.0,0.0,0.0,0.0,0.0,0.0,0.0,0.0,0.0,0.0,0.0,0.0,0.0,0.0,0.0,0.0,0.0,0.0,0.0,0.0,0.0,0.0,0.0,0.0,0.0,0.0,0.0,0.0,0.0,0.0,0.0,0.0,0.0,0.0,0.0,0.0,0.0,0.0,0.0,0.0,0.0,0.0,0.0,0.0,0.0,0.0,0.0,0.0,0.0,0.0,0.0,0.0,0.0,0.0,0.0,0.0,0.0,0.0,0.0,0.0,0.0,0.0,0.0,0.0,0.0,0.0,0.0,0.0,0.0,0.0,0.0,0.0,0.0,0.0,0.0,0.0,0.0,0.0,0.0,0.0,0.0,0.0,0.0,0.0,0.0,0.0,0.0,0.0,0.0,0.0,0.0,0.0,0.0,0.0,0.0,0.0,0.0,0.0,0.0,0.0,0.0,0.0,0.0,0.0,0.0,0.0,0.0,0.0,0.0,0.0,0.0,0.0,0.0,0.0,0.0,0.0,0.0,0.0,0.0,0.0,0.0,0.0,0.0,0.0,0.0,0.0,0.0,0.0,0.0,0.0,0.0,0.0,0.0,0.0,0.0,0.0,0.0,0.0,0.0,0.0,0.0,0.0,0.0,0.0,0.0,0.0,0.0,0.0,0.0,0.0,0.0,0.0,0.0,0.0,0.0,0.0,0.0,0.0,0.0,0.0,0.0,0.0,0.0,0.0,0.0,0.0,0.0,0.0,0.0,0.0,0.0,0.0,0.0,0.0,0.0,0.0,0.0,0.0,0.0,0.0,0.0,0.0,0.0,0.0,0.0,0.0,0.0,0.0,0.0,0.0,0.0,0.0,0.0,0.0,0.0,0.0,0.0,0.0,0.0,0.0,0.0,0.0,0.0,0.0,0.0,0.0,0.0,0.0,0.0,0.0,0.0,0.0,0.0,0.0,0.0,0.0,0.0,0.0,0.0,0.0,0.0,0.0,0.0,0.0,0.0,0.0,0.0,0.0,0.0,0.0,0.0,0.0,0.0,0.0,0.0,0.0,0.0,0.0,0.0,0.0,0.0,0.0,0.0,0.0,0.0,0.0,0.0,0.0,0.0,0.0,0.0,0.0,0.0,0.0,0.0,0.0,0.0,0.0,0.0,0.0,0.0,0.0,0.0,0.0,0.0,0.0,0.0,0.0,0.0,0.0,0.0,0.0,0.0,0.0,0.0,0.0,0.0,0.0,0.0,0.0,0.0,0.0,0.0,0.0,0.0,0.0,0.0,0.0,0.0,0.0,0.0,0.0,0.0,0.0,0.0,0.0,0.0,0.0,0.0,0.0,0.0,0.0,0.0,0.0,0.0,0.0,0.0,0.0,0.0,0.0,0.0,0.0,0.0,0.0,0.0,0.0,0.0,0.0,0.0,0.0,0.0,0.0,0.0,0.0,0.0,0.0,0.0,0.0,0.0,0.0,0.0,0.0,0.0,0.0,0.0,0.0,0.0,0.0,0.0,0.0,0.0,0.0,0.0,0.0,0.0,0.0,0.0,0.0,0.0,0.0,0.0,0.0,0.0,0.0,0.0,0.0,0.0,0.0,0.0,0.0,0.0,0.0,0.0,0.0,0.0,0.0,0.0,0.0,0.0,0.0,0.0,0.0,0.0,0.0,0.0,0.0,0.0,0.0,0.0,0.0,0.0,0.0,0.0,0.0,0.0,0.0,0.0,0.0,0.0,0.0,0.0,0.0,0.0,0.0,0.0,0.0,0.0,0.0,0.0,0.0,0.0,0.0,0.0,0.0,0.0,0.0,0.0,0.0,0.0,0.0,0.0,0.0,0.0,0.0,0.0,0.0,0.0,0.0,0.0,0.0,0.0,0.0,0.0,0.0,0.0,0.0,0.0,0.0,0.0,0.0,0.0,0.0,0.0,0.0,0.0,0.0,0.0,0.0,0.0,0.0,0.0,0.0,0.0,0.0,0.0,0.0,0.0,0.0,0.0,0.0,0.0,0.0,0.0,0.0,0.0,0.0,0.0,0.0,0.0,0.0,0.0,0.0,0.0,0.0,0.0,0.0,0.0,0.0,0.0,0.0,0.0,0.0,0.0,0.0,0.0,0.0,0.0,0.0,0.0,0.0,0.0,0.0,0.0,0.0,0.0,0.0,0.0,0.0,0.0,0.0,0.0,0.0,0.0,0.0,0.0,0.0,0.0,0.0,0.0,0.0,0.0,0.0,0.0,0.0,0.0,0.0,0.0,0.0,0.0,0.0,0.0,0.0,0.0,0.0,0.0,0.0,0.0,0.0,0.0,0.0,0.0,0.0,0.0,0.0,0.0,0.0,0.0,0.0,0.0,0.0,0.0,0.0,0.0,0.0,0.0,0.0,0.0,0.0,0.0,0.0,0.0,0.0,0.0,0.0,0.0,0.0,0.0,0.0,0.0,0.0,0.0,0.0,0.0,0.0,0.0,0.0,0.0,0.0,0.0,0.0,0.0,0.0,0.0,0.0,0.0,0.0,0.0,0.0,0.0,0.0,0.0,0.0,0.0,0.0,0.0,0.0,0.0,0.0,0.0,0.0,0.0,0.0,0.0,0.0,0.0,0.0,0.0,0.0,0.0,0.0,0.0,0.0,0.0,0.0,0.0,0.0,0.0,0.0,0.0,0.0,0.0,0.0,0.0,0.0,0.0,0.0,0.0,0.0,0.0,0.0,0.0,0.0,0.0,0.0,0.0,0.0,0.0,0.0,0.0,0.0,0.0,0.0,0.0,0.0,0.0,0.0,0.0,0.0,0.0,0.0,0.0,0.0,0.0,0.0,0.0,0.0,0.0,0.0,0.0,0.0,0.0,0.0,0.0,0.0,1.8354,2.0889,0.0,0.0,0.0,0.0,0.0,0.0,0.0,0.0,0.0,0.0,0.0,0.0,0.0,0.0,0.0,0.0,0.0,0.0,0.0,0.0,0.0,0.0,0.0,-2.1852,-2.1161,-1.9022,-2.0421,-1.9777,-1.6028,-1.6918,-1.7098,-1.6041,-1.571,-1.552,-1.5303,-1.5153,-1.4964,-1.4733,-1.4367,-1.3585,-1.2217,-0.9988,-0.6942,-0.3564,0.0,0.0,0.0,0.0,0.0,0.0,0.0,0.0,0.0,0.0,0.0,0.0,0.0,0.0,0.0,0.0,0.0,0.0,0.0,0.0,0.0,0.0,0.0,0.0,0.0,0.0,0.0,0.0,0.0,0.0,0.0,0.0,0.0,0.0,0.0,0.0,0.0,0.0,0.0,0.0,0.0,0.0,0.0,0.0,0.0,0.0,0.0,0.0,0.0,0.0,0.0,0.0,0.0,0.0,0.0,0.0,0.0,0.0,0.0,0.0,0.0,0.0,0.0,0.0,0.0,0.0,0.0,0.0,0.0,0.0,1.5384,1.6856,0.0,0.0,0.0,0.0,0.0,0.0,0.0,0.0,0.0,0.0,0.0,0.0,0.0,0.0,0.0,0.0,0.0,0.0,0.0,0.0,0.0,-2.0038,-2.2973,-2.3451,-2.2789,-2.0809,-2.3113,-2.2654,-1.7968,-1.9858,-1.9776,-1.6757,-1.6729,-1.6377,-1.5493,-1.5316,-1.5072,-1.4787,-1.4272,-1.2576,-0.9711,-0.7817,-0.5477,-0.301,-0.1352,0.0,0.0,0.0,0.0,0.0,0.0,0.0,0.0,0.0,0.0,0.0,0.0,0.0,0.0,0.0,0.0,0.0,0.0,0.0,0.0,0.0,0.0,0.0,0.0,0.0,0.0,0.0,0.0,0.0,0.0,0.0,0.0,0.0,0.0,0.0,0.0,0.0,0.0,0.0,0.0,0.0,0.0,0.0,0.0,0.0,0.0,0.0,0.0,0.0,0.0,0.0,0.0,0.0,0.0,0.0,0.0,0.0,0.0,0.0,0.0,0.0,0.0,0.0,1.8787,1.8777,1.6179,1.601,1.3989,1.0292,1.1214,1.1508,1.1229,1.1355,0.0,0.0,0.0,0.0,0.0,0.0,0.0,0.0,0.0,0.0,0.0,0.0,0.0,0.0,0.0,0.0,0.0,0.0,0.0,-2.576,-2.8925,-2.9676,-2.9256,-2.7113,-2.7628,-2.6915,-2.3923,-2.3987,-2.2869,-2.0024,-1.9875,-1.8655,-1.5805,-1.552,-1.5235,-1.4936,-1.4217,-1.1663,-0.7552,-0.7057,-0.4461,-0.0571,-0.2479,-0.3506,-0.3619,0.0,0.0,0.0,0.0,0.0,0.0,0.0,0.0,0.0,0.0,0.0,0.0,0.0,0.0,0.0,0.0,0.0,0.0,0.0,0.0,0.0,0.0,0.0,0.0,0.0,0.0,0.0,0.0,0.0,0.0,0.0,0.0,0.0,0.0,0.0,0.0,0.0,0.0,0.0,0.0,0.0,1.2204,0.9254,0.0,0.0,0.0,0.0,0.0,0.0,0.0,0.0,0.0,0.0,0.0,0.0,0.0,1.0736,1.0975,1.1296,1.1683,1.1857,1.2485,1.236,1.2011,1.2297,1.0173,0.6567,1.0097,0.0,1.1107,1.1375,0.0,0.0,0.0,0.0,0.0,0.0,0.0,0.0,0.0,0.0,0.0,0.0,0.0,0.0,0.0,0.0,0.0,0.0,0.0,0.0,0.0,-3.1129,-3.0548,-2.8528,-3.0144,-2.8943,-2.3044,-2.5701,-2.5354,-2.0593,-2.1995,-2.138,-1.8177,-1.7927,-1.6755,-1.4719,-1.438,-1.1793,-0.7051,-0.7184,-0.4514,-0.0192,-0.4239,-0.5312,-0.4055,-0.5367,0.0,0.0,0.0,0.0,0.0,0.0,0.0,0.0,0.0,0.0,0.0,0.0,0.0,0.0,0.0,0.0,0.0,0.0,0.0,0.0,0.0,0.0,0.0,0.0,0.0,0.0,0.0,0.0,0.0,0.0,0.0,0.0,0.0,0.0,0.0,0.0,0.0,0.0,0.0,0.654,0.7688,0.44,0.6935,0.8302,0.0,0.0,0.0,0.0,0.0,0.0,0.0,0.0,0.0,0.4699,0.4499,0.4575,0.4643,0.6693,0.7934,0.8063,1.0471,1.0283,0.8315,0.8315,0.6168,0.2781,0.9182,1.059,0.8639,1.0875,1.2635,1.4252,0.0,0.0,0.0,0.0,2.0985,2.2588,0.0,0.0,0.0,0.0,0.0,0.0,0.0,0.0,0.0,0.0,0.0,0.0,-3.0836,-3.0936,-3.0471,-2.9675,-3.064,-2.8953,-2.3342,-2.7108,-2.6912,-2.1613,-2.4327,-2.4345,-2.1022,-2.0106,-1.8054,-1.4624,-1.4624,-1.2141,-0.7277,-0.7363,-0.5179,-0.1368,-0.5907,-0.6393,-0.4065,-0.6569,-0.7708,-0.7517,0.0,0.0,0.0,0.0,0.0,0.0,0.0,0.0,0.0,0.0,0.0,0.0,0.0,0.0,0.0,0.0,0.0,0.0,0.0,0.0,0.0,0.0,0.0,0.0,0.0,0.0,0.0,0.0,0.0,0.0,0.0,0.0,0.0,0.0,0.0,0.0,0.0,0.2767,0.3568,0.0473,0.2945,0.4515,0.0,0.0,0.0,0.0,0.0,0.0,0.3789,0.1383,0.0,0.0,0.0,0.0,0.0,0.2704,0.4247,0.4311,0.7392,0.7163,0.444,0.444,0.2864,0.032,0.8823,1.0607,0.8026,1.178,1.4858,1.6866,1.6744,1.7299,1.8475,2.1353,2.2628,2.2764,0.0,0.0,0.0,0.0,0.0,0.0,0.0,0.0,0.0,0.0,0.0,-3.0278,-3.1877,-2.9698,-2.9628,-3.2894,-2.8456,-2.6392,-2.8664,-2.9084,-2.7917,-2.4851,-2.7471,-2.7446,-2.4183,-2.0855,-1.785,-1.495,-1.495,-1.2443,-0.7502,-0.7642,-0.636,-0.4018,-0.689,-0.6485,-0.4427,-0.6901,-0.8061,-0.7912,-0.5,0.0,0.0,0.0,0.0,0.0,0.0,0.0,0.0,0.0,0.0,0.0,0.0,0.0,0.0,0.0,0.0,0.0,0.0,0.0,0.0,0.0,0.0,0.0,0.0,0.0,0.0,0.0,0.0,0.0,0.0,0.0,0.0,0.0,0.0,0.0,0.0,0.0,0.0,0.0477,0.3012,0.0,0.0,0.0,0.0,0.0532,0.0273,0.0,0.0277,0.0,0.0,0.0,0.0,0.0,0.0,0.0311,0.0314,0.0316,0.0636,0.0322,0.0327,0.0327,0.0328,0.0327,0.9081,1.2488,1.2249,1.6431,1.7903,1.7934,1.7498,1.9753,2.2858,2.3022,2.2886,2.2778,0.0,0.0,0.0,0.0,0.0,-2.2202,-2.3633,-2.588,-2.7516,-2.836,-2.9781,-3.1236,-3.2519,-3.2025,-3.2138,-3.3668,-3.0298,-2.7736,-2.6649,-2.6767,-2.6232,-2.4871,-2.7649,-2.8449,-2.7191,-2.1943,-1.8947,-1.8185,-1.6493,-1.3873,-1.0491,-0.8768,-0.7415,-0.6637,-0.7711,-0.7731,-0.7092,-0.934,-0.9448,-0.804,-0.656,-0.5753,0.0,0.0,0.0,0.0,0.0,0.0,0.0,0.0,0.0,0.0,0.0,0.0,0.0,0.0,0.0,0.0,0.0,0.0,0.0,0.0,0.0,0.0,0.0,0.0,0.0,0.0,0.0,0.0,0.0,0.0,0.0,0.0,0.0,0.0,0.0,0.0,0.0,0.0256,0.1074,0.0,0.0,0.0,0.0,0.0,0.0,0.0,0.0,0.0,0.0,0.0,0.0,0.0,0.0,0.0,0.0,0.0,0.0,0.0,0.0,0.0,0.0,0.0328,0.91,1.2561,1.3057,1.9876,2.2454,2.1707,2.1801,2.2204,2.3225,2.328,2.3198,2.3063,0.0,0.0,0.0,0.0,0.0,-2.2751,-2.4931,-2.6613,-2.8069,-2.9375,-3.0461,-3.153,-3.2706,-3.2285,-3.2021,-3.2533,-2.9168,-2.6097,-2.3981,-2.4665,-2.5175,-2.4972,-2.8525,-2.9797,-2.8295,-2.3585,-2.0774,-1.9996,-1.7393,-1.4719,-1.2165,-1.0375,-0.958,-0.958,-0.9668,-1.0325,-1.1353,-1.1782,-1.0582,-0.8228,-0.8653,-0.7304,-0.5451,0.0,0.0,0.0,0.0,0.0,0.0,0.0,0.0,0.0,0.0,0.0,0.0,0.0,0.0,0.0,0.0,0.0,0.0,0.0,0.0,0.0,0.0,0.0,0.0,0.0,0.0,0.0,0.0,0.0,0.0,0.0,0.0,0.0,0.0,0.0,0.0,0.0,0.0,0.0,0.0,0.0,0.0,0.0,0.0,0.0,0.0,0.0,0.0,0.0,0.0,0.0,0.0,0.0,0.0,0.0,0.0,0.0,0.0,0.0,0.0,0.0331,0.9162,1.2674,1.3589,2.2097,2.5125,2.4473,2.4216,2.3836,2.3456,2.351,2.3429,2.3293,0.0,0.0,0.0,0.0,0.0,-2.2036,-2.6939,-2.6523,-2.6521,-2.867,-3.006,-3.1263,-3.2412,-3.0392,-2.9451,-3.0231,-2.4638,-2.1311,-2.1293,-2.3374,-2.4931,-2.5379,-3.0264,-3.1412,-2.8032,-2.5798,-2.3154,-2.0414,-1.7791,-1.5283,-1.2595,-1.2502,-1.2553,-1.2761,-1.2655,-1.4201,-1.6748,-1.4064,-1.1269,-0.8708,-1.0654,-1.0158,-0.8307,0.0,0.0,0.0,0.0,0.0,0.0,0.0,0.0,0.0,0.0,0.0,0.0,0.0,0.0,0.0,0.0,0.0,0.0,0.0,0.0,0.0,0.0,0.0,0.0,0.0,0.0,0.0,0.0,0.0,0.0,0.0,0.0,0.0,0.0,0.0,0.0,0.0,0.0,0.0,0.0,0.0,0.0,0.0,0.0,0.0,0.0,0.0,0.0,0.0,0.0,0.0,0.0,0.0,0.0,0.0,0.0,0.0,0.0,0.0,0.0,0.0336,0.9276,1.2847,1.3825,2.2589,2.5966,2.5627,2.4894,2.4311,2.3904,2.3768,2.3605,2.3429,0.0,0.0,0.0,-2.2224,-2.1563,-2.2201,-2.6939,-2.7945,-2.8321,-2.8871,-3.0247,-3.1476,-3.2438,-3.2589,-3.1946,-3.0255,-2.6487,-2.4158,-2.4167,-2.2434,-2.3508,-2.7784,-3.0606,-3.2085,-3.1775,-2.8812,-2.6229,-2.4021,-2.1156,-1.8231,-1.5283,-1.346,-1.3471,-1.5333,-1.3504,-1.4192,-1.6795,-1.5808,-1.5103,-1.4188,-1.2481,-1.1338,-1.0968,0.0,0.0,0.0,0.0,0.0,0.0,0.0,0.0,0.0,0.0,0.0,0.0,0.0,0.0,0.0,0.0,0.0,0.0,0.0,0.0,0.0,0.0,0.0,0.0,0.0,0.0,0.0,0.0,0.0,0.0,0.0,-0.4325,-0.2859,-0.0262,0.0,0.0,0.0,0.0,0.0,0.0,0.0,0.0,0.0,0.0,0.0,0.0,0.0,0.0,0.0,0.0,0.0,0.0,0.0,0.0,0.0,0.0,0.0,0.0,0.0,0.0,0.0334,0.9305,1.323,1.3832,2.2671,2.6115,2.583,2.5627,2.5125,2.4541,2.4487,2.4175,2.3727,0.0,0.0,0.0,-2.3798,-2.2912,-2.3349,-2.7289,-2.7654,-2.7869,-2.8525,-3.0167,-3.1476,-3.2118,-3.1957,-3.1338,-2.9947,-2.6992,-2.5094,-2.4931,-2.4247,-2.5879,-2.9824,-3.1607,-3.2652,-3.3213,-3.0588,-2.8054,-2.5542,-2.2554,-1.9728,-1.6714,-1.5045,-1.5252,-1.6714,-1.5045,-1.5289,-1.6836,-1.6754,-1.6768,-1.6601,-1.4751,-1.3106,-1.218,-1.2948,-1.1788,-1.0132,-1.067,-0.8584,-0.5858,-0.8475,0.0,0.0,0.0,0.0,0.0,0.0,0.0,0.0,0.0,0.0,0.0,0.0,0.0,0.0,0.0,0.0,0.0,0.0,0.0,0.0,0.0,0.0,0.0,0.0,-0.4742,-0.2169,-0.0277,0.0,0.0,0.0,0.0,0.0,0.0,0.0,0.0,0.0,0.0,0.0,0.0,0.0,0.0,0.0,0.0,0.0,0.0,0.0,0.0,0.0,0.0,0.0,0.0,0.0,0.0,0.0335,0.9319,1.3264,1.3882,2.28,2.6278,0.0,0.0,0.0,0.0,0.0,2.4161,2.3768,0.0,0.0,0.0,-2.6186,-2.4889,-2.477,-2.772,-2.6895,-2.6499,-2.8047,-2.9873,-3.1209,-3.145,-3.026,-2.9272,-2.9154,-2.689,-2.525,-2.4666,-2.7424,-2.9873,-3.1797,-3.2786,-3.3293,-3.3133,-3.1638,-2.8983,-2.5659,-2.3317,-2.0272,-1.6998,-1.6985,-1.6985,-1.6985,-1.6985,-1.6985,-1.6985,-1.6985,-1.6985,-1.6971,-1.6809,-1.5202,-1.2973,-1.5042,-1.3018,-0.9548,-1.4403,-1.2939,-0.8828,-1.1221,0.0,0.0,0.0,0.0,0.0,0.0,0.0,0.0,0.0,0.0,0.0,0.0,0.0,0.0,0.0,0.0,0.0,0.0,0.0,0.0,0.0,0.0,0.0,0.0,-0.4623,-0.0565,0.0,0.0,0.0,0.0,0.0,0.0,0.0,0.0,0.0,0.0,0.0,0.0,0.0,0.0,0.0,0.0,0.0,0.0,0.0,0.0,0.0,0.0,0.0,0.0,0.0,0.0,0.0,0.0336,0.8672,1.2628,1.3947,2.2246,2.6033,2.6061,2.5762,2.5301,2.4745,2.4161,2.3863,2.37,0.0,0.0,-2.2978,-2.5845,-2.5051,-2.4936,-2.772,-2.83,-2.8286,-2.8217,-2.9526,-3.0461,-3.0274,-3.065,-3.0025,-2.8332,-2.7546,-2.7168,-2.7306,-2.9517,-3.1225,-3.2358,-3.2812,-3.3374,-3.4042,-3.4029,-3.1547,-2.6541,-2.556,-2.2548,-1.7148,-1.7039,-1.6985,-1.6985,-1.6985,-1.6985,-1.6985,-1.6985,-1.6985,-1.6971,-1.6809,-1.6247,-1.5654,-1.5957,-1.5387,-1.4521,-1.5413,-1.3778,-1.1742,-1.4311,-1.2053,-0.8621,-1.0657,-0.9881,0.0,0.0,0.0,0.0,0.0,0.0,0.0,0.0,0.0,0.0,0.0,0.0,0.0,0.0,0.0,0.0,0.0,0.0,0.0,-1.0717,-0.6689,-0.3176,-0.0296,0.0,0.0,0.0,0.0,0.0,0.0,0.0,0.0,0.0,0.0,0.0,0.0,0.0,0.0,0.0,0.0,0.0,0.0,0.0,0.0,0.0,0.0,0.0,0.0,0.0,0.0,0.0337,0.5698,1.0015,1.3623,1.8925,2.2961,2.5749,2.5437,2.5179,2.4921,2.4433,2.4175,2.3999,0.0,-2.3439,-2.3807,-2.6215,-2.6125,-2.6287,-2.7888,-2.8537,-2.8778,-2.8617,-2.9633,-3.0408,-3.0568,-2.9955,-2.9557,-2.9683,-2.9206,-2.9181,-3.0076,-3.0955,-3.1984,-3.2732,-3.348,-3.4148,-3.4736,-3.5057,-3.2361,-2.6724,-2.6398,-2.3168,-1.7311,-1.7229,-1.7202,-1.7202,-1.7202,-1.7202,-1.7202,-1.7121,-1.708,-1.708,-1.6931,-1.6822,-1.6714,-1.6415,-1.6252,-1.6185,-1.6103,-1.5208,-1.4512,-1.5665,-1.4379,-1.2585,-1.3961,-1.346,-1.2854,0.0,0.0,0.0,0.0,0.0,0.0,0.0,0.0,0.0,0.0,0.0,0.0,0.0,0.0,-1.9373,-1.9888,0.0,-1.2304,-1.0729,-0.5965,-0.2046,-0.0299,0.0,0.0,0.0,0.0,0.0,0.0,0.0,0.0,0.0,0.0,0.0,0.0,0.0,0.0,0.0,0.0,0.0,0.0,0.0,0.0,0.0,0.0,0.0,0.0,0.0,0.0,0.0337,0.4702,0.9024,1.3616,2.0449,2.4162,2.5762,2.5369,2.5057,2.4745,2.4365,2.4134,2.3958,0.0,0.0,-2.517,-2.6587,-2.7121,-2.7522,-2.8056,-2.8404,-2.8698,-2.8911,-2.9633,-3.0301,-3.0835,-2.913,-2.883,-3.0863,-3.0568,-3.0782,-3.2011,-3.2091,-3.2412,-3.3133,-3.4309,-3.5084,-3.5431,-3.5672,-3.2829,-2.6928,-2.6663,-2.3421,-1.746,-1.7433,-1.7419,-1.7419,-1.7419,-1.7433,-1.746,-1.7297,-1.7256,-1.727,-1.7121,-1.7053,-1.6998,-1.6741,-1.6632,-1.6605,-1.6605,-1.6605,-1.6564,-1.6307,-1.6374,-1.6551,-1.6469,-1.6714,-1.7148,-1.7772,-1.7921,0.0,0.0,0.0,0.0,0.0,0.0,0.0,0.0,-1.8477,-1.8667,-1.8843,-1.94,-2.0051,-2.0743,-1.5233,-1.0729,-1.0995,-0.4904,0.0,0.0,0.0,0.0,0.0,0.0,0.0,0.0,0.0,0.0,0.0,0.0,0.0,0.0,0.0,0.0,0.0,0.0,0.0,0.0,0.0,0.0,0.0,0.0,0.0,0.0,0.0,0.0,0.0337,0.5692,0.9994,1.3911,2.2565,2.5952,2.5776,2.5315,2.4894,2.4487,2.4229,2.4012,2.3836,0.0,0.0,0.0,-2.6613,-2.7281,-2.7762,-2.8083,-2.8404,-2.8617,-2.8644,-2.8965,-2.9312,-2.9633,-2.9296,-2.9277,-3.0381,-3.0167,-3.0568,-3.2011,-3.2091,-3.2599,-3.3748,-3.4897,-3.5778,-3.634,-3.6393,-3.3469,-2.7621,-2.7214,-2.3765,-1.7623,-1.7487,-1.7419,-1.7419,-1.7419,-1.75,-1.7609,-1.746,-1.7473,-1.7582,-1.7433,-1.7297,-1.7161,-1.7134,-1.7039,-1.6931,-1.6931,-1.6931,-1.6904,-1.6727,-1.67,-1.6741,-1.6863,-1.7026,-1.7311,-1.8057,-1.845,-1.8708,-1.9061,-1.8925,-1.864,-1.8531,-1.8491,-1.8464,0.0,-1.864,-1.902,-1.9291,-1.9942,-2.0594,-2.1068,-1.5572,-1.1001,-1.1167,-0.4968,0.0,0.0,0.0,0.0,0.0,0.0,0.0,0.0,0.0,0.0,0.0,0.0,0.0,0.0,0.0,0.0,0.0,0.0,0.0,0.0,0.0,0.0,0.0,0.0,0.0,0.0,0.0,0.0,0.0336,0.8628,1.2538,1.3825,2.2343,2.5654,2.5464,2.5016,2.465,2.4351,2.4189,2.4012,2.3233,0.0,0.0,0.0,-2.6426,-2.7068,-2.7549,-2.7843,-2.8136,-2.8457,-2.8804,-2.9125,-2.9419,-2.9713,-2.9633,-2.99,-3.0782,-2.998,-3.0327,-3.2465,-3.2465,-3.3187,-3.5084,-3.6126,-3.6767,-3.7008,-3.6687,-3.3494,-2.754,-2.7112,-2.3765,-1.7772,-1.7704,-1.769,-1.769,-1.7772,-1.7785,-1.7772,-1.7812,-1.7758,-1.765,-1.7582,-1.7405,-1.7188,-1.7188,-1.7053,-1.6863,-1.7039,-1.7107,0.0,-1.7026,-1.7066,-1.7134,-1.7107,-1.7324,-1.7704,-1.8274,-1.8531,-1.8599,-1.8464,-1.8518,-1.8572,-1.8342,-1.8409,-1.8599,-1.8898,-1.9237,-1.9644,-2.0119,-2.0661,-2.1245,-2.1882,-1.5979,-1.1174,-1.132,-0.5003,0.0,0.0,0.0,0.0,0.0,0.0,0.0,0.0,0.0,0.0,0.0,0.0,0.0,0.0,0.0,0.0,0.0,0.0,0.0,0.0,0.0,0.0,0.0,0.0,0.0,0.0,0.0,0.0,0.0335,0.9267,1.2794,1.3364,2.2249,2.545,2.4733,2.228,2.1054,2.1048,2.3094,2.3782,2.3152,0.0,0.0,0.0,-2.6186,-2.6747,-2.7281,-2.7629,-2.7869,-2.8243,-2.8831,-2.9098,-2.9339,-2.9633,-2.982,-3.0194,-3.0915,-3.0007,-3.0354,-3.2599,-3.3598,-3.4958,-3.6979,-3.8169,-3.8861,-3.8944,-3.7559,-3.3789,-2.7683,-2.7014,-2.369,-1.7935,-1.7962,-1.7962,-1.7935,-1.8097,-1.8097,-1.8002,-1.8111,-1.8002,-1.7772,-1.7772,-1.7568,-1.7256,-1.7202,-1.7053,-1.6904,-1.7121,-1.7188,-1.7202,-1.7297,-1.7419,-1.7541,-1.7514,-1.7758,-1.8124,-1.8586,-1.8776,-1.8776,-1.8491,-1.8572,-1.8667,-1.845,-1.8586,-1.8925,-1.9481,-1.9875,-2.0295,-2.0892,-2.1367,-2.1882,-2.2506,-1.7415,-1.2737,-1.1732,-0.5912,-0.1194,0.0,0.0,0.0,0.0,0.0,0.0,0.0,0.0,0.0,0.0,0.0,0.0,0.0,0.0,0.0,0.0,0.0,0.0,0.0,0.0,0.0,0.0,0.0,0.0,0.0,0.0,0.0,0.0334,0.7908,1.175,1.3267,2.0758,2.3607,2.2893,1.9886,1.78,1.6958,2.0762,2.2016,2.1424,0.0,0.0,0.0,0.0,-2.6453,-2.7041,-2.7602,-2.7709,-2.7923,-2.8537,-2.8617,-2.8751,-2.9045,-2.9579,-3.0034,-3.0354,-3.0354,-3.0835,-3.2038,-3.5701,-3.841,-3.9462,-4.1138,-4.2111,-4.2468,-3.9475,-3.4627,-2.8396,-2.7948,-2.4397,-1.8097,-1.8233,-1.8233,-1.8097,-1.8247,-1.8301,-1.8301,-1.8301,-1.8219,-1.807,-1.807,-1.7812,-1.7392,-1.7243,-1.7188,-1.7175,-1.7188,-1.7188,-1.7243,-1.7541,-1.7745,-1.7894,-1.8192,-1.8396,-1.8599,-1.9047,-1.94,-1.9657,-1.978,-1.9508,-1.9183,-1.9169,-1.9291,-1.9522,-1.9983,-2.0417,-2.0919,-2.1516,-2.2004,-2.2411,-2.271,-1.9835,-1.602,-1.2101,-0.8294,-0.417,-0.0605,0.0,0.0,0.0,0.0,0.0,0.0,0.0,0.0,0.0,0.0,0.0,0.0,0.0,0.0,0.0,0.0,0.0,0.0,0.0,0.0,0.0,0.0,0.0,0.0,0.0,0.0,0.0333,0.4908,0.9076,1.2924,1.6942,1.8898,1.9164,1.839,1.5773,1.2712,1.6329,1.7706,1.7633,0.0,0.0,0.0,0.0,0.0,-2.6453,-2.7014,-2.7442,-2.7843,-2.8243,-2.8297,0.0,0.0,0.0,0.0,0.0,-3.006,-3.0728,-3.2305,-3.5442,-3.8079,-3.9524,-4.0446,-4.116,-4.1487,-3.8391,-3.3962,-2.7968,-2.754,-2.4162,-1.8097,-1.8138,-1.8138,-1.8111,-1.8355,-1.8355,-1.8179,-1.8369,-1.8314,-1.807,-1.788,-1.7704,-1.7555,-1.7405,-1.7216,-1.7107,0.0,-1.7636,-1.765,-1.7758,-1.7894,-1.8043,-1.8138,-1.8409,-1.8803,-1.9345,-1.9508,-1.9495,-1.9454,-1.9332,-1.925,-1.9454,-1.9698,-2.001,-2.058,-2.096,-2.134,-2.172,-2.1937,-2.2099,-2.2303,-1.932,-1.6386,-1.5242,-0.9559,-0.5269,-0.3873,-0.1498,0.0,0.0,0.0,0.0,0.0,0.0,0.0,0.0,0.0,0.0,0.0,0.0,0.0,0.0,0.0,0.0,0.0,0.0,0.0,0.0,0.0,0.0,0.0,0.0,0.0,0.0328,0.4555,0.739,0.8862,1.3082,1.4418,1.4202,1.1341,0.9417,0.8417,1.2074,1.3111,1.3829,0.0,0.0,0.0,0.0,0.0,0.0,0.0,0.0,0.0,0.0,0.0,0.0,0.0,0.0,0.0,0.0,0.0,-3.0648,-3.1984,-3.6031,-3.8971,-4.0233,-4.1078,-4.1726,-4.1941,-3.8293,-3.3395,-2.7277,-2.7051,-2.3765,-1.784,-1.7921,-1.7894,-1.7867,-1.8165,-1.8165,-1.7948,-1.8138,-1.8192,-1.8138,-1.7785,-1.7731,-1.7867,-1.7541,-1.7338,0.0,-1.765,-1.7894,-1.8016,-1.8016,-1.8165,-1.8355,-1.8464,-1.8762,-1.9169,-1.9549,-1.963,-1.9549,-1.9413,-1.9481,-1.9657,-1.9861,-2.0214,-2.0594,-2.0987,-2.1353,-2.1597,-2.1638,-2.172,-2.1815,-2.1787,-1.953,-1.7711,-1.6497,-1.1249,-0.6845,-0.5591,-0.2372,0.0,0.0,0.0,0.0,0.0,0.0,0.0,0.0,0.0,0.0,0.0,0.0,0.0,0.0,0.0,0.0,0.0,0.0,0.0,0.0,0.0,0.0,0.0,0.0,0.0,0.0,0.2908,0.5096,0.6569,0.9243,1.0294,0.9823,0.7069,0.5245,0.4032,0.7955,0.8992,1.0287,0.0,0.0,0.0,0.0,0.0,0.0,0.0,0.0,0.0,0.0,0.0,0.0,0.0,0.0,0.0,0.0,0.0,0.0,-3.1369,-3.7319,-4.1057,-4.1649,-4.2757,-4.3477,-4.3714,-3.8494,-3.2952,-2.7051,-2.6387,-2.3099,-1.7433,-1.7582,-1.7568,-1.7446,-1.7745,-1.7785,-1.7663,-1.7663,-1.7907,-1.8247,-1.7812,-1.7894,-1.8233,-1.765,-1.7528,-1.7663,-1.769,-1.7962,-1.8342,-1.8342,-1.8531,-1.8816,-1.9101,-1.94,-1.9644,-1.9644,-1.9752,-1.9834,-1.9725,-2.001,-2.0349,-2.0376,-2.0824,-2.1231,-2.1245,-2.157,-2.1747,-2.1299,-2.1448,-2.1543,-2.1231,-2.0946,-1.97,-1.6586,-1.2787,-0.9132,-0.5834,-0.2347,0.0,0.0,0.0,0.0,0.0,0.0,0.0,0.0,0.0,0.0,0.0,0.0,0.0,0.0,0.0,0.0,0.0,0.0,0.0,0.0,0.0,0.0,0.0,0.0,0.0,0.0,0.0,0.2208,0.5931,0.5756,0.5666,0.5916,0.5517,0.3174,0.0576,0.4512,0.5846,0.7184,0.0,0.0,0.0,0.0,0.0,0.0,0.0,0.0,0.0,0.0,0.0,0.0,0.0,0.0,0.0,0.0,0.0,0.0,-3.3726,-3.7407,-4.0477,-4.2548,-4.1592,-4.0979,-4.1242,-3.4829,-2.9909,-2.6367,-2.4168,-2.1136,-1.7595,-1.7636,-1.7623,-1.7595,-1.7772,-1.784,-1.7812,-1.7812,-1.788,-1.7948,-1.7609,-1.7609,-1.7812,-1.765,-1.769,-1.784,-1.807,-1.8287,-1.8477,-1.8477,-1.8667,-1.8925,-1.8884,-1.9156,-1.9481,-1.9481,-1.959,-1.978,-2.0078,-2.0309,-2.0634,-2.119,-2.1448,-2.1584,-2.1692,-2.172,-2.1638,-2.1285,-2.119,-2.1068,-2.077,-2.0756,-2.0714,-2.0273,-1.4556,-1.0413,-0.9981,-0.4206,0.0,0.0,0.0,0.0,0.0,0.0,0.0,0.0,0.0,0.0,0.0,0.0,0.0,0.0,0.0,0.0,0.0,0.0,0.0,0.0,0.0,0.0,0.0,0.0,0.0,0.0,0.0,0.0627,0.1537,0.1511,0.149,0.1473,0.1452,0.0864,0.0859,0.7308,0.9431,1.0422,0.0,0.0,0.0,0.0,0.0,0.0,0.0,0.0,0.0,0.0,0.0,0.0,0.0,0.0,0.0,0.0,0.0,0.0,0.0,-3.8333,-4.1203,-4.2533,-4.0709,-3.9501,-3.9698,-3.3907,-2.9069,-2.5619,-2.3851,-2.0929,-1.7148,-1.7148,-1.7148,-1.7161,-1.7378,-1.7473,-1.7473,-1.7405,-1.7609,0.0,0.0,-1.7609,-1.8016,-1.7826,-1.7785,-1.7894,-1.8219,-1.8409,-1.8518,-1.8464,-1.8599,-1.8816,-1.8925,-1.9169,-1.9454,-1.9522,-1.9725,-2.0037,-2.0417,-2.077,-2.1177,-2.172,-2.1923,-2.1937,-2.1815,-2.172,-2.153,-2.1014,-2.0865,-2.0689,-2.0309,-2.0214,-2.0417,-2.1163,-1.4841,-1.0306,-1.1166,-0.4826,0.0,0.0,0.0,0.0,0.0,0.0,0.0,0.0,0.0,0.0,0.0,0.0,0.0,0.0,0.0,0.0,0.0,0.0,0.0,0.0,0.0,0.0,0.0,0.0,0.0,0.0,0.0,0.0,0.0,0.0,0.0,0.0,0.0,0.0,0.0569,0.6415,0.8527,0.953,0.0,0.0,0.0,0.0,0.0,0.0,0.0,0.0,0.0,0.0,-2.8217,-2.8217,0.0,0.0,0.0,0.0,0.0,0.0,0.0,0.0,-4.2387,-4.199,-3.9959,-3.8646,-3.8132,-3.3856,-2.9286,-2.477,-2.3988,-2.1342,-1.6524,-1.6537,-1.6551,-1.6564,-1.6849,-1.6985,-1.6998,-1.6863,-1.7256,-1.7935,-1.7419,-1.769,-1.8314,0.0,-1.784,-1.7894,-1.8219,-1.8396,-1.8464,-1.8355,-1.8423,-1.864,-1.902,-1.9291,-1.9495,-1.9657,-2.0037,-2.0458,-2.077,-2.1285,-2.1815,-2.2127,-2.2249,-2.2194,-2.1815,-2.1652,-2.1394,-2.0716,-2.0539,-2.0376,-1.9983,-1.9698,-1.982,-2.0716,-1.5039,-1.0669,-1.1766,-0.5423,-0.0923,-0.0952,-0.032,0.0,0.0,0.0,0.0,0.0,0.0,0.0,0.0,0.0,0.0,0.0,0.0,0.0,0.0,0.0,0.0,0.0,0.0,0.0,0.0,0.0,0.0,0.0,0.0,0.0,0.0,0.0,0.0,0.0,0.0,0.0,0.0566,0.4149,0.5463,0.6513,0.0,0.0,0.0,0.0,0.0,0.0,0.0,0.0,0.0,0.0,-2.8671,-2.8617,0.0,0.0,0.0,0.0,0.0,0.0,0.0,0.0,0.0,-4.1768,-3.9311,-3.7208,-3.5046,-3.0569,-2.6806,-2.4127,-2.2066,-1.9356,-1.6524,-1.6646,-1.6714,-1.6714,-1.6904,-1.7039,-1.7148,-1.7121,-1.7202,-1.7351,-1.7365,-1.7392,-1.7446,-1.7623,-1.7758,0.0,-1.8219,-1.8247,-1.8179,-1.8287,-1.8491,-1.8749,-1.8816,-1.9196,-1.9685,-1.9942,-2.0349,-2.0783,-2.1218,-2.1665,-2.2127,-2.2547,-2.2411,-2.2127,-2.2059,-2.157,-2.1041,-2.0783,-2.0539,-2.0309,-2.0105,-2.001,-2.0282,-2.1177,-1.7523,-1.5356,-1.6786,-0.9837,-0.5039,-0.5189,-0.2312,0.0,0.0,0.0,0.0,0.0,0.0,0.0,0.0,0.0,0.0,0.0,0.0,0.0,0.0,0.0,0.0,0.0,0.0,0.0,0.0,0.0,0.0,0.0,0.0,0.0,0.0,0.0,0.0,0.0,0.0,0.0,0.0566,0.4149,0.548,0.6567,0.0,0.0,0.0,0.0,0.0,0.0,0.0,-2.8778,-2.9285,-2.9873,-2.9953,-2.9793,-2.9312,-2.9392,-3.0002,0.0,0.0,0.0,0.0,0.0,0.0,-4.1659,-3.9316,-3.674,-3.4113,-3.0782,-2.808,-2.6168,0.0,-2.0855,-1.8534,-1.7207,-1.6632,-1.6646,-1.6876,-1.7012,-1.708,-1.708,-1.7121,-1.7202,-1.7365,-1.7419,-1.746,-1.7663,-1.784,0.0,-1.8138,-1.8165,-1.8124,-1.8355,-1.8531,-1.8667,-1.883,-1.9237,-1.9739,-2.0119,-2.0594,-2.1136,-2.1747,-2.2235,-2.2669,-2.3049,-2.2723,-2.2289,-2.2045,-2.1475,-2.0933,-2.0702,-2.0485,-2.0309,-2.0241,-2.0227,-2.0417,-2.1001,-1.7819,-1.5094,-1.4413,-0.9064,-0.4673,-0.326,-0.1335,0.0,0.0,0.0,0.0,0.0,0.0,0.0,0.0,0.0,0.0,0.0,0.0,0.0,0.0,0.0,0.0,0.0,0.0,0.0,0.0,0.0,0.0,0.0,0.0,0.0,0.0,0.0,0.0,0.0,0.0,0.0,0.0566,0.4164,0.55,0.6579,0.0,0.0,0.0,0.0,0.0,0.0,-2.8911,-2.9339,-2.99,-3.0782,-3.1183,-3.1049,-3.006,-3.0034,-3.0822,0.0,0.0,0.0,0.0,0.0,0.0,0.0,0.0,0.0,-3.3188,0.0,0.0,-2.7786,-2.569,0.0,0.0,0.0,0.0,0.0,-1.7058,-1.6985,-1.6985,-1.6985,-1.7039,0.0,0.0,-1.7419,-1.7568,0.0,0.0,0.0,0.0,-1.8057,-1.8124,-1.8355,-1.8531,-1.8667,-1.8925,-1.9291,-1.9766,-2.0309,-2.0838,-2.1421,-2.214,-2.2696,-2.3117,-2.3347,-2.2927,-2.2357,-2.1977,-2.1367,-2.0838,-2.0594,-2.0431,-2.0336,-2.0336,-2.0295,-2.0404,-2.0756,-1.8008,-1.5291,-1.3514,-0.9166,-0.4908,-0.2927,-0.1005,0.0,0.0,0.0,0.0,0.0,0.0,0.0,0.0,0.0,0.0,0.0,0.0,0.0,0.0,0.0,0.0,0.0,0.0,0.0,0.0,0.0,0.0,0.0,0.0,0.0,0.0,0.0,0.0,0.0,0.0,0.0,0.0283,0.3065,0.4144,0.5222,0.0,0.0,0.0,0.0,0.0,0.0,-2.8938,-2.9526,-3.0194,-3.1076,-3.1664,-3.1877,-3.1503,-3.1022,-3.1372,0.0,0.0,0.0,0.0,0.0,0.0,0.0,0.0,0.0,0.0,0.0,0.0,-2.7273,-2.7483,0.0,0.0,0.0,0.0,0.0,0.0,-1.6985,-1.6985,-1.6985,0.0,0.0,0.0,0.0,0.0,0.0,0.0,0.0,0.0,-1.7975,-1.8097,-1.8124,-1.8491,-1.8952,-1.8979,-1.9291,-1.9834,-2.0689,-2.1163,-2.1543,-2.2167,-2.2764,-2.3198,-2.3239,-2.2696,-2.2113,-2.1923,-2.1218,-2.058,-2.0539,-2.0431,-2.0336,-2.0336,-2.0227,-2.0309,-2.0892,-2.0607,-2.056,-2.1843,-1.512,-1.0439,-1.096,-0.4683,0.0,0.0,0.0,0.0,0.0,0.0,0.0,0.0,0.0,0.0,0.0,0.0,0.0,0.0,0.0,0.0,0.0,0.0,0.0,0.0,0.0,0.0,0.0,0.0,0.0,0.0,0.0,0.0,0.0,0.0,0.0,0.0,0.0279,0.0555,0.1665,0.0,0.0,0.0,0.0,0.0,0.0,-2.9179,-2.9793,-3.109,-3.3815,-3.4694,-3.5617,-3.6967,-3.602,-3.5373,-3.5177,-3.7434,0.0,0.0,0.0,0.0,0.0,0.0,0.0,0.0,0.0,-3.0542,-2.9683,-2.8415,0.0,0.0,0.0,0.0,0.0,0.0,-1.6985,-1.6985,-1.6985,0.0,0.0,0.0,0.0,0.0,0.0,0.0,0.0,0.0,0.0,-1.8124,-1.8409,-1.8586,-1.8776,-1.9142,-1.9305,-1.9535,-2.0363,-2.1068,-2.1692,-2.2194,-2.29,-2.347,-2.3375,-2.2873,-2.2289,-2.195,-2.1272,-2.0648,-2.0553,-2.0431,-2.0349,-2.0431,-2.0336,-2.0309,-2.0553,-2.039,-1.9088,-1.5824,-1.2303,-0.8748,-0.5353,-0.1958,0.0,0.0,0.0,0.0,0.0,0.0,0.0,0.0,0.0,0.0,0.0,0.0,0.0,0.0,0.0,0.0,0.0,0.0,0.0,0.0,0.0,0.0,0.0,0.0,0.0,0.0,0.0,0.0,0.0,0.0,0.0,0.0,0.0,0.0,0.0848,0.0,0.0,0.0,0.0,0.0,-2.843,-2.9232,-2.9847,-3.151,-3.5182,-3.6026,-3.7371,-4.0224,-3.9707,-3.8855,-3.8078,-3.8891,0.0,0.0,0.0,0.0,0.0,0.0,0.0,0.0,0.0,-3.1236,-3.1236,-2.9772,-2.909,0.0,0.0,-2.1572,-2.1643,0.0,0.0,0.0,0.0,0.0,-1.7012,0.0,0.0,0.0,0.0,0.0,0.0,0.0,0.0,0.0,0.0,0.0,-1.8667,-1.9156,-1.925,-1.9345,-2.0105,-2.0878,-2.1584,-2.2127,-2.2873,-2.347,-2.3402,-2.294,-2.2371,-2.1977,-2.1299,-2.0743,-2.058,-2.0458,-2.0417,-2.0526,-2.0458,-2.0404,-2.0404,-2.0173,-1.8007,-1.2658,-1.051,-0.787,-0.2435,-0.0629,0.0,0.0,0.0,0.0,0.0,0.0,0.0,0.0,0.0,0.0,0.0,0.0,0.0,0.0,0.0,0.0,0.0,0.0,0.0,0.0,0.0,0.0,0.0,0.0,0.0,0.0,0.0,0.0,0.0,0.0,0.0,0.0,0.0,0.0,0.057,0.0,0.0,0.0,0.0,0.0,-2.835,-2.8965,-2.9553,-3.1125,-3.4557,-3.4944,-3.6326,-3.9796,-4.078,-4.1311,-4.1275,-3.9838,0.0,0.0,0.0,0.0,0.0,0.0,0.0,-3.0782,-3.1076,-3.1236,-3.1236,-3.153,-3.1824,-3.1899,-2.6606,-2.4448,-2.4466,0.0,0.0,0.0,0.0,-1.6985,-1.7012,0.0,0.0,-1.7663,0.0,0.0,0.0,0.0,0.0,0.0,0.0,0.0,0.0,0.0,-1.9101,-1.9345,-2.0105,-2.0648,-2.1177,-2.1923,-2.2547,-2.3049,-2.3185,-2.2778,-2.2262,-2.195,-2.1299,-2.0743,-2.058,-2.0539,-2.0539,-2.0539,-2.0539,-2.0539,-2.0539,-2.0417,-1.9255,-1.6372,-1.2484,-0.8959,-0.609,-0.2398,0.0,0.0,0.0,0.0,0.0,0.0,0.0,0.0,0.0,0.0,0.0,0.0,0.0,0.0,0.0,0.0,0.0,0.0,0.0,0.0,0.0,0.0,0.0,0.0,0.0,0.0,0.0,0.0,0.0,0.0,0.0,0.0,0.0,0.0,0.0567,0.0,0.0,0.0,0.0,0.0,0.0,-2.8671,-2.9072,-3.1169,-3.6161,-3.674,-3.8524,-4.3457,-4.3385,-4.2892,-4.2892,-4.2334,0.0,0.0,0.0,0.0,0.0,0.0,-3.0595,-3.0782,-3.1289,-3.1423,-3.1236,-3.1717,-3.1904,-3.1633,-2.6915,-2.4508,-2.4247,-1.9329,-1.6985,0.0,-1.6985,-1.7093,-1.7283,0.0,-1.7568,-1.7785,0.0,0.0,0.0,0.0,0.0,0.0,0.0,0.0,0.0,0.0,0.0,0.0,-1.9752,-2.0254,-2.0783,-2.1231,-2.1869,-2.2371,-2.2316,-2.2099,-2.1801,-2.1489,-2.1095,-2.0743,-2.058,-2.0539,-2.0539,-2.0539,-2.0539,-2.0539,-2.0539,-2.0512,-1.8479,-1.2953,-1.0985,-0.8121,-0.2363,-0.0634,0.0,0.0,0.0,0.0,0.0,0.0,0.0,0.0,0.0,0.0,0.0,0.0,0.0,0.0,0.0,0.0,0.0,0.0,0.0,0.0,0.0,0.0,0.0,0.0,0.0,0.0,0.0,0.0,0.0,0.0,0.0,0.0,0.0,0.0,0.0287,0.0,0.0,0.0,0.0,0.0,0.0,-2.8404,-2.8671,-3.0807,-3.6306,-3.692,-3.8975,-4.4566,-4.4141,-4.3264,-4.2702,-4.2345,0.0,0.0,0.0,0.0,0.0,-3.1354,-3.1049,-3.1289,-3.1637,-3.1797,-3.1717,-3.2198,-3.1697,-3.042,-2.6737,-2.4263,-2.2654,-1.8707,-1.6985,0.0,-1.7039,-1.7202,-1.7419,-1.7487,-1.765,-1.7867,0.0,0.0,0.0,0.0,0.0,0.0,0.0,0.0,0.0,0.0,0.0,0.0,0.0,-1.9875,-2.0336,-2.0865,-2.1367,-2.1787,-2.1869,-2.172,-2.1516,-2.1258,-2.0987,-2.0743,-2.0648,-2.058,-2.0553,-2.0607,-2.058,-2.0539,-2.0539,-2.0539,-1.8491,-1.309,-1.1216,-0.8421,-0.3273,-0.0961,-0.0668,-0.2329,-0.101,0.0,0.0,0.0,0.0,0.0,0.0,0.0,0.0,0.0,0.0,0.0,0.0,0.0,0.0,0.0,0.0,0.0,0.0,0.0,0.0,0.0,0.0,0.0,0.0,0.0,0.0,0.0,0.0,0.0,0.0,0.0,0.0,0.0,0.0,0.0,0.0,0.0,0.0,0.0,-2.8547,-3.0326,-3.5459,-3.5825,-3.79,-4.3562,-4.3516,-4.2499,-4.0862,-4.0665,0.0,0.0,0.0,0.0,0.0,-3.0969,-3.153,-3.2118,-3.2144,-3.2278,-3.2545,-3.2839,-3.1406,-2.8346,-2.6211,-2.3455,-2.0405,-1.8142,-1.6985,-1.6985,-1.7121,-1.727,-1.7419,-1.7568,-1.7717,0.0,0.0,0.0,0.0,0.0,0.0,0.0,0.0,0.0,0.0,0.0,0.0,0.0,0.0,0.0,0.0,0.0,-2.1041,-2.1245,-2.1665,-2.157,-2.134,-2.119,-2.0946,0.0,-2.0756,-2.0648,-2.058,-2.0743,-2.0634,-2.0539,-2.0539,-2.0539,-1.9255,-1.5908,-1.2627,-0.9628,-0.7462,-0.3139,-0.2262,-0.6119,-0.2659,0.0,0.0,0.0,0.0,0.0,0.0,0.0,0.0,0.0,0.0,0.0,0.0,0.0,0.0,0.0,0.0,0.0,0.0,0.0,0.0,0.0,0.0,0.0,0.0,0.0,0.0,0.0,0.0,0.0,0.0,0.0,0.0,0.0,0.0,0.0,0.0,0.0,0.0,0.0,0.0,0.0,0.0,-3.6208,-3.6928,-4.1824,-4.25,-4.1647,0.0,0.0,0.0,0.0,0.0,0.0,0.0,-3.1503,-3.1851,-3.2438,-3.2438,-3.2465,-3.2545,-3.2839,-3.1406,-2.8346,-2.6211,-2.3455,-2.0405,-1.8142,-1.6985,-1.6985,-1.7012,-1.7121,-1.7256,-1.7405,-1.75,0.0,0.0,0.0,0.0,-1.7473,-1.765,0.0,0.0,0.0,0.0,0.0,0.0,0.0,0.0,-1.9712,-1.9752,-2.0187,0.0,-2.0553,-2.0661,-2.0716,-2.0729,0.0,-2.0648,-2.0594,-2.0594,-2.0553,-2.0553,-2.0594,-2.0553,-2.0539,-2.0539,-2.0539,-1.9217,-1.5803,-1.2907,-1.1198,-1.1162,-0.7453,-0.5289,-0.62,-0.232,0.0,0.0,0.0,0.0,0.0,0.0,0.0,0.0,0.0,0.0,0.0,0.0,0.0,0.0,0.0,0.0,0.0,0.0,0.0,0.0,0.0,0.0,0.0,0.0,0.0,0.0,0.0,0.0,0.0,0.0,0.0,0.0,0.0,0.0,0.0,0.0,0.0,0.0,0.0,0.0,0.0,0.0,-3.7063,-3.7508,-4.117,-4.1075,-3.9921,0.0,0.0,0.0,0.0,0.0,0.0,-3.1664,-3.1797,-3.2144,-3.2732,-3.2732,-3.2812,-3.2946,-3.324,-3.124,-2.7021,-2.5975,-2.3115,-1.9006,-1.7587,-1.6985,-1.6985,-1.7053,-1.7121,-1.7202,-1.7365,0.0,0.0,0.0,0.0,0.0,-1.7311,-1.746,0.0,-1.7989,-1.8287,-1.8599,0.0,0.0,0.0,0.0,-1.9766,-1.978,-1.9956,-2.0105,-2.0241,-2.0309,-2.0431,-2.0539,-2.0539,-2.0539,-2.0553,-2.0634,-2.0594,-2.0553,-2.0634,-2.0471,-2.0376,-2.0526,-2.0431,-1.928,-1.5928,-1.4584,-1.4258,-1.5471,-1.0105,-0.7287,-0.9229,-0.365,0.0,0.0,0.0,0.0,0.0,0.0,0.0,0.0,0.0,0.0,0.0,0.0,0.0,0.0,0.0,0.0,0.0,0.0,0.0,0.0,0.0,0.0,0.0,0.0,0.0,0.0,0.0,0.0,0.0,0.0,0.0,0.0,0.0,0.0,0.0,0.0,0.0,0.0,0.0,0.0,0.0,0.0,0.0,0.0,0.0,0.0,0.0,0.0,0.0,0.0,0.0,0.0,0.0,-3.1824,-3.2091,-3.2492,-3.3026,-3.3053,-3.316,-3.34,-3.3721,-3.1179,-2.6203,-2.5991,-2.2813,-1.7188,-1.7093,-1.7026,-1.6985,-1.7107,-1.7161,-1.7175,-1.7324,0.0,0.0,0.0,0.0,0.0,0.0,0.0,0.0,-1.788,-1.8233,-1.8572,-1.9006,0.0,0.0,0.0,0.0,0.0,-1.9902,-1.9983,-2.0105,-2.0282,-2.0431,-2.0539,-2.0539,-2.0539,-2.058,-2.0702,-2.0634,-2.0553,-2.0648,-2.0404,-2.0241,-2.0471,-2.0376,-1.9535,-1.7394,-1.7478,-1.7805,-1.9018,-1.1994,-0.8539,-1.1885,-0.4977,0.0,0.0,0.0,0.0,0.0,0.0,0.0,0.0,0.0,0.0,0.0,0.0,0.0,0.0,0.0,0.0,0.0,0.0,0.0,0.0,0.0,0.0,0.0,0.0,0.0,0.0,0.0,0.0,0.0,0.0,0.0,0.0,0.0,0.0,0.0,0.0,0.0,0.0,0.0,0.0,0.0,0.0,0.0,0.0,0.0,0.0,0.0,0.0,0.0,0.0,0.0,0.0,0.0,-3.2412,-3.2679,-3.3,-3.3347,-3.3347,-3.3374,-3.34,-3.3721,-3.2328,-2.94,-2.7102,-2.2813,-1.7202,-1.7311,-1.7216,-1.6985,-1.6998,-1.7012,-1.7026,-1.7175,0.0,0.0,0.0,0.0,0.0,0.0,0.0,0.0,-1.765,-1.8002,-1.8409,-1.8721,0.0,0.0,0.0,0.0,0.0,-2.0037,-1.9997,-1.9983,-2.0254,-2.0431,-2.0539,-2.0539,-2.0539,-2.0539,-2.058,-2.0553,-2.0471,-2.0241,-2.0349,-2.0458,-2.0376,-2.0729,-2.1303,-2.2232,-2.2397,-2.1669,-1.9053,-1.4911,-1.0846,-0.7398,-0.2934,0.0,0.0,0.0,0.0,0.0,0.0,0.0,0.0,0.0,0.0,0.0,0.0,0.0,0.0,0.0,0.0,0.0,0.0,0.0,0.0,0.0,0.0,0.0,0.0,0.0,0.0,0.0,0.0,0.0,0.0,0.0,0.0,0.0,0.0,0.0,0.0,0.0,0.0,0.0,0.0,0.0,0.0,0.0,0.0,0.0,0.0,0.0,0.0,0.0,0.0,0.0,-3.1851,-3.2412,-3.2545,-3.2973,-3.3267,-3.34,-3.3587,-3.3828,-3.4148,-3.4603,-3.2761,-2.8683,-2.3965,-2.0233,-1.7433,-1.7256,-1.7107,-1.6985,-1.6985,-1.6985,-1.6985,0.0,0.0,0.0,0.0,0.0,0.0,0.0,0.0,0.0,0.0,-1.7948,-1.8369,-1.8667,0.0,0.0,0.0,0.0,0.0,-1.9956,-1.9983,-2.0051,-2.0282,-2.0309,-2.0349,-2.0512,-2.0539,-2.0539,-2.0539,-2.0539,-2.0471,-2.0254,-2.0404,-2.0634,-2.0892,-2.1421,-2.2181,-2.3185,-2.3646,-2.2678,-1.9074,-1.5058,-1.1,-0.6734,-0.2586,0.0,0.0,0.0,0.0,0.0,0.0,0.0,0.0,0.0,0.0,0.0,0.0,0.0,0.0,0.0,0.0,0.0,0.0,0.0,0.0,0.0,0.0,0.0,0.0,0.0,0.0,0.0,0.0,0.0,0.0,0.0,0.0,0.0,0.0,0.0,0.0,0.0,0.0,0.0,0.0,0.0,0.0,0.0,0.0,0.0,0.0,0.0,0.0,0.0,0.0,0.0,-3.1984,-3.2465,-3.2545,-3.3026,-3.3347,-3.34,-3.3855,-3.4336,-3.487,-3.5645,-3.3298,-2.7837,-2.2042,-1.8726,-1.7731,-1.7283,-1.7039,-1.6985,-1.6985,-1.6985,-1.6985,0.0,0.0,0.0,0.0,0.0,0.0,0.0,0.0,0.0,0.0,0.0,0.0,0.0,0.0,0.0,-1.9373,-1.9144,-1.8877,-1.9615,-1.9396,-1.8993,-1.9964,-2.02,-2.0227,-2.0485,-2.058,-2.058,-2.0539,-2.058,-2.0526,-2.0309,-2.0485,-2.0878,-2.1584,-2.2181,-2.2764,-2.3402,-2.3809,-2.2491,-1.784,-1.4543,-1.0492,-0.5745,-0.192,0.0,0.0,0.0,0.0,0.0,0.0,0.0,0.0,0.0,0.0,0.0,0.0,0.0,0.0,0.0,0.0,0.0,0.0,0.0,0.0,0.0,0.0,0.0,0.0,0.0,0.0,0.0,0.0,0.0,0.0,0.0,0.0,0.0,0.0,0.0,0.0,0.0,0.0,0.0,0.0,0.0,0.0,0.0,0.0,0.0,0.0,0.0,0.0,0.0,0.0,0.0,-3.1797,-3.2251,-3.2545,-3.2839,-3.3133,-3.34,-3.4255,-3.4843,-3.5164,-3.658,-3.4326,-2.8753,-2.489,-2.1183,-1.8043,-1.7595,-1.7243,-1.6985,-1.6985,-1.6985,-1.6985,-1.6985,0.0,0.0,0.0,0.0,0.0,0.0,0.0,0.0,0.0,0.0,0.0,0.0,0.0,-1.9237,-1.9373,-1.7429,-1.5896,-1.9123,-1.7453,-1.5657,-1.9254,-2.0227,-2.0349,-2.0512,-2.0648,-2.0716,-2.058,-2.0648,-2.0634,-2.0187,-2.058,-2.1299,-2.2303,-2.2846,-2.3415,-2.4161,-2.4406,-2.1499,-1.3636,-1.2535,-0.9437,-0.125,-0.0314,0.0,0.0,0.0,0.0,0.0,0.0,0.0,0.0,0.0,0.0,0.0,0.0,0.0,0.0,0.0,0.0,0.0,0.0,0.0,0.0,0.0,0.0,0.0,0.0,0.0,0.0,0.0,0.0,0.0,0.0,0.0,0.0,0.0,0.0,0.0,0.0,0.0,0.0,0.0,0.0,0.0,0.0,0.0,-3.968,-3.8701,0.0,0.0,0.0,0.0,0.0,-3.1503,-3.1877,-3.2225,-3.2545,-3.2812,-3.3106,-3.34,-3.4656,-3.5885,-3.7088,-3.4387,-3.0664,-2.6025,-2.2098,-1.9403,-1.765,-1.7311,-1.708,-1.6985,-1.6985,-1.6985,-1.6985,-1.6985,-1.6985,0.0,0.0,0.0,0.0,0.0,0.0,0.0,0.0,-1.788,-1.8219,-1.8464,-1.8708,-1.8979,-1.9223,-1.6995,-1.5403,-1.8516,-1.6947,-1.5253,-1.8993,-1.9807,-1.9902,-2.0417,-2.0811,-2.1001,-2.0865,-2.1095,-2.1245,-2.0987,-2.119,-2.1706,-2.2547,-2.3307,-2.3904,-2.4297,-2.4555,-2.1594,-1.3246,-1.2338,-0.9233,-0.0919,0.0,0.0,0.0,0.0,0.0,0.0,0.0,0.0,0.0,0.0,0.0,0.0,0.0,0.0,0.0,0.0,0.0,0.0,0.0,0.0,0.0,0.0,0.0,0.0,0.0,0.0,0.0,0.0,0.0,0.0,0.0,0.0,0.0,0.0,0.0,0.0,0.0,0.0,0.0,0.0,0.0,0.0,0.0,0.0,0.0,0.0,-3.797,0.0,0.0,0.0,0.0,-3.1664,-3.1851,-3.2091,-3.2385,-3.2679,-3.3106,-3.3694,-3.5137,-3.658,-3.7969,-3.2969,-2.8461,-2.4555,-2.0576,-1.8355,-1.7758,-1.7311,-1.7175,-1.7256,-1.7107,-1.7053,-1.7053,-1.7053,-1.7026,0.0,0.0,0.0,0.0,0.0,0.0,0.0,0.0,-1.788,-1.8138,-1.8437,-1.864,-1.8816,-1.9115,-1.6317,-1.3902,-1.7893,-1.5965,-1.3862,-1.84,-1.9481,-1.9671,-2.0376,-2.0865,-2.1123,-2.1068,-2.1353,-2.1611,-2.1706,-2.1774,-2.2072,-2.2873,-2.3551,-2.4053,-2.4243,-2.4406,-2.138,-1.3063,-1.21,-0.9039,-0.0904,0.0,0.0,0.0,0.0,0.0,0.0,0.0,0.0,0.0,0.0,0.0,0.0,0.0,0.0,0.0,0.0,0.0,0.0,0.0,0.0,0.0,0.0,0.0,0.0,0.0,0.0,0.0,0.0,0.0,0.0,0.0,0.0,0.0276,0.0,0.0,0.0,0.0,0.0,0.0,0.0,0.0,-3.8812,-3.6625,-3.9007,0.0,0.0,0.0,0.0,0.0,-3.3149,0.0,-3.1664,-3.1664,-3.1797,-3.2091,-3.2385,-3.3106,-3.4282,-3.5752,-3.6794,-3.7408,-3.3126,-2.8884,-2.4913,-2.0901,-1.8816,-1.8477,-1.7758,-1.7582,-1.7826,-1.7378,-1.7188,-1.7188,-1.7188,-1.7107,-1.6998,0.0,0.0,0.0,0.0,0.0,0.0,0.0,-1.7962,-1.8138,-1.8437,-1.864,-1.8816,-1.9115,-1.4707,-1.102,-1.7123,-1.4295,-1.1043,-1.7518,-1.9332,-1.982,-2.0404,-2.0783,-2.1055,-2.119,-2.1353,-2.1638,-2.2235,-2.2221,-2.2411,-2.3307,-2.3578,-2.3782,-2.4066,-2.3985,-2.0846,-1.2734,-1.1834,-0.8585,-0.0891,0.0,0.0,0.0,0.0,0.0,0.0,0.0,0.0,0.0,0.0,0.0,0.0,0.0,0.0,0.0,0.0,0.0,0.0,0.0,0.0,0.0,0.0,0.0,0.0,0.0,0.0,0.0,0.0,0.0,0.0,0.0,0.0,0.0555,0.0,0.0,0.0,0.0,0.0,0.0,0.0,0.0,-3.9086,-3.6991,-4.08,0.0,0.0,0.0,0.0,0.0,0.0,-3.1664,-3.1664,-3.1664,-3.1904,-3.2385,-3.2492,-3.2893,-3.3668,-3.5137,-3.5663,-3.5046,-3.1831,-2.8027,-2.3318,-1.9949,-1.8179,-1.7582,-1.7582,-1.7568,-1.7541,-1.7297,-1.7256,-1.7338,-1.7243,-1.7229,-1.7297,0.0,0.0,0.0,0.0,0.0,0.0,0.0,0.0,0.0,-1.8247,-1.8409,-1.8531,-1.8938,-1.6144,-1.3714,-1.774,-1.5771,-1.3635,-1.8117,-1.9237,-1.9549,-2.0363,-2.0865,-2.1408,-2.2289,-2.2344,-2.2344,-2.2751,-2.2846,-2.294,-2.3117,-2.3524,-2.3822,-2.3822,-2.3768,-2.0715,-1.2646,-1.1705,-0.8476,-0.088,0.0,0.0,0.0,0.0,0.0,0.0,0.0,0.0,0.0,0.0,0.0,0.0,0.0,0.0,0.0,0.0,0.0,0.0,0.0,0.0,0.0,0.0,0.0,0.0,0.0,0.0,0.0,0.0,0.0,0.0,0.0,0.0,0.0555,0.0,0.0,0.0,0.0,0.0,0.0,-4.0335,-4.0745,-4.0658,-3.968,-4.2725,-4.3251,0.0,0.0,0.0,-3.4219,-3.2583,-3.1664,-3.1664,-3.177,-3.2011,-3.2358,-3.2599,-3.3106,-3.3935,-3.495,-3.5041,-3.4577,-3.1131,-2.6942,-2.2435,-1.9818,-1.8301,-1.7826,-1.8192,-1.8247,-1.8043,-1.7812,-1.7663,-1.7582,-1.75,-1.7473,-1.7514,0.0,0.0,0.0,0.0,0.0,0.0,0.0,0.0,0.0,-1.8192,-1.8314,-1.8369,-1.864,-1.6561,-1.4423,-1.6234,-1.5302,-1.4444,-1.6579,-1.8245,-1.9644,-2.0594,-2.1299,-2.2018,-2.2995,-2.2995,-2.2927,-2.3293,-2.3239,-2.3171,-2.3253,-2.347,-2.3592,-2.351,-2.3456,-2.0442,-1.2514,-1.1589,-0.8402,-0.0875,0.0,0.0,0.0,0.0,0.0,0.0,0.0,0.0,0.0,0.0,0.0,0.0,0.0,0.0,0.0,0.0,0.0,0.0,0.0,0.0,0.0,0.0,0.0,0.0,0.0,0.0,0.0,0.0,0.0,0.0,0.0,0.0,0.0843,0.0,0.0,-4.1172,-4.1172,0.0,-4.1484,-4.2305,-4.2812,-4.3242,-4.3633,-4.4492,-4.3079,0.0,0.0,0.0,-3.2016,-3.1664,-3.1664,-3.1664,-3.1904,-3.2064,-3.2091,-3.2679,-3.3561,-3.471,-3.495,-3.5084,-3.5084,-3.0466,-2.6288,-2.2422,-2.0008,-1.8871,-1.8762,-1.9183,-1.9223,-1.8952,-1.8599,-1.8233,-1.788,-1.7867,-1.7812,-1.7717,-1.784,0.0,0.0,0.0,0.0,0.0,0.0,0.0,0.0,-1.8192,-1.8301,-1.8314,-1.8355,-1.6413,-1.4247,-1.3715,-1.4043,-1.4483,-1.4507,-1.7127,-2.0051,-2.1068,-2.195,-2.2723,-2.3307,-2.3347,-2.3415,-2.3822,-2.347,-2.3225,-2.3578,-2.3402,-2.3185,-2.3171,-2.2764,-1.9789,-1.2346,-1.1207,-0.8079,-0.0583,0.0,0.0,0.0,0.0,0.0,0.0,0.0,0.0,0.0,0.0,0.0,0.0,0.0,0.0,0.0,0.0,0.0,0.0,0.0,0.0,0.0,0.0,0.0,0.0,0.0,0.0,0.0,0.0,0.0,0.0,0.0,0.0,0.1143,0.0,0.0,-4.1172,-4.1172,0.0,0.0,-4.2344,-4.2812,-4.3242,-4.3633,-4.4492,-4.3079,-3.8258,-3.8318,0.0,-3.2043,-3.1664,-3.1664,-3.1664,-3.1717,-3.1877,-3.2091,-3.2893,-3.3668,-3.4389,-3.4255,-3.4175,-3.4175,-2.9743,-2.6574,-2.504,-2.074,-1.8613,-1.8586,-1.8816,-1.8871,-1.8762,-1.8111,-1.7921,-1.8043,-1.7921,-1.7989,-1.8165,-1.807,-1.8016,0.0,0.0,0.0,0.0,0.0,0.0,0.0,-1.8043,-1.8219,-1.8369,-1.8599,-1.8007,-1.742,-1.7717,-1.7691,-1.7665,-1.8194,-1.9502,-2.0933,-2.1747,-2.2344,-2.2832,-2.3198,-2.3524,-2.3782,-2.3877,-2.389,-2.3754,-2.3375,-2.3171,-2.2981,-2.2723,-2.0117,-1.6416,-1.1888,-0.8865,-0.519,-0.0579,0.0,0.0,0.0,0.0,0.0,0.0,0.0,0.0,0.0,0.0,0.0,0.0,0.0,0.0,0.0,0.0,0.0,0.0,0.0,0.0,0.0,0.0,0.0,0.0,0.0,0.0,0.0,0.0,0.0,0.0,0.0,0.0,0.1145,0.0,0.0,0.0,0.0,0.0,0.0,0.0,0.0,-4.3633,-4.3437,-4.4336,-4.3079,-3.8258,-3.8564,0.0,0.0,-3.1664,-3.1664,-3.1664,-3.1797,-3.2064,-3.2492,-3.2946,-3.3427,-3.3881,-3.3748,-3.3668,-3.3668,-3.0188,-2.8223,-2.7773,-2.2642,-2.0456,-2.0682,-1.9641,-1.8952,-1.8749,-1.8355,-1.8192,-1.8192,-1.8111,-1.8219,-1.8409,-1.8247,-1.8165,-1.807,-1.7921,0.0,0.0,0.0,0.0,0.0,0.0,0.0,-1.8423,-1.845,-1.8423,-1.8182,-1.6597,-1.7384,-1.8803,-1.9468,-2.0336,-2.1136,-2.1665,-2.2249,-2.2723,-2.2954,-2.3429,-2.3782,-2.3782,-2.3687,-2.3483,-2.3171,-2.2886,-2.2055,-2.0202,-1.823,-1.4899,-0.9063,-0.6849,-0.4312,-0.0289,0.0,0.0,0.0,0.0,0.0,0.0,0.0,0.0,0.0,0.0,0.0,0.0,0.0,0.0,0.0,0.0,0.0,0.0,0.0,0.0,0.0,0.0,0.0,0.0,0.0,0.0,0.0,0.0,0.0,0.0,0.0,0.0,0.0867,0.0,0.0,0.0,0.0,0.0,0.0,0.0,0.0,0.0,-4.3242,-4.4258,-4.3079,-3.8258,-3.8564,-3.6975,0.0,0.0,0.0,-3.1664,-3.1931,-3.2358,-3.2946,-3.3026,-3.3213,-3.3561,-3.3507,-3.348,-3.348,-3.1463,-3.0684,-3.079,-2.5564,-2.3069,-2.3105,-2.1004,-1.956,-1.8762,-1.8654,-1.8491,-1.8314,-1.8314,-1.8423,-1.8545,-1.8409,-1.8287,-1.8138,-1.7962,-1.7894,-1.7894,-1.7894,0.0,0.0,0.0,0.0,-1.8477,-1.8233,-1.8314,-1.7726,-1.491,-1.656,-1.9047,-1.9712,-2.0404,-2.1014,-2.1394,-2.195,-2.2466,-2.2656,-2.3185,-2.3592,-2.3537,-2.3225,-2.294,-2.2832,-2.1949,-2.0294,-1.7204,-1.5557,-1.2566,-0.6233,-0.5116,-0.3423,-0.0287,0.0,0.0,0.0,0.0,0.0,0.0,0.0,0.0,0.0,0.0,0.0,0.0,0.0,0.0,0.0,0.0,0.0,0.0,0.0,0.0,0.0,0.0,0.0,0.0,0.0,0.0,0.0,0.0,0.0,0.0,0.0,0.0,0.0583,0.0,0.0,0.0,0.0,0.0,0.0,0.0,0.0,0.0,0.0,-4.4453,-4.3079,-3.8258,-3.8564,-3.6975,-3.2232,-3.1664,-3.1664,-3.1664,0.0,0.0,-3.2946,-3.3213,-3.3614,-3.4175,-3.3961,-3.3828,-3.3828,-3.3448,-3.3534,-3.4085,-2.901,-2.5328,-2.3088,-2.2942,-2.1341,-1.8721,-1.8192,-1.8111,-1.8314,-1.8314,-1.8477,-1.8708,-1.8572,-1.8491,-1.8437,-1.8165,-1.8057,-1.8057,-1.8057,-1.807,0.0,0.0,0.0,-1.8531,-1.8477,-1.8409,-1.8355,-1.7954,-1.8637,-1.9427,-1.978,-2.0241,-2.0783,-2.1475,-2.172,-2.1896,-2.2316,-2.2873,-2.3198,-2.294,-2.2859,-2.2642,-2.2113,-1.9229,-1.6962,-1.6316,-1.0935,-0.6616,-0.5558,-0.252,-0.0562,0.0,0.0,0.0,0.0,0.0,0.0,0.0,0.0,0.0,0.0,0.0,0.0,0.0,0.0,0.0,0.0,0.0,0.0,0.0,0.0,0.0,0.0,0.0,0.0,0.0,0.0,0.0,0.0,0.0,0.0,0.0,0.0,0.0,0.1166,0.0,0.0,0.0,0.0,0.0,0.0,0.0,0.0,0.0,0.0,0.0,-4.3154,-3.8558,-3.8679,-3.7194,-3.2043,-3.1824,-3.1904,-3.1904,-3.1877,-3.2198,-3.2946,-3.2946,-3.3213,-3.3801,-3.3694,-3.3614,-3.3614,-3.3961,-3.4442,-3.503,-3.3366,-3.002,-2.5403,-2.1928,-1.9876,-1.8491,-1.8138,-1.8124,-1.8314,-1.8314,-1.8342,-1.8396,-1.8491,-1.8369,-1.8165,-1.8192,-1.8165,-1.8111,-1.8192,-1.8219,-1.8247,-1.8464,0.0,0.0,0.0,-1.8423,-1.8437,-1.8423,-1.8721,-1.9128,-1.9427,-1.9902,-2.0417,-2.0933,-2.1299,-2.1597,-2.1787,-2.2113,-2.2357,-2.2398,-2.2194,-2.1937,-2.1665,-1.8593,-1.533,-1.3179,-0.867,-0.4652,-0.2493,-0.0835,0.0,0.0,0.0,0.0,0.0,0.0,0.0,0.0,0.0,0.0,0.0,0.0,0.0,0.0,0.0,0.0,0.0,0.0,0.0,0.0,0.0,0.0,0.0,0.0,0.1061,0.2633,0.0797,0.1072,0.2706,0.0827,0.0,0.0,0.0,0.0,0.0584,0.0,0.0,0.0,0.0,0.0,0.0,0.0,0.0,0.0,0.0,0.0,-4.3379,-3.8891,0.0,0.0,0.0,-3.2038,-3.2225,-3.2225,-3.2091,-3.2305,-3.2946,-3.2839,-3.2973,-3.34,-3.34,-3.34,-3.34,-3.4015,-3.4656,-3.5324,-3.5232,-3.2582,-2.7616,-2.2871,-2.0031,-1.8423,-1.8233,-1.8287,-1.8477,-1.8247,-1.8138,-1.8165,-1.826,-1.8124,-1.7894,-1.8165,-1.8165,-1.8057,-1.8247,-1.8314,-1.8342,-1.8477,-1.864,0.0,0.0,0.0,-1.8464,-1.8355,-1.8586,-1.8898,-1.9061,-1.9535,-2.0051,-2.0309,-2.0756,-2.1123,-2.119,-2.1285,-2.1408,-2.1665,-2.153,-2.1102,-1.9993,-1.7005,-1.3285,-0.9642,-0.6203,-0.2994,-0.0276,0.0,0.0,0.0,0.0,0.0,0.0,0.0,0.0,0.0,0.0,0.0,0.0,0.0,0.0,0.0,0.0,0.0,0.0,0.0,0.0,0.0,0.0,0.0528,0.1324,0.1324,0.2637,0.4973,0.3436,0.4262,0.6168,0.2739,0.1393,0.1131,0.0286,0.0,0.0,0.0,0.0,0.0,0.0,0.0,0.0,0.0,0.0,0.0,0.0,0.0,-4.4003,-3.9291,-3.962,-3.7821,-3.2475,-3.2358,-3.2519,-3.2519,-3.2759,-3.2919,-3.2973,-3.324,0.0,-3.34,-3.34,-3.34,-3.34,-3.4015,-3.4763,-3.5618,-3.3321,-3.0935,-2.8539,-2.8098,-2.4376,-1.8721,-1.8423,-1.8572,-1.8884,-1.8016,-1.7935,-1.826,-1.784,-1.7772,-1.788,-1.8043,-1.8002,-1.7921,-1.8219,-1.8314,-1.8342,-1.8477,-1.864,-1.8708,0.0,0.0,0.0,-1.8314,-1.8749,-1.9115,-1.8843,-1.9237,-1.9725,-1.9875,-2.0051,-2.0241,-2.0526,-2.0485,-2.0458,-2.0594,-2.0946,-2.0115,-1.6559,-1.2929,-0.9581,-0.59,-0.2422,-0.027,0.0,0.0,0.0,0.0,0.0,0.0,0.0,0.0,0.0,0.0,0.0,0.0,0.0,0.0,0.0,0.0,0.0,0.0,0.0,0.0,0.0,0.0,0.0,0.1827,0.4953,0.4953,0.4931,0.5414,0.8621,1.0021,0.984,0.6485,0.5225,0.4757,0.1404,0.0,0.0573,0.0,0.0,0.0,0.0,0.0,0.0,0.0,0.0,-4.4141,0.0,0.0,0.0,0.0,-3.9599,-3.7946,-3.2773,-3.2492,-3.2625,-3.2812,-3.2759,-3.2866,-3.324,-3.3187,-3.3213,-3.34,-3.34,-3.34,-3.34,-3.3828,-3.4496,-3.5351,-3.4834,-3.3369,-3.1197,-2.7115,-2.2859,-1.8884,-1.8586,-1.8545,-1.8654,-1.8138,-1.7907,-1.788,-1.7812,-1.7636,-1.7473,-1.7826,-1.7975,-1.8043,-1.8247,-1.8369,-1.8464,-1.8518,-1.8572,-1.8545,-1.8274,-1.8247,-1.8287,-1.807,-1.8396,-1.8749,-1.864,-1.8776,-1.902,-1.9359,-1.9413,-1.9468,-1.9766,-1.978,-1.9084,-1.7305,-1.8875,-1.9369,-1.6035,-1.2494,-0.9166,-0.5524,-0.2117,0.0,0.0,0.0,0.0,0.0,0.0,0.0,0.0,0.0,0.0,0.0,0.0,0.0,0.0,0.0,0.0,0.0,0.0,0.0,0.0,0.0,0.0,0.0,0.2328,0.388,0.5424,0.9808,1.1586,1.1563,1.065,1.1777,1.3437,0.9903,0.872,0.8888,0.7538,0.7049,0.7414,0.0,0.0,0.0,-4.4414,0.0,-4.3828,-4.4687,-4.4687,-4.4805,-4.5391,0.0,0.0,0.0,0.0,-3.7394,-3.3206,-3.2759,-3.2812,-3.3106,-3.2946,-3.3,-3.34,-3.324,-3.3213,-3.34,-3.34,-3.34,-3.34,-3.3828,-3.4442,-3.5217,-3.5805,-3.5015,-3.2662,-2.8355,-2.4551,-2.0605,-1.9407,-1.8871,-1.8871,-1.8247,-1.8016,-1.8002,-1.7894,-1.7745,-1.7623,-1.7962,-1.8097,-1.8097,-1.8138,-1.8233,-1.8301,-1.8301,-1.8342,-1.8342,-1.8138,-1.8192,-1.8274,-1.807,-1.8342,-1.8667,-1.8626,-1.8694,-1.8789,-1.8938,-1.8993,-1.8784,-1.7906,-1.777,-1.6707,-1.4012,-1.5197,-1.5655,-1.2554,-1.0078,-0.7278,-0.3906,-0.1304,0.0,0.0,0.0,0.0,0.0,0.0,0.0,0.0,0.0,0.0,0.0,0.0,0.0,0.0,0.0,0.0,0.0,0.0,0.0,0.0,0.0,0.0512,0.1805,0.412,0.6431,0.8742,1.3354,1.5408,1.5418,1.4224,1.5353,1.7004,1.3532,1.2406,1.2321,1.1299,1.0875,1.1001,-4.375,-4.4101,-4.457,-4.4961,-4.4687,-4.4687,-4.5547,-4.5312,-4.5351,-4.6172,0.0,0.0,0.0,0.0,0.0,-3.3627,-3.316,-3.3106,-3.34,-3.34,-3.34,-3.34,-3.34,-3.34,-3.34,-3.34,-3.34,-3.34,-3.4015,-3.4603,-3.5191,-3.5778,-3.4846,-3.2849,-3.2631,-2.9501,-2.44,-2.0911,-1.9508,-1.9535,-1.8355,-1.8233,-1.8694,-1.8097,-1.8043,-1.8314,-1.8464,-1.8342,-1.807,-1.7935,-1.788,-1.7894,-1.7894,-1.7989,-1.8097,-1.8097,-1.8219,-1.8342,0.0,0.0,0.0,-1.8816,-1.8979,-1.9074,-1.864,-1.8762,-1.7936,-1.4863,-1.4305,-1.3339,-1.0399,-1.0008,-0.8677,-0.5626,-0.5173,-0.4163,-0.0521,-0.0257,0.0,0.0,0.0,0.0,0.0,0.0,0.0,0.0,0.0,0.0,0.0,0.0,0.0,0.0,0.0,0.0,0.0,0.0,0.0,0.0,0.0,0.1792,0.5149,0.5406,0.8999,1.5408,1.5408,1.5663,1.5919,1.9395,2.077,2.054,1.7398,1.5969,1.5548,1.2153,1.1201,1.1348,-4.4648,-4.4766,-4.5,-4.543,-4.5156,-4.5039,-4.5586,-4.5586,-4.5586,0.0,0.0,0.0,-4.0204,-3.6937,-3.4556,-3.3748,-3.3694,-3.3561,-3.3427,-3.34,-3.34,-3.34,-3.34,-3.34,-3.34,-3.34,-3.34,-3.34,-3.3801,-3.4202,-3.4576,-3.5164,-3.5402,-3.499,-3.3164,-3.0312,-2.6825,-2.3758,-2.124,-1.9128,-1.8694,-1.8477,-1.8409,-1.8002,-1.784,-1.7867,-1.8002,-1.8192,-1.8396,-1.8247,-1.8477,-1.8803,-1.8586,-1.8396,-1.8247,-1.8247,-1.845,-1.864,-1.864,0.0,0.0,0.0,0.0,0.0,-1.8843,-1.8667,-1.7588,-1.4809,-1.4243,-1.2474,-0.7107,-0.6236,-0.5835,-0.4934,-0.7025,-0.7603,-0.4038,-0.3502,-0.2722,-0.0245,0.0,0.0,0.0,0.0,0.0,0.0,0.0,0.0,0.0,0.0,0.0,0.0,0.0,0.0,0.0,0.0,0.0,0.0,0.2539,0.409,0.5149,1.0268,1.361,1.5663,1.7958,1.8988,1.9255,2.0071,2.0661,2.0783,1.9935,1.9628,1.9854,1.8897,1.884,1.9062,-4.5078,-4.5156,-4.543,-4.5859,-4.5742,-4.5781,-4.6367,-4.6328,-4.6328,0.0,0.0,0.0,-3.7617,-3.5477,-3.4095,-3.3721,-3.3801,-3.3748,-3.3427,-3.34,-3.34,-3.34,-3.34,-3.34,-3.34,-3.34,-3.34,-3.34,-3.3855,-3.4148,-3.4336,-3.5057,-3.5618,-3.6099,-3.4701,-3.2514,-2.9641,-2.6769,-2.299,-1.9156,-1.8938,-1.8898,-1.8938,-1.864,-1.8545,-1.8572,-1.8531,-1.8694,-1.8843,-1.8464,-1.8518,-1.8694,-1.8464,-1.8396,-1.8409,-1.8409,-1.8626,-1.8843,-1.8843,-1.902,-1.9223,-1.9291,0.0,0.0,-1.8749,-1.8599,-1.7269,-1.2682,-1.1886,-0.9946,-0.3954,-0.2822,-0.3571,-0.6254,-0.8522,-0.9078,-0.7108,-0.5603,-0.4096,-0.2131,-0.0702,0.0,0.0,0.0,0.0,0.0,0.0,0.0,0.0,0.0,0.0,0.0,0.0,0.0,0.0,0.0,0.0754,0.227,0.4071,0.6661,0.9506,1.3646,1.6206,1.7715,1.9842,2.0594,2.0539,2.0539,2.0594,2.0702,2.0906,2.1109,2.1285,2.1489,2.172,2.1937,0.0,-4.5469,-4.5859,-4.6289,-4.6367,-4.668,-4.75,-4.7226,-4.7266,0.0,-4.3448,-3.8447,-3.4082,-3.4255,-3.4389,-3.3587,-3.3748,-3.3748,-3.3427,-3.34,-3.34,-3.34,-3.34,-3.34,-3.34,-3.34,-3.3427,-3.3454,-3.4042,-3.4336,-3.4389,-3.5191,-3.5752,-3.6046,-3.634,-3.482,-3.2149,-2.9662,-2.5355,-2.0259,-1.9351,-1.9345,-1.9766,-1.9495,-1.9576,-1.978,-1.9495,-1.9427,-1.9345,-1.8654,-1.8301,-1.8124,-1.8002,-1.8219,-1.8518,-1.8572,-1.8776,-1.9006,-1.9047,-1.9169,-1.9305,-1.9454,-1.9468,0.0,-1.864,-1.8694,-1.6999,-1.0476,-0.9443,-0.7781,-0.1615,-0.0931,-0.3046,-0.8775,-0.9492,-0.9742,-0.9812,-0.7138,-0.5169,-0.459,-0.1808,0.0,0.0,0.0,0.0,0.0,0.0,0.0,0.0,0.0,0.0,0.0,0.0,0.0,0.0,0.0495,0.2017,0.5043,0.5874,0.9506,1.5408,1.6014,1.782,2.0539,2.0689,2.0661,2.0539,2.0539,2.0539,2.058,2.0865,2.0987,2.1041,2.1313,2.153,2.1665,-4.5625,-4.5898,-4.6328,-4.6719,-4.6797,-4.7109,-4.7969,-4.7422,-4.7344,-4.8555,-4.4335,-3.9511,-3.5034,-3.4442,-3.4336,-3.4148,-3.3988,-3.3748,-3.3427,-3.34,-3.34,-3.34,-3.34,-3.34,-3.34,-3.34,-3.3534,-3.3801,-3.4148,-3.4442,-3.4683,-3.5084,-3.5431,-3.5725,-3.6019,-3.4734,-3.2091,-3.1677,-2.9222,-2.536,-2.1034,-1.9345,-1.9332,-1.9278,-1.9359,-1.9495,-1.9305,-1.9413,-1.9549,-1.9169,-1.8762,-1.8464,-1.8545,-1.8477,-1.8423,-1.8803,-1.8938,-1.9061,-1.9427,-1.963,-1.9752,-1.978,-1.9698,0.0,-1.9576,-1.9522,-1.8452,-1.4668,-1.3741,-1.1803,-0.5255,-0.6201,-0.8355,-0.9341,-0.9485,-1.0341,-1.2709,-1.0529,-0.7615,-0.4737,-0.1786,0.0,0.0,0.0,0.0,0.0,0.0,0.0,0.0,0.0,0.0,0.0,0.0,0.0,0.0,0.2713,0.4518,0.5081,1.0744,1.4121,1.5408,1.826,1.979,2.0539,2.058,2.058,2.0539,2.0539,2.0539,2.0553,2.0743,2.0892,2.1014,2.119,2.1421,2.1665,-4.5391,-4.5703,-4.6172,-4.6836,-4.7109,-4.7461,-4.8125,-4.7851,-4.7969,-4.9062,-4.5222,-4.0325,-3.5143,-3.4683,-3.4523,-3.3908,-3.3881,-3.3748,-3.3427,-3.34,-3.34,-3.34,-3.34,-3.348,-3.3641,-3.348,-3.3561,-3.3881,-3.4175,-3.4389,-3.4549,-3.5137,-3.5324,-3.5217,-3.5965,-3.5389,-3.4078,-3.302,-3.1681,-2.9868,-2.5373,-2.3641,-2.3624,-2.396,-2.418,-2.44,-2.4214,-2.3276,-2.1631,-1.9657,-1.8993,-1.8816,-1.8518,-1.8531,-1.8694,-1.8925,-1.9047,-1.9183,-1.9549,-1.9766,-1.9875,-1.9875,-1.9875,0.0,0.0,-1.9603,-1.8823,-1.5331,-1.4648,-1.3223,-0.8332,-0.875,-1.0143,-1.1562,-1.1678,-1.2718,-1.5659,-1.0975,-0.7006,-0.6637,-0.2634,0.0,0.0,0.0,0.0,0.0,0.0,0.0,0.0,0.0,0.0,0.0,0.0,0.0704,0.2381,0.4171,0.6752,1.0105,1.3783,1.6174,1.7981,1.9842,2.0607,2.0539,2.0634,2.0607,2.0539,2.0539,2.0539,2.0553,2.0716,2.0865,2.1014,2.1163,2.1353,2.157,-4.5,-4.5391,-4.5976,-4.6875,-4.7344,-4.7773,-4.8359,-4.832,-4.8148,-4.8025,-4.4968,-4.0795,-3.5061,-3.4763,-3.4736,-3.3988,-3.3801,-3.3748,-3.3828,-3.3507,-3.3293,-3.324,-3.3347,-3.348,-3.3614,-3.348,-3.3561,-3.3881,-3.4122,-3.4282,-3.4416,-3.5137,-3.5297,-3.5057,-3.5885,-3.6259,-3.6069,-3.4234,-3.3654,-3.3476,-3.0953,-2.9313,-2.8499,-2.8659,-2.9259,-2.9361,-2.8622,-2.6464,-2.3621,-2.0296,-1.9101,-1.9061,-1.8464,-1.8531,-1.8884,-1.902,-1.9101,-1.9196,-1.963,-1.9834,-1.9929,-1.9956,-2.0037,-1.9983,0.0,0.0,0.0,-1.5896,-1.548,-1.4606,-1.14,0.0,0.0,-1.3809,0.0,0.0,0.0,-1.1045,0.0,-0.8525,-0.3685,0.0,0.0,0.0,0.0,0.0,0.0,0.0,0.0,0.0,0.0,0.0,0.0687,0.2091,0.492,0.632,0.968,1.5,1.6013,1.7656,2.0458,2.0607,2.0594,2.0471,2.0594,2.058,2.0458,2.0485,2.0512,2.0526,2.0661,2.0838,2.1014,2.1123,2.1285,2.1435,-4.4961,-4.5391,-4.6055,-4.7305,-4.7539,-4.7969,-4.918,-4.8711,-4.6781,-4.28,-4.2559,-4.0607,-3.5333,-3.4549,-3.479,-3.5698,-3.4122,-3.3721,-3.5271,-3.3908,-3.2919,-3.2652,-3.3133,-3.3187,-3.2706,-3.316,-3.3561,-3.3881,-3.3908,-3.4202,-3.471,-3.4817,-3.5244,-3.5912,-3.5511,-3.5912,-3.6874,-3.6484,-3.6115,-3.5318,-3.6041,-3.359,-2.94,-2.942,-2.9724,-2.9538,-2.6233,-2.4691,-2.3654,-2.0411,-1.9115,-1.9006,-1.8925,-1.8654,-1.8531,-1.9183,-1.9115,-1.8993,-1.982,-2.0064,-2.0105,-2.0241,-2.0187,-2.0078,-2.001,0.0,-2.0064,-1.9607,0.0,-1.8435,-1.5073,0.0,0.0,-1.5086,0.0,0.0,-1.839,-1.3024,-0.8684,-0.8818,-0.3699,0.0,0.0,0.0,0.0,0.0,0.0,0.0,0.0,0.0,0.0,0.0,0.2716,0.4351,0.4645,1.0543,1.3925,1.4776,1.8124,1.9779,2.0159,2.0309,2.0295,2.0159,2.0173,2.0173,2.0159,2.0295,2.0349,2.0363,2.0512,2.0756,2.1001,2.1014,2.119,2.1435,-4.5,-4.5391,-4.6016,-4.7031,-4.7422,-4.793,-4.8984,-4.9258,-4.761,-4.2657,-4.259,-4.1108,-3.6339,-3.5511,-3.5591,-3.6259,-3.5378,-3.487,-3.511,-3.4416,-3.3801,-3.3347,-3.3721,-3.3908,-3.3828,-3.3748,-3.3828,-3.4148,-3.3961,-3.4095,-3.4496,-3.4683,-3.495,-3.5297,-3.5217,-3.5458,-3.5965,-3.666,-3.6927,-3.6981,-3.7809,-3.7012,-3.5202,-3.4411,-3.4435,-3.4371,-3.0688,-2.8344,-2.6275,-2.2724,-2.0474,-1.9169,-1.8749,-1.8708,-1.8884,-1.9115,-1.9169,-1.925,-1.9712,-2.0037,-2.02,-2.0105,-2.0159,-2.0187,-2.001,-2.0037,-2.0064,-1.9956,0.0,0.0,0.0,0.0,0.0,0.0,-1.6976,0.0,0.0,0.0,-1.1108,0.0,0.0,0.0,0.0,0.0,0.0,0.0,0.0,0.0,0.0,0.0,0.0894,0.2465,0.4082,0.6424,1.0184,1.3139,1.5635,1.7807,1.9398,2.0295,2.0241,2.0295,2.0241,2.0105,2.0105,2.0159,2.0241,2.0295,2.0376,2.0458,2.0526,2.0689,2.0878,2.096,2.1123,2.1313,-4.5195,-4.5469,-4.5937,-4.6797,-4.7187,-4.7695,-4.8555,-4.9219,-4.7911,-4.2957,-4.2655,-4.1265,-3.7019,-3.6473,-3.6767,-3.7515,-3.7008,-3.6446,-3.5885,-3.5324,-3.4603,-3.3668,-3.4068,-3.4309,-3.4282,-3.4095,-3.4122,-3.4309,-3.4122,-3.4148,-3.4442,-3.4656,-3.4897,-3.511,-3.5244,-3.5404,-3.5618,-3.666,-3.7195,-3.7515,-3.821,-3.8718,-3.9012,-3.8183,-3.805,-3.7752,-3.4439,-3.1033,-2.7907,-2.4411,-2.1587,-1.9223,-1.8721,-1.8776,-1.9006,-1.8993,-1.9074,-1.9237,-1.9522,-1.911,-1.886,-1.9722,-1.9319,-1.9135,-1.9669,-1.9956,-1.9983,-1.9766,-1.9712,0.0,0.0,0.0,-1.9169,-1.9033,0.0,-1.8654,0.0,-1.6316,0.0,0.0,0.0,0.0,0.0,0.0,0.0,0.0,0.0,0.0,0.0,0.0,0.1343,0.4488,0.5475,0.8766,1.4171,1.5309,1.7344,1.982,2.0119,2.0241,2.02,2.0241,2.0159,1.9983,1.9983,2.0064,2.02,2.0241,2.0349,2.0485,2.0526,2.0634,2.0783,2.0946,2.1082,2.1231,-4.5586,-4.5664,-4.5937,-4.6797,-4.6953,-4.7226,-4.8086,-4.8242,-4.6784,-4.2523,-4.2064,-4.0529,-3.6992,-3.7008,-3.8157,-4.0187,-3.9012,-3.829,-3.8584,-3.6714,-3.4817,-3.308,-3.3855,-3.3908,-3.3053,-3.3881,-3.4309,-3.4309,-3.4309,-3.4469,-3.4736,-3.4763,-3.5217,-3.6019,-3.5752,-3.5939,-3.65,-3.7114,-3.7061,-3.6607,-3.7489,-3.7863,-3.7969,-3.8798,-3.8771,-3.7752,-3.4439,-3.0923,-2.7748,-2.4516,-2.1292,0.0,0.0,0.0,-1.8599,-1.8898,-1.8776,-1.8694,-1.9278,-1.7102,-1.5777,-1.9267,-1.7482,-1.5907,-1.9136,-1.9875,-1.9875,-1.9875,-1.9875,-1.982,-1.9685,-1.9413,-1.9291,-1.959,-1.9156,0.0,0.0,-1.8586,-1.6828,-1.3632,0.0,0.0,0.0,0.0,0.0,0.0,0.0,0.0,0.0,0.0,0.134,0.4529,0.781,1.0932,1.4295,1.7531,1.9522,1.9685,1.9956,2.0037,1.9888,2.0051,1.9942,1.9685,1.9685,1.9752,1.9888,2.0051,2.02,2.0349,2.0485,2.0634,2.0783,2.0946,2.1082,2.1231,-4.5937,-4.6094,-4.6172,-4.6445,-4.6758,-4.7226,-4.8086,-4.8437,-4.8139,-4.703,-4.7366,-4.7323,-4.6545,-4.7008,-4.6876,-4.5467,-4.4884,-4.2996,-3.9595,-3.8477,-3.7328,-3.5939,-3.5805,-3.5725,-3.5591,-3.5324,-3.5191,-3.5191,-3.479,-3.4763,-3.5057,-3.4843,-3.5137,-3.5778,-3.5485,-3.5351,-3.5431,-3.658,-3.6981,-3.6927,-3.8611,-3.9172,-3.8905,-3.8263,-3.7969,-3.7689,-3.6259,-3.2382,0.0,-2.6824,-2.3041,-1.8993,-1.9047,-1.902,-1.8993,-1.9101,-1.9196,0.0,0.0,0.0,-1.8423,-1.9588,-1.9097,-1.8567,-1.9374,-1.9657,-1.9698,-1.9603,-1.9508,-1.9413,-1.9359,-1.9278,-1.9196,-1.9223,-1.9128,-1.9006,0.0,-1.8626,-1.656,-1.1212,-0.698,-0.3351,0.0,0.0,0.0,0.0,0.0,0.0,0.0,0.0,0.2458,0.7752,0.899,1.2125,1.7259,1.8774,1.9549,1.9807,1.9902,1.9983,2.0037,1.9983,1.9888,1.9807,1.9807,1.9942,2.0173,2.0227,2.0336,2.0485,2.0634,2.0716,2.0783,2.0946,2.1082,2.0968,-4.5976,-4.6211,-4.6367,-4.6484,-4.6641,-4.6992,-4.7851,-4.8867,-4.9474,-4.9253,-5.0534,-5.172,-5.1728,-5.2362,-5.1629,-4.8732,-4.8478,-4.5903,-4.0267,-4.0107,-3.9386,-3.7462,-3.7408,-3.7301,-3.6927,-3.65,-3.6046,-3.5618,-3.5351,-3.5271,-3.5351,-3.5057,-3.5164,-3.5618,-3.5645,-3.5378,-3.5004,-3.6473,-3.6981,-3.6954,-3.8931,-3.9599,-3.9332,-3.8263,-3.7969,-3.8023,0.0,-3.3836,-2.9427,-2.8214,-2.4482,-2.0299,-1.9435,-1.9006,-1.9061,-1.9115,-1.9278,-1.9413,-1.9359,-1.8658,0.0,-1.9468,-1.9019,0.0,-1.932,-1.959,-1.9603,-1.94,-1.9305,-1.9237,-1.9074,-1.9128,-1.9156,-1.9006,-1.9061,-1.902,0.0,-1.864,-1.6282,-1.0004,-0.7559,-0.4759,-0.0455,0.0,0.0,0.0,0.0,0.0,0.0,0.0,0.2909,0.9373,0.9505,1.2727,1.9223,1.9468,1.9712,1.9956,2.001,2.0037,2.001,2.0037,1.9983,1.9875,1.9929,2.0105,2.0336,2.0336,2.0417,2.0553,2.0716,2.0838,2.0946,2.1041,2.0364,1.8911,-4.5742,-4.6094,-4.6484,-4.6875,-4.6601,-4.6601,-4.7461,-4.9414,-5.0432,-4.9676,-5.2051,-5.3335,-5.2812,-5.3789,-5.3117,-5.0321,-5.0191,-4.7762,-4.1073,-4.171,-4.0909,-3.7782,-3.8691,-3.8611,-3.7195,-3.7355,-3.6874,-3.5752,-3.5965,-3.5912,-3.5645,-3.5351,-3.5351,-3.5645,-3.6233,-3.5992,-3.5244,-3.6714,-3.7061,-3.6767,-3.8477,-3.9145,-3.9145,-3.8878,-3.8718,-3.8611,-3.7702,-3.5355,-3.1924,-2.8519,-2.5629,-2.2909,-1.9875,-1.8884,-1.8803,-1.8952,-1.9006,-1.902,-1.9169,-1.7236,-1.5711,-1.8927,0.0,0.0,0.0,0.0,-1.9549,-1.9026,-1.9066,-1.9264,-1.861,-1.8993,-1.9128,-1.9006,-1.8993,-1.8884,-1.8599,-1.8694,-1.6425,-1.0092,-0.9315,-0.6924,-0.0685,0.0,0.0,0.0,0.0,0.0,0.0,0.0,0.2911,0.938,0.9851,1.2957,1.9657,1.9807,1.9942,2.0105,2.0241,2.0159,1.9888,2.0173,2.0159,1.9888,2.0051,2.02,2.0349,2.0349,2.0431,2.058,2.0743,2.096,2.1231,2.1245,1.8923,1.5301,-4.6836,-4.7187,-4.7187,-4.6953,-4.6601,-4.6601,-4.7461,-4.9414,-5.1795,-5.4436,-5.736,-5.9741,-6.1834,-6.2966,-6.1039,-5.5112,-5.4684,-5.1424,-4.3761,-4.3501,-4.2993,-4.1684,-4.1096,-4.0615,-4.0214,-3.8771,-3.7889,-3.7595,-3.634,-3.5805,-3.5939,-3.5431,-3.5244,-3.5324,-3.5912,-3.5565,-3.4656,-3.634,-3.7355,-3.7889,-3.8798,-3.9412,-3.9733,0.0,-3.8905,-3.8611,-3.7702,-3.5257,-3.2179,-2.8975,-2.576,-2.2909,-1.9875,-1.8884,-1.8816,-1.9074,-1.9156,-1.9183,-1.9318,-1.8771,-1.8671,-1.9414,-1.8862,-1.8555,0.0,0.0,0.0,0.0,0.0,0.0,-1.5726,-1.7172,-1.8871,-1.883,-1.8925,-1.8952,-1.8884,-1.8993,-1.6734,-1.0348,-0.9701,-0.7026,-0.0706,0.0,0.0,0.0,0.0,0.0,0.0,0.0,0.0,0.9463,0.9929,1.3067,1.982,1.9861,1.9942,2.0105,1.9929,1.9861,1.9875,1.9956,2.001,2.0051,2.02,2.0349,2.0485,2.0607,2.0689,2.0743,2.1001,2.1285,2.157,2.1665,1.7645,1.2244,-4.6875,-4.7344,-4.7461,-4.6992,-4.75,-4.8242,-4.8906,-5.0195,-5.2266,-5.5586,-5.8828,-6.1601,-6.3672,-6.4189,-6.2205,-5.682,-5.4974,-5.1028,-4.4353,-4.4516,-4.4249,-4.3127,-4.2726,-4.2138,-4.1336,-3.9706,-3.8477,-3.7676,-3.6313,-3.5645,-3.5672,-3.5217,-3.5004,-3.503,-3.5752,-3.5565,-3.479,-3.6019,-3.7114,-3.8103,-3.8584,-3.9038,0.0,-3.9092,-3.8878,-3.8611,-3.7702,-3.6155,-3.3959,-2.9491,-2.6727,-2.4482,-2.0328,-1.8938,-1.8898,-1.9128,-1.9196,-1.9223,-1.9305,-1.9481,-1.963,-1.9508,-1.9508,-1.9481,-1.9291,-1.9223,-1.8642,0.0,-1.7613,-1.8218,0.0,-1.732,-1.8586,-1.8654,-1.8843,-1.8993,-1.8993,-1.9223,-1.6971,-1.0443,-0.9662,-0.723,-0.0726,0.0,0.0,0.0,0.0,0.0,0.0,0.0,0.0,0.7455,0.9089,1.25,1.7802,1.9254,2.001,2.0105,1.9929,1.9861,1.9875,2.001,2.0119,2.02,2.0363,2.0512,2.0648,2.0743,2.0811,2.0892,2.119,2.1489,2.1774,2.1842,1.7191,1.0894,-4.6523,-4.7109,-4.7539,-4.7148,-4.8867,-5.0508,-5.1211,-5.1875,-5.3164,-5.5586,-5.8789,-6.1172,-6.207,-6.1434,-5.9719,-5.6425,-5.3083,-4.878,-4.4111,-4.497,-4.4997,-4.3447,-4.3795,-4.3233,-4.1603,-4.0214,-3.8718,-3.7168,-3.6046,-3.5404,-3.5191,-3.495,-3.479,-3.479,-3.5645,-3.5698,-3.5244,-3.5778,-3.6607,-3.7569,-3.7889,-3.8263,-3.8531,-3.8531,-3.8531,-3.8424,-3.7676,-3.7221,-3.6093,-3.0329,-2.8296,-2.6994,-2.1186,-1.9159,-1.8952,-1.9128,-1.9169,-1.9156,-1.9183,-1.94,-1.9535,-1.9237,-1.9359,-1.9454,-1.9047,-1.902,-1.8717,-1.7993,-1.8289,-1.8518,0.0,0.0,-1.8342,-1.8518,-1.8776,-1.8979,-1.8993,-1.9359,-1.7126,-1.0472,-0.9819,0.0,-0.0741,0.0,0.0,0.0,0.0,0.0,0.0,0.0,0.0,0.54,0.8463,1.1923,1.5729,0.0,2.0078,2.0105,2.0064,1.9983,1.9888,2.0173,2.0309,2.0336,2.0485,2.0607,2.0743,2.077,2.0878,2.1055,2.1353,2.1638,2.1869,2.1882,1.7418,1.1636,-4.7226,-4.7773,-4.8086,-4.8008,-4.9492,-5.1445,-5.3672,-5.5547,-5.7265,-5.8828,-6.1406,-6.3437,-6.4297,-6.1807,-5.8907,-5.5628,-5.2554,-4.8925,-4.5293,-4.5237,-4.5237,-4.4943,-4.4329,-4.3634,-4.2806,-4.0214,-3.8718,-3.8397,-3.6072,-3.5004,-3.5191,-3.5137,-3.5004,-3.479,-3.5431,-3.5511,-3.5217,-3.5565,-3.5832,-3.6046,-3.658,-3.7114,-3.7595,-3.7595,-3.7595,-3.7595,-3.7462,-3.7355,-3.6748,-3.2678,-2.9748,-2.7163,-2.3411,-2.0667,-1.8667,-1.8938,-1.8938,-1.8884,-1.9128,-1.9237,-1.9237,-1.9074,-1.8979,-1.8898,-1.8816,-1.864,-1.7791,-1.5017,-1.6499,-1.7504,-1.4674,0.0,0.0,-1.8491,-1.8694,-1.8843,-1.8979,-1.9278,-1.7054,-1.0538,-0.991,-0.7235,-0.0739,0.0,0.0,0.0,0.0,0.0,0.0,0.0,0.0,0.0,0.9669,0.0,0.0,0.0,1.9983,2.0105,1.9861,1.978,1.9875,2.0064,2.02,2.0336,2.0485,2.0553,2.0594,2.0716,2.0933,2.1218,2.1516,2.1665,2.172,2.1842,1.8992,1.4767,-4.7812,-4.8242,-4.875,-4.9453,-5.1172,-5.3359,-5.5937,-5.8164,-5.9375,-5.8828,-6.0273,-6.1601,-6.2226,-5.8966,-5.6085,-5.4899,-5.0101,-4.6685,-4.4863,-4.4997,-4.5024,-4.4863,-4.4302,-4.3581,-4.2646,-4.0374,-3.8878,-3.8263,-3.6072,-3.4977,-3.4977,-3.4977,-3.4897,-3.479,-3.5217,-3.5485,-3.5618,-3.5324,0.0,-3.5859,-3.5992,-3.6393,-3.6954,-3.6954,-3.6954,-3.6901,-3.6767,-3.6687,-3.622,-3.3151,-3.1179,-2.9256,-2.4424,-2.1912,-2.0621,-1.9254,-1.8816,-1.8776,-1.883,-1.8925,-1.8925,-1.8694,-1.864,-1.8599,-1.845,-1.8369,-1.7835,-1.6151,-1.6989,-1.761,-1.5958,-1.7201,0.0,0.0,-1.8749,-1.9006,-1.9101,-1.9359,-1.7829,-1.2934,-1.0843,-0.7935,-0.2935,-0.0968,0.0,0.0,0.0,0.0,0.0,0.0,0.0,0.0,0.0,0.0,0.0,0.0,0.0,2.0105,1.9807,1.978,1.9997,2.0064,2.0227,2.0431,2.0512,2.0594,2.0689,2.0906,2.1082,2.1231,2.1462,2.1597,2.1665,2.1652,2.0476,1.8211,-4.9668,-4.9511,-5.0032,-5.1983,-5.3644,-5.543,-5.7539,-5.9648,-6.043,-5.9023,-5.9375,-5.9883,-6.0312,-5.5976,-5.3421,-5.3917,-4.7941,-4.4356,-4.4436,-4.465,-4.465,-4.4356,-4.4008,-4.3287,-4.2138,-4.0401,-3.8905,-3.7702,-3.6099,-3.5057,-3.4576,-3.4763,-3.479,-3.4683,-3.4977,-3.5244,0.0,0.0,-3.5137,-3.5698,-3.5511,-3.5805,-3.6313,-3.6313,-3.6366,-3.6393,-3.6153,-3.6072,-3.5666,-3.359,-3.2344,-3.1019,-2.5442,-2.3432,-2.2366,-1.9633,-1.8749,-1.8694,-1.8599,-1.864,-1.8654,-1.8396,-1.8369,-1.8369,-1.8111,-1.8138,-1.8165,-1.7921,-1.7948,-1.8016,-1.7935,-1.8111,0.0,0.0,-1.8762,-1.9115,-1.9156,-1.9413,-1.8326,-1.4782,-1.1812,-0.8433,-0.507,-0.1933,0.0,0.0,0.0,0.0,0.0,0.0,0.0241,0.0,0.0,0.9866,1.1292,0.0,1.8312,1.9096,1.8813,1.8826,1.9096,1.9843,2.0254,2.0539,2.0539,2.0607,2.0743,2.1001,2.1136,2.1177,2.134,2.1489,2.1597,2.1489,2.1408,2.0283,-5.4546,-5.3012,-5.2459,-5.6863,-5.7056,-5.7148,-5.7734,-5.9336,-6.0859,-6.1836,-6.168,-6.164,-6.207,-5.6146,-5.2186,-5.2876,-4.7504,-4.4142,-4.4436,-4.4463,-4.4356,-4.4035,-4.3501,-4.2752,-4.1844,-4.0107,-3.8611,-3.7408,-3.6179,-3.503,-3.3988,-3.479,-3.487,-3.4362,0.0,0.0,0.0,-3.4442,-3.4656,-3.4496,-3.4736,-3.5191,-3.5698,-3.5698,-3.5885,-3.6099,-3.6072,-3.6072,-3.6046,-3.5349,-3.3676,-3.0987,-2.768,-2.4771,-2.2186,-1.959,-1.8654,-1.8586,-1.8708,-1.8654,-1.8518,-1.8355,-1.8233,-1.8097,-1.7921,-1.7894,-1.7894,-1.7867,-1.788,-1.7921,-1.8043,-1.8097,-1.8165,0.0,0.0,-1.8843,-1.8993,-1.9278,-1.8173,-1.4668,-1.1596,-0.8421,-0.4959,-0.1685,0.0,0.0,0.0,0.0,0.0,0.0,0.1447,0.4571,0.0,0.8351,1.4887,1.207,1.2477,1.556,1.5339,1.5339,1.5821,1.8835,2.0254,2.0539,2.0539,2.0539,2.058,2.0743,2.0892,2.1041,2.1177,2.134,2.1462,2.1435,2.1258,1.9986,-5.8534,-5.674,-5.5983,-5.8809,-5.791,-5.7344,-5.8828,-5.9648,-6.0312,-6.1094,-6.1055,-6.0284,-5.8537,-5.4281,-5.0832,-4.9373,-4.573,-4.3501,-4.3634,-4.3955,-4.3955,-4.3501,-4.3233,-4.2592,-4.1523,-4.0481,-3.9199,-3.7622,-3.6821,-3.5805,-3.4683,-3.4843,-3.471,0.0,0.0,-3.3881,-3.3694,-3.3881,-3.4095,-3.4336,-3.4442,-3.4843,-3.5378,-3.5378,-3.5431,-3.5538,-3.5538,-3.5538,-3.5538,-3.5404,-3.4685,-3.3143,-2.831,-2.6192,-2.4379,-1.992,-1.864,-1.864,-1.8531,-1.845,-1.8355,-1.8111,-1.8002,-1.7935,-1.788,-1.7867,-1.7867,-1.7867,-1.7935,-1.8016,-1.807,-1.8233,-1.8369,0.0,0.0,0.0,-1.8993,-1.9101,-1.7918,-1.4686,-1.1528,-0.8195,-0.4898,-0.1894,0.0,0.0,0.0,0.0,0.0,0.0,0.0,0.1955,0.0,0.632,0.9194,0.978,1.067,1.2137,1.1759,1.2997,1.5114,1.6502,1.8485,2.0539,2.0539,2.0539,2.0553,2.0702,2.0865,2.1014,2.1163,2.1299,2.1421,2.134,2.1177,2.0194,-6.2732,-6.0238,-5.8789,-6.1435,-5.9516,-5.793,-5.957,-5.9805,-5.9922,-6.0195,-6.0156,-5.8939,-5.5983,-5.2981,-4.9864,-4.6855,-4.4488,-4.302,-4.3207,-4.3527,-4.3527,-4.3127,-4.302,-4.2485,-4.1363,-4.0882,-3.9733,-3.7969,-3.7355,-3.6393,-3.5057,-3.4576,0.0,0.0,-3.3614,-3.3507,-3.3614,-3.348,-3.3774,-3.4309,-3.4309,-3.4683,-3.5191,-3.5191,-3.5191,-3.5217,-3.5297,-3.5271,-3.5217,-3.5297,-3.5404,-3.4419,-2.8597,-2.6814,-2.5904,-2.0061,-1.864,-1.8708,-1.845,-1.8355,-1.8247,-1.8002,-1.7867,-1.7812,-1.784,-1.7826,-1.7826,-1.7921,-1.8057,-1.8165,-1.8165,-1.8409,-1.8586,-1.8531,0.0,0.0,0.0,-1.8952,-1.7702,-1.4539,-1.2321,-0.924,-0.5071,-0.2808,-0.0947,0.0,0.0,0.0,0.0,0.0,0.0,0.0,0.0,0.0,0.0,0.652,0.7682,0.86,0.8516,0.973,1.2045,1.4254,1.7229,2.0485,1.9496,1.8975,1.8937,1.9088,1.9251,1.9675,2.0794,2.119,2.1353,2.1218,2.1041,2.0322,-6.7105,-6.2986,-6.0761,-6.5787,-6.2441,-5.9297,-5.9765,-5.9805,-5.9805,-5.9805,-5.9453,-5.8211,-5.528,-5.257,-4.9607,-4.6825,-4.4292,-4.2913,-4.3501,-4.326,-4.31,-4.31,-4.2806,-4.2245,-4.1363,-4.1042,-4.0027,-3.8263,-3.7676,-3.6473,-3.4736,0.0,-3.3427,-3.3427,-3.3427,-3.3267,-3.3,-3.3293,-3.3774,-3.4309,-3.4309,-3.4683,-3.5191,-3.5191,-3.5191,-3.5244,-3.5511,-3.5431,-3.5244,-3.5538,-3.5431,-3.416,-2.8554,-2.6814,-2.5904,-2.0061,-1.864,-1.8721,-1.8572,-1.8423,-1.8287,-1.8124,-1.7867,-1.769,-1.7826,-1.7758,-1.7731,-1.8016,-1.8219,-1.8314,-1.8314,-1.8572,-1.8708,-1.8545,0.0,0.0,0.0,-1.8871,-1.7588,-1.4539,-1.4154,-1.1703,-0.5227,-0.4669,-0.3535,0.0,0.0,0.0,0.0,0.0,0.0,0.0,0.0,0.0,0.5091,0.176,0.1739,0.5167,0.5088,0.5095,0.542,1.232,1.7264,2.0084,1.6894,1.5337,1.5245,1.5367,1.5541,1.6245,1.9535,2.0946,2.119,2.1055,2.0811,2.0031,-7.0339,-6.6081,-6.3077,-6.4996,-6.107,-5.7969,-5.8437,-5.8476,-5.8594,-5.8906,-5.8555,-5.6662,-5.2014,-5.0755,-4.8443,-4.3088,-4.221,-4.2218,-4.2619,-4.2726,-4.2806,-4.2806,-4.446,-4.5202,-4.4454,-4.6254,-4.5493,-4.1717,0.0,0.0,0.0,-3.3828,-3.34,-3.34,-3.3213,-3.316,-3.3293,-3.3614,-3.3961,-3.4336,-3.4549,-3.4843,-3.5191,-3.5191,-3.5191,-3.5217,-3.5297,-3.5271,-3.5217,-3.5297,-3.3974,-3.1509,-2.7691,-2.6674,-2.5884,-2.0154,-1.8572,-1.8708,-1.8464,-1.8355,-1.8247,-1.8002,-1.7785,-1.769,-1.7826,-1.7921,-1.7989,-1.807,-1.8287,-1.8464,-1.8464,-1.8626,-1.8749,-1.8694,-1.8776,0.0,-1.8694,0.0,-1.7371,-1.4191,-1.1975,-0.9213,-0.4989,-0.2775,0.0,0.0,0.0,0.0,0.0,0.0,0.0,0.0,0.0,0.0,0.1508,0.0498,0.0492,0.17,0.1691,0.3883,0.8606,1.3177,1.5799,1.6886,1.575,1.4,1.1939,1.2027,1.3425,1.5871,1.6872,1.8797,2.0767,1.8183,1.8564,2.0004,-7.161,-6.7244,-6.3701,-6.4371,-6.0281,-5.7109,-5.7539,-5.7617,-5.7734,-5.8008,-5.7773,-5.6132,-5.1831,-5.0487,0.0,-4.1372,-4.1336,-4.1737,-4.2031,-4.2111,-4.2697,-4.404,-4.57,-4.6949,-4.7641,-4.9267,0.0,-4.5358,-4.3124,-3.9545,-3.4576,-3.3908,-3.3534,-3.34,-3.3213,-3.324,-3.3427,-3.3748,-3.4042,-3.4336,-3.4656,-3.495,-3.5191,-3.5191,-3.5191,-3.5217,-3.5458,-3.5378,-3.5217,-3.5458,-3.3412,-3.0419,-2.7392,-2.5957,-2.453,-1.9658,-1.8491,-1.8626,-1.8396,-1.8314,-1.8247,-1.7935,-1.7758,-1.769,-1.7826,-1.807,-1.8247,-1.8247,-1.8491,-1.8694,-1.8626,-1.8749,-1.883,-1.8776,-1.8762,-1.8694,-1.8477,0.0,-1.7091,-1.3808,0.0,0.0,0.0,-0.2775,-0.1402,0.0,0.0,0.0,0.0,0.0,0.0,0.0,0.0,0.0,0.0,0.0,0.0,0.0,0.0,0.3635,1.0029,1.207,1.391,1.501,1.3869,1.1387,0.8357,0.9691,1.1571,1.4003,1.6549,1.8148,1.8723,1.644,1.6045,1.6201,-7.1008,-6.6677,-6.3407,0.0,-5.9907,0.0,-5.707,-5.7109,-5.7109,-5.7148,-5.7148,-5.6333,-5.3975,-5.1063,-4.6994,-4.1507,0.0,0.0,0.0,-4.1443,-4.2875,-4.6304,-4.6251,-4.761,-5.0586,-5.0788,-5.0222,-4.8895,-4.3582,-3.8888,-3.4568,-3.4042,-3.3721,-3.34,-3.34,-3.3427,-3.3454,-3.3801,-3.4095,-3.4389,-3.4683,-3.4977,-3.5191,-3.5191,-3.5191,-3.5271,-3.5805,-3.5672,-3.5271,-3.5832,-3.3665,-3.0228,-2.7434,-2.4678,-2.1896,-1.8994,-1.8423,-1.8491,-1.8355,-1.8314,-1.8233,-1.7935,-1.7772,-1.7717,-1.784,-1.8233,-1.8545,-1.8545,-1.8776,-1.8938,-1.8803,-1.8871,-1.8925,-1.8762,-1.8721,-1.8626,-1.8314,-1.8043,-1.6799,0.0,0.0,0.0,-0.5274,-0.4655,-0.3259,0.0,0.0,0.0,0.0,0.0,0.0,0.0,0.0,0.0,0.0,0.0,0.0,0.0,0.0,0.3385,0.9723,0.9791,1.1587,1.4148,1.1257,0.8044,0.4785,0.8357,1.0248,1.1146,1.7483,1.8212,1.5632,1.5255,1.2812,0.9941,0.0,0.0,-6.2376,-6.3165,-5.8702,-5.539,-5.6133,-5.5976,-5.5976,-5.664,-5.6445,-5.5567,-5.3541,-5.046,-4.7219,-4.3928,-4.1934,-4.0802,-4.1096,-4.1042,-4.257,-4.5977,-4.8058,-5.0653,-5.366,-5.5978,-5.5282,-5.1499,-4.4417,-4.0152,-3.8221,-3.5225,-3.3721,-3.34,-3.34,-3.3534,-3.3801,-3.4336,-3.4603,-3.471,-3.5217,-3.5324,-3.5191,-3.5191,-3.5191,-3.5217,-3.5351,-3.5324,-3.5217,-3.5351,-3.1964,-2.7684,-2.6994,-2.3449,-1.9348,-1.8568,-1.8423,-1.8491,-1.8355,-1.8233,-1.8097,-1.7921,-1.7935,-1.8002,-1.8016,-1.8396,-1.8708,-1.8708,-1.8843,-1.8938,-1.8803,-1.8694,-1.8626,-1.8586,-1.8396,-1.8179,-1.8002,-1.7921,-1.7619,0.0,-1.2644,-0.9393,-0.8016,-0.3705,-0.0935,0.0,0.0,0.0,0.0,0.0,0.0,0.0,0.0,0.0,0.0,0.0,0.0,0.0,0.0,0.2178,0.6325,0.8759,0.8808,0.7399,0.9191,0.6506,0.1515,0.4821,0.7925,1.0809,1.4809,1.6035,1.5002,1.2295,1.0714,0.9687,-6.7947,-6.4273,-6.1319,-6.092,-5.7596,-5.4844,-5.5273,-5.5156,-5.5273,-5.5898,-5.4686,-5.3998,-5.5206,-5.0097,-4.6662,-4.6931,-4.2939,-4.0535,-4.0695,-4.0722,-4.291,-4.7569,-4.9245,-5.2117,-5.6439,-5.8283,-5.6726,-5.1802,-4.6042,-4.1751,-3.9046,-3.5911,-3.4122,-3.3828,-3.3828,-3.3988,-3.4309,-3.4763,-3.503,-3.5191,-3.5511,-3.5538,-3.5378,-3.5244,-3.5191,-3.5217,-3.5351,-3.5297,-3.5033,-3.3966,-3.0642,-2.6614,-2.561,-2.2302,-1.883,-1.8749,-1.864,-1.8491,-1.8355,-1.8219,-1.807,-1.7989,-1.807,-1.8233,-1.8369,-1.8694,-1.8938,-1.8884,-1.8993,-1.902,-1.8803,-1.864,-1.8518,-1.8437,-1.8179,-1.7921,-1.769,-1.7663,0.0,-1.765,-1.2363,-0.8903,-0.8976,-0.3487,0.0,0.0,0.0,0.0,0.0,0.0,0.0,0.0,0.0,0.0,0.0,0.0,0.0,0.0,0.0,0.1688,0.5056,0.6758,0.6559,0.49,0.6906,0.4736,0.0505,0.531,0.8632,1.073,1.5518,1.5676,1.2804,1.067,0.8165,0.5199,-6.5279,-6.2732,-6.0342,-5.8789,-5.6375,-5.4609,-5.4687,-5.4687,-5.4844,-5.5234,-5.2786,-5.2737,-5.736,-5.0097,-4.6323,-5.0122,-4.5115,-4.1396,-4.0481,-4.0939,-4.3772,-4.9557,-5.0288,-5.3115,-5.8333,-5.8711,-5.6306,-5.115,-4.7502,-4.3463,-3.8836,-3.5983,-3.4603,-3.4336,-3.4362,-3.4549,-3.4843,-3.5639,-3.591,-3.5698,-3.6153,-3.6126,-3.5591,-3.5297,-3.5191,-3.5217,-3.5485,-3.5458,-3.498,-3.235,-2.9513,-2.6788,-2.4006,-2.1368,-1.9278,-1.9278,-1.8966,-1.8599,-1.8423,-1.8274,-1.8124,-1.8138,-1.8274,-1.8464,-1.8762,-1.9047,-1.9196,-1.9047,-1.9115,-1.9101,-1.8776,-1.8599,-1.8464,-1.8301,-1.8002,-1.7717,-1.7487,0.0,-1.7514,-1.7663,-1.2791,-0.9352,-0.9267,-0.398,-0.0472,0.0,0.0,0.0,0.0,0.0,0.0,0.0,0.0,0.0,0.0,0.0,0.0,0.0,0.0,0.1441,0.4291,0.4788,0.4587,0.414,0.4652,0.298,0.0505,0.7542,1.0098,1.0666,1.7504,1.6081,0.9914,1.0077,0.5654,0.0,-6.5279,-6.2732,-6.0342,-5.8789,-5.6133,-5.4258,-5.4609,-5.4687,-5.4844,-5.5234,-5.327,-5.3035,-5.6793,-5.2007,-4.9722,-5.3025,-5.032,-4.6063,-4.0939,-4.3025,-4.6094,-4.9589,-5.2372,-5.5199,-5.8333,-5.7539,-5.5084,-5.115,-4.7228,-4.3366,-3.9401,-3.6301,-3.4603,-3.4336,-3.4576,-3.487,-3.5375,-3.8667,-3.8497,-3.6235,-3.9012,-3.8383,-3.5591,-3.5297,-3.5191,-3.5191,-3.5244,-3.5565,-3.5508,-3.2471,-2.995,-2.7656,-2.4633,-2.1795,-1.959,-1.959,-1.9359,-1.9047,-1.8762,-1.8491,-1.8314,-1.8423,-1.8586,-1.8776,-1.9061,-1.9278,-1.9359,-1.9196,-1.9183,-1.9074,-1.864,-1.845,-1.8301,-1.8138,-1.7772,-1.7514,-1.7595,0.0,-1.7663,-1.7812,-1.5011,-1.2046,-0.9356,-0.6139,-0.2859,-0.024,0.0,0.0,0.0,0.0,0.0,0.0,0.0,0.0,0.0,0.0,0.0,0.0,0.0,0.0241,0.0963,0.3584,0.3364,0.0976,0.3658,0.2963,0.0505,0.7542,1.0098,1.0666,1.7398,1.5951,1.0077,1.0001,0.5623,0.0,-6.2128,-6.0792,-5.9212,-5.6327,-5.456,-5.3828,-5.4258,-5.4531,-5.4844,-5.5234,-5.1872,-5.1364,-5.6677,-5.0932,-4.8604,-5.3407,-5.144,-4.8654,-4.5589,-4.6773,-4.9122,-5.2142,-5.3786,-5.5578,-5.8164,-5.6914,-5.5032,-5.2666,-4.7617,-4.4057,-4.1771,-3.7348,-3.5244,-3.5271,-3.5404,-3.6443,-3.8425,-4.0113,-4.0017,-3.8826,-4.0054,-3.8511,-3.5591,-3.5297,-3.5191,-3.5217,-3.5378,-3.5698,-3.5449,-3.082,-2.8895,-2.7426,-2.3134,-2.0916,-1.978,-1.9875,-1.9522,-1.9047,-1.8816,-1.8654,-1.8626,-1.883,-1.8938,-1.9074,-1.9373,-1.9508,-1.9481,-1.925,-1.9156,-1.8979,-1.8599,-1.8355,-1.8138,-1.7989,-1.7663,0.0,0.0,-1.7595,-1.7758,-1.807,-1.5728,-1.3645,-1.2092,-0.763,-0.4322,-0.2664,-0.0974,0.0,0.0,0.0,0.0,0.0,0.0,0.0,0.0,0.0,0.0,0.0,0.0,0.0,0.0,0.1667,0.1435,0.0,0.1701,0.2463,0.3257,0.8283,1.1326,1.3116,1.8027,1.5831,1.0001,0.9682,0.5603,0.0,-5.9567,-5.8729,-5.7418,-5.3965,-5.3359,-5.3516,-5.3945,-5.4492,-5.4961,-5.5273,-5.1226,-5.0671,-5.6461,-5.0794,-4.8636,-5.4309,-5.3009,-5.1808,-5.1911,-5.1911,-5.2832,-5.4436,-5.4973,-5.6215,-5.7851,-5.6484,-5.4816,-5.3114,-4.7896,-4.4397,-4.2947,-3.807,-3.5912,-3.6072,-3.7127,-3.8782,-4.1054,-4.2495,-4.225,-4.1024,-4.1301,-3.9063,-3.5591,-3.5378,-3.5351,-3.5431,-3.5725,-3.6099,-3.5649,-2.976,-2.8178,-2.7519,-2.1794,-1.9983,-1.9997,-2.0078,-1.9644,-1.9101,-1.8925,-1.8884,-1.8979,-1.9237,-1.9332,-1.9427,-1.9698,-1.9739,-1.963,-1.9332,-1.9128,-1.8938,-1.8599,-1.8342,-1.8124,-1.7948,0.0,0.0,0.0,-1.7758,-1.8016,-1.8477,-1.6718,-1.532,-1.4741,-1.0144,-0.7034,-0.6107,-0.2939,-0.1234,-0.125,-0.0503,-0.0252,-0.0998,-0.0499,0.0,0.0,0.0,0.0,0.0,0.0,0.0,0.0,0.0,0.0,0.0,0.0,0.1963,0.5476,0.8755,1.2037,1.5301,1.7892,1.4979,0.9703,0.8933,0.4873,0.0,-5.9653,-5.764,-5.5545,-5.3805,-5.3359,-5.3516,-5.3945,-5.4726,-5.5273,-5.5312,-5.3464,-5.3512,-5.6755,-5.4432,-5.4133,-5.7774,-5.7851,-5.8044,-5.8469,-5.8469,-5.7306,-5.4664,-5.6548,-5.7672,-5.7851,-5.6211,-5.3786,-5.0955,-4.6954,-4.3478,-4.0423,-3.7776,-3.6313,-3.6315,-3.9922,-4.1467,-4.1848,-4.7664,-4.6919,-4.1571,-4.3979,-4.1149,-3.5618,-3.5591,-3.5778,-3.6046,-3.634,-3.6981,-3.6823,-3.0557,-2.898,-2.8327,-2.2196,-2.0295,-2.0282,-2.0132,-1.9875,-1.9549,-1.925,-1.9278,-1.9413,-1.959,-1.9725,-1.9875,-2.0037,-1.9956,-1.9766,-1.9481,-1.9291,-1.9061,-1.8613,-1.8518,-1.8409,-1.8124,0.0,0.0,-1.8233,-1.8369,-1.864,-1.9074,-1.9039,-1.8046,-1.5339,-1.4276,-1.278,-0.9921,-0.6458,-0.449,-0.4527,-0.1766,-0.1509,-0.4484,-0.1487,0.0,0.0,0.0,0.0,0.0,0.0,0.0,0.0,0.0,0.0,0.0,0.0,0.1955,0.5476,0.8707,1.198,1.5031,1.5318,1.2961,0.9468,0.632,0.2951,0.0,-5.8436,-5.663,-5.4855,-5.2817,-5.2773,-5.3125,-5.3555,-5.4375,-5.5,-5.5273,-5.3084,-5.2885,-5.6543,-5.4277,-5.3953,-5.7827,-5.8359,-5.8711,-5.918,-5.918,-5.8693,-5.7531,-5.7928,-5.8008,-5.7461,-5.6562,-5.4168,-5.0172,-4.688,-4.3799,-4.0327,-3.7726,-3.666,-3.7122,-4.046,-4.2833,-4.4858,-4.8803,-4.7961,-4.3831,-4.4529,-4.1176,-3.5645,-3.5832,-3.6072,-3.642,-3.7088,-3.7649,-3.7214,-3.1031,-2.9281,-2.8667,-2.2256,-2.0254,-2.0159,-1.9997,-2.1334,-2.2161,-2.013,-1.9657,-1.9766,-2.001,-2.0051,-2.0051,-2.02,-2.0119,-1.9929,-1.9644,-1.9454,-1.9237,-1.8884,-1.8749,-1.864,-1.8531,0.0,-1.845,-1.8708,-1.8776,-1.8993,-1.9427,-1.9698,-1.9396,-1.825,-1.6154,-1.4601,-1.3159,-0.9894,-0.7924,-0.7984,-0.6747,-0.6733,-0.7957,-0.4675,-0.2935,-0.2935,-0.098,0.0,0.0,0.0,0.0,0.0,0.0,0.0,0.0,0.2154,0.4859,0.8389,1.1595,1.4868,1.7929,1.5457,1.2656,0.9468,0.6082,0.2707,0.0,-5.7446,-5.5287,-5.3406,-5.2188,-5.2226,-5.2656,-5.3086,-5.3906,-5.457,-5.4883,-5.3405,-5.3322,-5.5882,-5.4503,-5.4487,-5.736,-5.8086,-5.8555,-5.914,-5.918,-5.918,-5.918,-5.875,-5.8203,-5.7422,-5.6875,-5.4974,-5.1608,-4.7645,-4.4612,-4.2157,-3.9617,-3.8584,-3.8918,-4.3329,-4.6151,-4.8278,-5.1041,-4.9618,-4.5445,-4.508,-4.1391,-3.5939,-3.6233,-3.666,-3.7168,-3.7863,-3.837,-3.7788,-3.1766,-2.9825,-2.8764,-2.2331,-2.1034,-2.1625,-2.1509,-2.3142,-2.4317,-2.2174,-2.0753,-2.0064,-2.0282,-2.0282,-2.0254,-2.0363,-2.0282,-2.0105,-1.9861,-1.9644,-1.9427,-1.9169,-1.9006,-1.8884,-1.883,-1.8816,-1.8884,-1.9101,-1.9196,-1.9413,-1.982,-2.0051,-2.0187,-2.0241,-1.8088,-1.675,-1.6761,-1.3388,-1.0865,-0.99,-1.067,-1.1396,-1.1349,-0.9033,-0.7518,-0.628,-0.2184,0.0,0.0,0.0,0.0,0.0,0.0,0.0,0.0235,0.3581,0.6777,1.028,1.3495,1.6032,1.8101,1.4441,1.0981,0.7831,0.4414,0.1735,0.0,-5.7223,-5.3778,-5.0937,-5.1367,-5.1797,-5.2226,-5.2656,-5.3437,-5.4023,-5.4023,-5.4765,-5.5273,-5.5312,-5.5664,-5.6289,-5.7148,-5.7617,-5.8242,-5.914,-5.918,-5.918,-5.918,-5.875,-5.832,-5.7851,-5.7031,-5.6172,-5.5312,-4.9051,-4.5861,-4.5497,-4.3425,-4.2257,-4.2206,-4.9124,-5.1874,-5.1981,-5.4626,-5.2148,-4.6208,-4.5843,-4.2097,-3.6553,-3.6821,-3.7489,-3.829,-3.8611,-3.9118,-3.8648,-3.2308,-3.0169,-2.8977,-2.2495,-2.2672,-2.5246,-2.5246,-2.5127,-2.5289,-2.5212,-2.2801,-2.0336,-2.0336,-2.0431,-2.0539,-2.0539,-2.0431,-2.0295,-2.0132,-1.9875,-1.963,-1.9468,-1.9305,-1.9169,-1.902,-1.9237,-1.9427,-1.9427,-1.9698,-1.9997,-2.0295,-2.0336,-2.0376,-2.0526,-2.0417,-2.0336,-2.0336,-1.7033,-1.3607,-1.007,-1.2868,-1.4796,-1.4572,-1.4562,-1.3003,-0.9728,-0.3357,0.0,0.0,0.0,0.0,0.0,0.0,0.0,0.0233,0.3574,0.6758,1.0208,1.3457,1.4796,1.4641,1.1081,0.7902,0.4478,0.1248,0.0,0.0,-5.7761,-5.4237,-5.1289,-5.1406,-5.1797,-5.2109,-5.2266,-5.2734,-5.3203,-5.3516,-5.3516,-5.3828,-5.4765,-5.4961,-5.5625,-5.707,-5.7617,-5.8242,-5.914,-5.918,-5.918,-5.918,-5.9062,-5.8672,-5.7851,-5.7617,-5.6013,-5.2657,-5.101,-4.8652,-4.5894,-4.5704,-4.543,-4.5365,-4.9891,-5.1802,-5.1911,-5.2229,-5.0153,-4.5993,-4.3484,-4.0446,-3.7168,-3.7676,-3.6884,-3.5573,-3.6038,-3.6307,-3.5512,-2.9094,-2.8426,-2.9191,-2.2524,-2.2747,-2.5432,-2.5296,-2.6927,-2.8123,-2.599,-2.4516,-2.3082,-2.0936,-2.0512,-2.0539,-2.0539,-2.0431,-2.0309,-2.0282,-2.0105,-1.9956,-1.9902,-1.9875,-1.978,-1.963,-1.9766,-1.9902,-1.9902,-2.0064,-2.0254,-2.0458,-2.0471,-2.0485,-2.0539,-2.0417,-2.0336,-2.0336,-1.9045,-1.7868,-1.6825,-1.777,-1.8159,-1.7983,-1.569,-1.2938,-0.9728,-0.5478,-0.2143,0.0,0.0,0.0,0.0,0.0,0.0,0.0237,0.6009,0.9021,1.0604,1.5889,1.6744,1.4742,1.1111,0.7682,0.4515,0.125,0.0,0.0,-5.7671,-5.4028,-5.0976,-5.1133,-5.1406,-5.1641,-5.1797,-5.2187,-5.2539,-5.2812,-5.2773,-5.3086,-5.4062,-5.4453,-5.5234,-5.6601,-5.7578,-5.8437,-5.914,-5.918,-5.918,-5.918,-5.9023,-5.8594,-5.7851,-5.7851,-5.6321,-5.3307,-5.2197,-5.0544,-4.7981,-4.8574,-4.878,-4.878,-5.2233,-5.2922,-5.1838,-5.1369,-4.8755,-4.4518,-4.2675,-3.956,-3.6067,-3.6525,-3.4891,-3.2728,-3.3017,-3.3172,-3.2547,-2.7253,-2.6035,-2.6053,-2.3298,-2.4795,-2.7753,-2.8865,-2.9796,-2.9796,-2.7854,-2.5364,-2.2908,-2.1006,-2.0539,-2.0539,-2.0539,-2.0431,-2.0349,-2.0404,-2.0241,-2.0119,-2.0187,-2.0105,-1.9997,-1.9956,-2.0051,-2.0119,-2.0187,-2.0309,-2.0458,-2.0526,-2.0539,-2.0539,-2.0539,-2.0471,-2.0376,-2.0336,-2.0105,-1.9902,-1.9807,-1.9644,-1.9468,-1.925,-1.7293,-1.4823,-1.1384,-0.8361,-0.4294,0.0,0.0,0.0,0.0,0.0,0.0,0.0241,0.5588,0.7869,0.8447,1.356,1.3882,1.0794,0.8488,0.5764,0.2782,0.0757,0.0,0.0,-5.7358,-5.3486,-5.0351,-5.0781,-5.0859,-5.0976,-5.1367,-5.1758,-5.2031,-5.2031,-5.2344,-5.2773,-5.3242,-5.4101,-5.4961,-5.5859,-5.7539,-5.8711,-5.918,-5.918,-5.918,-5.918,-5.875,-5.832,-5.7851,-5.7812,-5.7226,-5.5976,-5.3345,-5.1799,-5.1436,-5.1836,-5.2233,-5.2197,-5.5222,-5.4755,-5.1802,-5.1298,-4.7793,-4.2334,-4.1929,-3.86,-3.3782,-3.3824,-3.2004,-2.9697,-2.9717,-2.9856,-2.9517,-2.677,-2.3803,-2.1541,-2.4795,-2.8289,-3.1505,-3.4491,-3.3258,-3.0512,-3.0512,-2.555,-2.0539,-2.0539,-2.0539,-2.0539,-2.0539,-2.0431,-2.0363,-2.0512,-2.0309,-2.0173,-2.0309,-2.0119,-1.9983,-2.0105,-2.0132,-2.0187,-2.0309,-2.0458,-2.0539,-2.0539,-2.0539,-2.0539,-2.0539,-2.0539,-2.0485,-2.0363,-2.02,-1.9997,-1.9712,-1.9549,-1.9345,-1.9061,-1.9183,-1.7732,-1.4276,-1.1107,-0.6522,-0.0478,-0.0239,0.0,0.0,0.0,0.0,0.0245,0.3448,0.4955,0.5245,0.8528,0.7809,0.4798,0.4827,0.2803,0.0,0.0,0.0,0.0,-5.8254,-5.4195,-5.082,-5.1211,-5.1289,-5.1328,-5.1406,-5.1523,-5.1562,-5.1562,-5.1641,-5.1992,-5.2773,-5.3633,-5.4648,-5.582,-5.7539,-5.8711,-5.918,-5.918,-5.918,-5.918,-5.875,-5.832,-5.7851,-5.7539,-5.707,-5.6445,-5.5765,-5.5321,-5.4936,-5.5359,-5.5359,-5.5051,-5.5804,-5.4641,-5.1729,-4.8918,-4.5881,-4.2539,-3.7758,-3.5078,-3.4079,-3.1892,-2.9224,-2.6484,-2.6643,-2.6625,-2.677,-2.877,-2.7289,-2.503,-2.8289,-3.1732,-3.4491,-3.5228,-3.3258,-3.0512,-3.0512,-2.555,-2.0539,-2.0539,-2.0539,-2.0539,-2.0539,-2.0431,-2.0363,-2.0512,-2.0404,-2.0336,-2.0471,-2.0431,-2.0363,-2.0295,-2.0363,-2.0417,-2.0349,-2.0458,-2.0539,-2.0539,-2.0539,-2.0539,-2.0539,-2.0539,-2.0526,-2.0512,-2.0363,-2.02,-2.001,-1.9861,-1.9698,-1.9522,-1.9535,-1.8071,-1.4876,-1.1491,-0.7809,-0.3877,-0.122,0.0,0.0,0.0,0.0,0.0249,0.3519,0.5074,0.5363,0.8379,0.792,0.5159,0.4856,0.2814,0.0,0.0,0.0,0.0,-5.6443,-5.3197,-5.0586,-5.0781,-5.1016,-5.1133,-5.1133,-5.1289,-5.1445,-5.1445,-5.1445,-5.1758,-5.2617,-5.3516,-5.4805,-5.668,-5.789,-5.8711,-5.918,-5.918,-5.9062,-5.8906,-5.8437,-5.8008,-5.7578,-5.7148,-5.6797,-5.6601,-5.6601,-5.6484,-5.625,-5.6484,-5.6445,-5.625,-5.4703,-5.2306,-4.9585,-4.6135,-4.3397,-4.0742,-3.6093,-3.3554,-3.2221,-3.0742,-2.8407,-2.5818,-2.7506,-2.8337,-2.8552,-3.0214,-2.9423,-2.8653,-3.1774,-3.3998,-3.5719,-3.7457,-3.4468,-3.0512,-3.0512,-2.555,-2.0539,-2.0539,-2.0539,-2.0539,-2.0539,-2.0431,-2.0363,-2.0512,-2.0431,-2.0363,-2.0526,-2.0485,-2.0431,-2.0431,-2.0431,-2.0431,-2.0431,-2.0485,-2.0539,-2.0539,-2.0539,-2.0539,-2.0539,-2.0539,-2.0539,-2.0539,-2.0417,-2.0254,-2.0105,-1.9956,-1.9807,-1.9657,-1.9725,-1.9006,-1.728,-1.2426,-0.8986,-0.7241,-0.2247,0.0,0.0,0.0,0.0,0.0,0.1806,0.2599,0.2878,0.4412,0.415,0.2602,0.2572,0.1542,0.0,0.0,0.0,0.0,-5.4153,-5.1731,-5.0078,-5.0156,-5.0469,-5.0703,-5.0781,-5.1094,-5.1367,-5.1406,-5.1445,-5.1758,-5.2617,-5.3711,-5.5312,-5.7656,-5.8242,-5.8711,-5.918,-5.9101,-5.8906,-5.8555,-5.7969,-5.75,-5.7226,-5.6719,-5.6523,-5.6601,-5.6601,-5.6601,-5.6601,-5.6601,-5.6348,-5.5667,-5.2811,-4.9849,-4.6394,-4.3938,-4.1003,-3.7762,-3.5083,-3.2464,-3.0249,-2.9707,-2.8289,-2.6806,-2.9791,-3.1038,-3.1433,-3.1671,-3.1881,-3.2361,-3.5322,-3.6503,-3.7017,-3.9752,-3.5743,-3.0512,-3.0512,-2.555,-2.0539,-2.0539,-2.0539,-2.0539,-2.0539,-2.0458,-2.0404,-2.0526,-2.0458,-2.0404,-2.0526,-2.0458,-2.0404,-2.0526,-2.0431,-2.0404,-2.0526,-2.0539,-2.0539,-2.0539,-2.0553,-2.0594,-2.0607,-2.0594,-2.0594,-2.0607,-2.0471,-2.0309,-2.0187,-2.0037,-1.9888,-1.978,-1.9902,-1.9983,-1.9983,-1.3439,-1.0254,-1.0045,-0.3328,0.0,0.0,0.0,0.0,0.0,0.0,0.0,0.0,0.0,0.0,0.0,0.0,0.0,0.0,0.0,0.0,0.0,-5.4111,-5.1448,-4.9726,-5.0117,-5.0234,-5.0391,-5.0742,-5.0859,-5.1016,-5.1367,-5.1445,-5.1758,-5.2617,-5.4492,-5.625,-5.7734,-5.8242,-5.8711,-5.918,-5.8828,-5.8594,-5.8515,-5.7383,-5.6914,-5.7187,-5.6445,-5.6211,-5.6601,-5.6601,-5.6601,-5.6601,-5.6601,-5.5237,-5.2745,-5.1911,-4.8807,-4.3988,-4.3261,-4.0151,-3.5175,-3.2064,-3.0496,-3.0224,-2.7271,-2.7771,-2.9825,-3.0957,-3.1281,-3.1892,-3.4516,-3.5515,-3.6108,-3.888,-3.991,-4.0312,-4.0535,-3.5743,-3.0512,-3.0512,-2.555,-2.0539,-2.0539,-2.0539,-2.0539,-2.0539,-2.0526,-2.0526,-2.0539,-2.0526,-2.0526,-2.0539,-2.0526,-2.0526,-2.0539,-2.0526,-2.0526,-2.0539,-2.0539,-2.0539,-2.0539,-2.0661,-2.0783,-2.0933,-2.0824,-2.0783,-2.0933,-2.0689,-2.0512,-2.0485,-2.0349,-2.0254,-2.0241,-2.0376,-2.0458,-2.0458,-1.3736,-1.0452,-1.0211,-0.3182,0.0,0.0,0.0,0.0,0.0,0.0,0.0,0.0,0.0,0.0,0.0,0.0,0.0,0.0,0.0,0.0,0.0,-5.1657,-5.0199,-4.9492,-4.9453,-4.9844,-5.0156,-5.0117,-5.0312,-5.0625,-5.1016,-5.1094,-5.1484,-5.2578,-5.4648,-5.6445,-5.7734,-5.8242,-5.8594,-5.8828,-5.8633,-5.832,-5.7851,-5.7226,-5.6797,-5.6484,-5.6367,-5.6289,-5.6211,-5.6211,-5.6328,-5.6562,-5.6328,-5.4794,-5.2091,-5.0162,-4.723,-4.3479,-4.1686,-3.9939,-3.7302,-3.2301,-3.14,-3.2989,-2.9517,-3.0264,-3.3571,-3.6061,-3.7012,-3.7806,-3.8699,-3.92,-3.9699,-4.0392,-4.0802,-4.0829,-4.0561,-3.5743,-3.0512,-3.0512,-2.555,-2.0539,-2.0539,-2.0539,-2.0539,-2.0539,-2.0539,-2.0539,-2.0539,-2.0539,-2.0539,-2.0539,-2.0607,-2.0661,-2.0661,-2.0661,-2.0661,-2.0661,-2.0594,-2.058,-2.0661,-2.0811,-2.0933,-2.1001,-2.0946,-2.0933,-2.1001,-2.0878,-2.0811,-2.0811,-2.0729,-2.0702,-2.0702,-2.077,-2.0811,-2.0811,-1.3853,-1.054,-1.0357,-0.3241,0.0,0.0,0.0,0.0,0.0,0.0,0.0,0.0,0.0,0.0,0.0,0.0,0.0,0.0,0.0,0.0,0.0]}]]